<?xml version="1.0" encoding="UTF-8" standalone="no" ?>
<gpx xmlns="http://www.topografix.com/GPX/1/1" xmlns:xsi="http://www.w3.org/2001/XMLSchema-instance" xsi:schemaLocation="http://www.topografix.com/GPX/1/1 http://www.topografix.com/GPX/1/1/gpx.xsd" version="1.1" creator="VisuGPX - https://www.visugpx.com">
  <metadata>
    <name>curienne apremont</name>
    <desc><![CDATA[tours curienne   retour appremont]]></desc>
  </metadata>
  <trk>
    <name><![CDATA[CÙRIENNE1 18:36:17]]></name>
    <trkseg>
      <trkpt lat="45.56448" lon="5.93929">
        <ele>235.66</ele>
        <time>2011-04-05T13:53:05Z</time>
      </trkpt>
      <trkpt lat="45.5645" lon="5.93929">
        <ele>235.18</ele>
        <time>2011-04-05T13:53:06Z</time>
      </trkpt>
      <trkpt lat="45.56453" lon="5.9393">
        <ele>238.06</ele>
        <time>2011-04-05T13:53:11Z</time>
      </trkpt>
      <trkpt lat="45.56455" lon="5.93931">
        <ele>241.91</ele>
        <time>2011-04-05T13:53:15Z</time>
      </trkpt>
      <trkpt lat="45.56456" lon="5.93934">
        <ele>245.27</ele>
        <time>2011-04-05T13:53:18Z</time>
      </trkpt>
      <trkpt lat="45.56456" lon="5.93934">
        <ele>248.16</ele>
        <time>2011-04-05T13:53:22Z</time>
      </trkpt>
      <trkpt lat="45.56456" lon="5.93934">
        <ele>252</ele>
        <time>2011-04-05T13:53:25Z</time>
      </trkpt>
      <trkpt lat="45.5645" lon="5.93938">
        <ele>255.37</ele>
        <time>2011-04-05T13:53:29Z</time>
      </trkpt>
      <trkpt lat="45.5643" lon="5.9395">
        <ele>258.73</ele>
        <time>2011-04-05T13:53:35Z</time>
      </trkpt>
      <trkpt lat="45.56419" lon="5.93949">
        <ele>261.14</ele>
        <time>2011-04-05T13:53:38Z</time>
      </trkpt>
      <trkpt lat="45.56405" lon="5.93945">
        <ele>264.02</ele>
        <time>2011-04-05T13:53:43Z</time>
      </trkpt>
      <trkpt lat="45.56376" lon="5.93968">
        <ele>266.9</ele>
        <time>2011-04-05T13:53:51Z</time>
      </trkpt>
      <trkpt lat="45.56367" lon="5.93976">
        <ele>266.9</ele>
        <time>2011-04-05T13:53:53Z</time>
      </trkpt>
      <trkpt lat="45.56314" lon="5.94039">
        <ele>269.31</ele>
        <time>2011-04-05T13:54:06Z</time>
      </trkpt>
      <trkpt lat="45.56257" lon="5.94068">
        <ele>272.67</ele>
        <time>2011-04-05T13:54:18Z</time>
      </trkpt>
      <trkpt lat="45.56252" lon="5.94069">
        <ele>272.19</ele>
        <time>2011-04-05T13:54:19Z</time>
      </trkpt>
      <trkpt lat="45.56247" lon="5.9407">
        <ele>272.67</ele>
        <time>2011-04-05T13:54:20Z</time>
      </trkpt>
      <trkpt lat="45.56226" lon="5.9407">
        <ele>273.63</ele>
        <time>2011-04-05T13:54:24Z</time>
      </trkpt>
      <trkpt lat="45.56211" lon="5.94067">
        <ele>273.63</ele>
        <time>2011-04-05T13:54:27Z</time>
      </trkpt>
      <trkpt lat="45.56207" lon="5.94064">
        <ele>274.11</ele>
        <time>2011-04-05T13:54:28Z</time>
      </trkpt>
      <trkpt lat="45.562" lon="5.94056">
        <ele>274.11</ele>
        <time>2011-04-05T13:54:30Z</time>
      </trkpt>
      <trkpt lat="45.56195" lon="5.94055">
        <ele>274.11</ele>
        <time>2011-04-05T13:54:31Z</time>
      </trkpt>
      <trkpt lat="45.56191" lon="5.94056">
        <ele>275.07</ele>
        <time>2011-04-05T13:54:32Z</time>
      </trkpt>
      <trkpt lat="45.56186" lon="5.94059">
        <ele>275.07</ele>
        <time>2011-04-05T13:54:33Z</time>
      </trkpt>
      <trkpt lat="45.56183" lon="5.94062">
        <ele>275.56</ele>
        <time>2011-04-05T13:54:34Z</time>
      </trkpt>
      <trkpt lat="45.56162" lon="5.94082">
        <ele>276.04</ele>
        <time>2011-04-05T13:54:39Z</time>
      </trkpt>
      <trkpt lat="45.56123" lon="5.9413">
        <ele>277</ele>
        <time>2011-04-05T13:54:50Z</time>
      </trkpt>
      <trkpt lat="45.56123" lon="5.94133">
        <ele>277</ele>
        <time>2011-04-05T13:54:51Z</time>
      </trkpt>
      <trkpt lat="45.56118" lon="5.94176">
        <ele>276.04</ele>
        <time>2011-04-05T13:55:01Z</time>
      </trkpt>
      <trkpt lat="45.56118" lon="5.94182">
        <ele>276.52</ele>
        <time>2011-04-05T13:55:03Z</time>
      </trkpt>
      <trkpt lat="45.56119" lon="5.94198">
        <ele>276.04</ele>
        <time>2011-04-05T13:55:06Z</time>
      </trkpt>
      <trkpt lat="45.56117" lon="5.94204">
        <ele>276.52</ele>
        <time>2011-04-05T13:55:07Z</time>
      </trkpt>
      <trkpt lat="45.56115" lon="5.9421">
        <ele>276.52</ele>
        <time>2011-04-05T13:55:08Z</time>
      </trkpt>
      <trkpt lat="45.56112" lon="5.94216">
        <ele>276.52</ele>
        <time>2011-04-05T13:55:09Z</time>
      </trkpt>
      <trkpt lat="45.5611" lon="5.94222">
        <ele>276.52</ele>
        <time>2011-04-05T13:55:10Z</time>
      </trkpt>
      <trkpt lat="45.56109" lon="5.9423">
        <ele>276.52</ele>
        <time>2011-04-05T13:55:11Z</time>
      </trkpt>
      <trkpt lat="45.5611" lon="5.94237">
        <ele>276.52</ele>
        <time>2011-04-05T13:55:12Z</time>
      </trkpt>
      <trkpt lat="45.56112" lon="5.94244">
        <ele>276.52</ele>
        <time>2011-04-05T13:55:13Z</time>
      </trkpt>
      <trkpt lat="45.56114" lon="5.94251">
        <ele>276.52</ele>
        <time>2011-04-05T13:55:14Z</time>
      </trkpt>
      <trkpt lat="45.56115" lon="5.94259">
        <ele>276.52</ele>
        <time>2011-04-05T13:55:15Z</time>
      </trkpt>
      <trkpt lat="45.56115" lon="5.94267">
        <ele>276.52</ele>
        <time>2011-04-05T13:55:16Z</time>
      </trkpt>
      <trkpt lat="45.56114" lon="5.94275">
        <ele>276.52</ele>
        <time>2011-04-05T13:55:17Z</time>
      </trkpt>
      <trkpt lat="45.56113" lon="5.94283">
        <ele>277</ele>
        <time>2011-04-05T13:55:18Z</time>
      </trkpt>
      <trkpt lat="45.56105" lon="5.94348">
        <ele>277</ele>
        <time>2011-04-05T13:55:26Z</time>
      </trkpt>
      <trkpt lat="45.56104" lon="5.94381">
        <ele>276.52</ele>
        <time>2011-04-05T13:55:30Z</time>
      </trkpt>
      <trkpt lat="45.56103" lon="5.94389">
        <ele>276.52</ele>
        <time>2011-04-05T13:55:31Z</time>
      </trkpt>
      <trkpt lat="45.56073" lon="5.9451">
        <ele>277</ele>
        <time>2011-04-05T13:55:46Z</time>
      </trkpt>
      <trkpt lat="45.56067" lon="5.94524">
        <ele>277.48</ele>
        <time>2011-04-05T13:55:48Z</time>
      </trkpt>
      <trkpt lat="45.56062" lon="5.9453">
        <ele>277.48</ele>
        <time>2011-04-05T13:55:49Z</time>
      </trkpt>
      <trkpt lat="45.56056" lon="5.94535">
        <ele>277</ele>
        <time>2011-04-05T13:55:50Z</time>
      </trkpt>
      <trkpt lat="45.56051" lon="5.94538">
        <ele>277</ele>
        <time>2011-04-05T13:55:51Z</time>
      </trkpt>
      <trkpt lat="45.56044" lon="5.9454">
        <ele>277.96</ele>
        <time>2011-04-05T13:55:52Z</time>
      </trkpt>
      <trkpt lat="45.56038" lon="5.94542">
        <ele>277</ele>
        <time>2011-04-05T13:55:53Z</time>
      </trkpt>
      <trkpt lat="45.55959" lon="5.94563">
        <ele>277.48</ele>
        <time>2011-04-05T13:56:06Z</time>
      </trkpt>
      <trkpt lat="45.55954" lon="5.94567">
        <ele>277.48</ele>
        <time>2011-04-05T13:56:07Z</time>
      </trkpt>
      <trkpt lat="45.55949" lon="5.94572">
        <ele>277.48</ele>
        <time>2011-04-05T13:56:08Z</time>
      </trkpt>
      <trkpt lat="45.55944" lon="5.94578">
        <ele>277</ele>
        <time>2011-04-05T13:56:09Z</time>
      </trkpt>
      <trkpt lat="45.5594" lon="5.94585">
        <ele>277.48</ele>
        <time>2011-04-05T13:56:10Z</time>
      </trkpt>
      <trkpt lat="45.55937" lon="5.94592">
        <ele>277.48</ele>
        <time>2011-04-05T13:56:11Z</time>
      </trkpt>
      <trkpt lat="45.55885" lon="5.947">
        <ele>278.44</ele>
        <time>2011-04-05T13:56:26Z</time>
      </trkpt>
      <trkpt lat="45.55869" lon="5.94777">
        <ele>278.92</ele>
        <time>2011-04-05T13:56:35Z</time>
      </trkpt>
      <trkpt lat="45.55867" lon="5.94784">
        <ele>279.4</ele>
        <time>2011-04-05T13:56:36Z</time>
      </trkpt>
      <trkpt lat="45.55864" lon="5.9479">
        <ele>279.88</ele>
        <time>2011-04-05T13:56:37Z</time>
      </trkpt>
      <trkpt lat="45.55861" lon="5.94794">
        <ele>280.36</ele>
        <time>2011-04-05T13:56:38Z</time>
      </trkpt>
      <trkpt lat="45.55856" lon="5.94797">
        <ele>280.36</ele>
        <time>2011-04-05T13:56:39Z</time>
      </trkpt>
      <trkpt lat="45.55851" lon="5.948">
        <ele>280.36</ele>
        <time>2011-04-05T13:56:40Z</time>
      </trkpt>
      <trkpt lat="45.55846" lon="5.94802">
        <ele>280.36</ele>
        <time>2011-04-05T13:56:41Z</time>
      </trkpt>
      <trkpt lat="45.55771" lon="5.94842">
        <ele>280.36</ele>
        <time>2011-04-05T13:56:56Z</time>
      </trkpt>
      <trkpt lat="45.55759" lon="5.94854">
        <ele>280.84</ele>
        <time>2011-04-05T13:57:00Z</time>
      </trkpt>
      <trkpt lat="45.55759" lon="5.94858">
        <ele>280.36</ele>
        <time>2011-04-05T13:57:01Z</time>
      </trkpt>
      <trkpt lat="45.5576" lon="5.94861">
        <ele>280.36</ele>
        <time>2011-04-05T13:57:02Z</time>
      </trkpt>
      <trkpt lat="45.55763" lon="5.94874">
        <ele>279.88</ele>
        <time>2011-04-05T13:57:07Z</time>
      </trkpt>
      <trkpt lat="45.55761" lon="5.94879">
        <ele>279.88</ele>
        <time>2011-04-05T13:57:08Z</time>
      </trkpt>
      <trkpt lat="45.55758" lon="5.94884">
        <ele>280.36</ele>
        <time>2011-04-05T13:57:09Z</time>
      </trkpt>
      <trkpt lat="45.55755" lon="5.94888">
        <ele>279.88</ele>
        <time>2011-04-05T13:57:10Z</time>
      </trkpt>
      <trkpt lat="45.55751" lon="5.94893">
        <ele>279.88</ele>
        <time>2011-04-05T13:57:11Z</time>
      </trkpt>
      <trkpt lat="45.55746" lon="5.94897">
        <ele>279.88</ele>
        <time>2011-04-05T13:57:12Z</time>
      </trkpt>
      <trkpt lat="45.5574" lon="5.94901">
        <ele>279.88</ele>
        <time>2011-04-05T13:57:13Z</time>
      </trkpt>
      <trkpt lat="45.55735" lon="5.94904">
        <ele>279.88</ele>
        <time>2011-04-05T13:57:14Z</time>
      </trkpt>
      <trkpt lat="45.5573" lon="5.94908">
        <ele>279.88</ele>
        <time>2011-04-05T13:57:15Z</time>
      </trkpt>
      <trkpt lat="45.55725" lon="5.94913">
        <ele>280.36</ele>
        <time>2011-04-05T13:57:16Z</time>
      </trkpt>
      <trkpt lat="45.5572" lon="5.94918">
        <ele>280.36</ele>
        <time>2011-04-05T13:57:17Z</time>
      </trkpt>
      <trkpt lat="45.55716" lon="5.94924">
        <ele>280.36</ele>
        <time>2011-04-05T13:57:18Z</time>
      </trkpt>
      <trkpt lat="45.55679" lon="5.94982">
        <ele>280.84</ele>
        <time>2011-04-05T13:57:27Z</time>
      </trkpt>
      <trkpt lat="45.55619" lon="5.95056">
        <ele>280.84</ele>
        <time>2011-04-05T13:57:39Z</time>
      </trkpt>
      <trkpt lat="45.55593" lon="5.95086">
        <ele>280.84</ele>
        <time>2011-04-05T13:57:44Z</time>
      </trkpt>
      <trkpt lat="45.55514" lon="5.95187">
        <ele>280.84</ele>
        <time>2011-04-05T13:58:00Z</time>
      </trkpt>
      <trkpt lat="45.5543" lon="5.95295">
        <ele>280.84</ele>
        <time>2011-04-05T13:58:17Z</time>
      </trkpt>
      <trkpt lat="45.554" lon="5.95333">
        <ele>281.32</ele>
        <time>2011-04-05T13:58:23Z</time>
      </trkpt>
      <trkpt lat="45.55385" lon="5.95346">
        <ele>282.28</ele>
        <time>2011-04-05T13:58:26Z</time>
      </trkpt>
      <trkpt lat="45.55349" lon="5.95389">
        <ele>283.73</ele>
        <time>2011-04-05T13:58:35Z</time>
      </trkpt>
      <trkpt lat="45.55347" lon="5.95395">
        <ele>284.21</ele>
        <time>2011-04-05T13:58:36Z</time>
      </trkpt>
      <trkpt lat="45.55346" lon="5.95401">
        <ele>283.73</ele>
        <time>2011-04-05T13:58:37Z</time>
      </trkpt>
      <trkpt lat="45.55347" lon="5.95407">
        <ele>283.73</ele>
        <time>2011-04-05T13:58:38Z</time>
      </trkpt>
      <trkpt lat="45.55349" lon="5.95413">
        <ele>284.21</ele>
        <time>2011-04-05T13:58:39Z</time>
      </trkpt>
      <trkpt lat="45.55352" lon="5.95418">
        <ele>283.73</ele>
        <time>2011-04-05T13:58:40Z</time>
      </trkpt>
      <trkpt lat="45.55356" lon="5.95422">
        <ele>283.73</ele>
        <time>2011-04-05T13:58:41Z</time>
      </trkpt>
      <trkpt lat="45.55359" lon="5.95426">
        <ele>283.73</ele>
        <time>2011-04-05T13:58:42Z</time>
      </trkpt>
      <trkpt lat="45.55363" lon="5.9543">
        <ele>283.73</ele>
        <time>2011-04-05T13:58:43Z</time>
      </trkpt>
      <trkpt lat="45.55367" lon="5.95432">
        <ele>283.73</ele>
        <time>2011-04-05T13:58:44Z</time>
      </trkpt>
      <trkpt lat="45.55372" lon="5.95433">
        <ele>283.73</ele>
        <time>2011-04-05T13:58:45Z</time>
      </trkpt>
      <trkpt lat="45.55377" lon="5.95431">
        <ele>282.77</ele>
        <time>2011-04-05T13:58:46Z</time>
      </trkpt>
      <trkpt lat="45.55382" lon="5.95426">
        <ele>282.28</ele>
        <time>2011-04-05T13:58:47Z</time>
      </trkpt>
      <trkpt lat="45.55386" lon="5.9542">
        <ele>282.28</ele>
        <time>2011-04-05T13:58:48Z</time>
      </trkpt>
      <trkpt lat="45.55389" lon="5.95414">
        <ele>281.8</ele>
        <time>2011-04-05T13:58:49Z</time>
      </trkpt>
      <trkpt lat="45.55393" lon="5.95411">
        <ele>281.8</ele>
        <time>2011-04-05T13:58:50Z</time>
      </trkpt>
      <trkpt lat="45.55398" lon="5.95412">
        <ele>281.8</ele>
        <time>2011-04-05T13:58:51Z</time>
      </trkpt>
      <trkpt lat="45.55417" lon="5.95423">
        <ele>281.8</ele>
        <time>2011-04-05T13:58:55Z</time>
      </trkpt>
      <trkpt lat="45.55421" lon="5.95425">
        <ele>281.8</ele>
        <time>2011-04-05T13:58:56Z</time>
      </trkpt>
      <trkpt lat="45.55426" lon="5.95425">
        <ele>281.8</ele>
        <time>2011-04-05T13:58:57Z</time>
      </trkpt>
      <trkpt lat="45.55431" lon="5.95425">
        <ele>281.32</ele>
        <time>2011-04-05T13:58:58Z</time>
      </trkpt>
      <trkpt lat="45.55436" lon="5.95424">
        <ele>281.8</ele>
        <time>2011-04-05T13:58:59Z</time>
      </trkpt>
      <trkpt lat="45.55441" lon="5.95422">
        <ele>282.28</ele>
        <time>2011-04-05T13:59:00Z</time>
      </trkpt>
      <trkpt lat="45.55446" lon="5.95418">
        <ele>281.8</ele>
        <time>2011-04-05T13:59:01Z</time>
      </trkpt>
      <trkpt lat="45.55451" lon="5.95414">
        <ele>281.8</ele>
        <time>2011-04-05T13:59:02Z</time>
      </trkpt>
      <trkpt lat="45.55455" lon="5.95409">
        <ele>282.28</ele>
        <time>2011-04-05T13:59:03Z</time>
      </trkpt>
      <trkpt lat="45.5546" lon="5.95403">
        <ele>281.8</ele>
        <time>2011-04-05T13:59:04Z</time>
      </trkpt>
      <trkpt lat="45.55464" lon="5.95397">
        <ele>281.32</ele>
        <time>2011-04-05T13:59:05Z</time>
      </trkpt>
      <trkpt lat="45.55476" lon="5.95382">
        <ele>280.36</ele>
        <time>2011-04-05T13:59:08Z</time>
      </trkpt>
      <trkpt lat="45.5548" lon="5.9538">
        <ele>280.36</ele>
        <time>2011-04-05T13:59:09Z</time>
      </trkpt>
      <trkpt lat="45.55484" lon="5.9538">
        <ele>280.36</ele>
        <time>2011-04-05T13:59:10Z</time>
      </trkpt>
      <trkpt lat="45.55488" lon="5.95382">
        <ele>280.36</ele>
        <time>2011-04-05T13:59:11Z</time>
      </trkpt>
      <trkpt lat="45.55491" lon="5.95387">
        <ele>280.84</ele>
        <time>2011-04-05T13:59:12Z</time>
      </trkpt>
      <trkpt lat="45.55494" lon="5.95393">
        <ele>280.36</ele>
        <time>2011-04-05T13:59:13Z</time>
      </trkpt>
      <trkpt lat="45.55507" lon="5.95428">
        <ele>281.32</ele>
        <time>2011-04-05T13:59:19Z</time>
      </trkpt>
      <trkpt lat="45.55509" lon="5.95436">
        <ele>281.32</ele>
        <time>2011-04-05T13:59:20Z</time>
      </trkpt>
      <trkpt lat="45.55516" lon="5.95448">
        <ele>282.28</ele>
        <time>2011-04-05T13:59:22Z</time>
      </trkpt>
      <trkpt lat="45.55521" lon="5.95453">
        <ele>282.28</ele>
        <time>2011-04-05T13:59:23Z</time>
      </trkpt>
      <trkpt lat="45.55525" lon="5.95458">
        <ele>282.77</ele>
        <time>2011-04-05T13:59:24Z</time>
      </trkpt>
      <trkpt lat="45.55534" lon="5.95471">
        <ele>283.25</ele>
        <time>2011-04-05T13:59:27Z</time>
      </trkpt>
      <trkpt lat="45.55542" lon="5.95492">
        <ele>283.73</ele>
        <time>2011-04-05T13:59:31Z</time>
      </trkpt>
      <trkpt lat="45.55589" lon="5.95571">
        <ele>285.17</ele>
        <time>2011-04-05T13:59:46Z</time>
      </trkpt>
      <trkpt lat="45.55593" lon="5.95576">
        <ele>285.17</ele>
        <time>2011-04-05T13:59:47Z</time>
      </trkpt>
      <trkpt lat="45.55668" lon="5.95659">
        <ele>285.65</ele>
        <time>2011-04-05T14:00:04Z</time>
      </trkpt>
      <trkpt lat="45.55712" lon="5.95708">
        <ele>287.09</ele>
        <time>2011-04-05T14:00:15Z</time>
      </trkpt>
      <trkpt lat="45.55774" lon="5.95778">
        <ele>288.53</ele>
        <time>2011-04-05T14:00:31Z</time>
      </trkpt>
      <trkpt lat="45.55801" lon="5.95808">
        <ele>288.05</ele>
        <time>2011-04-05T14:00:41Z</time>
      </trkpt>
      <trkpt lat="45.55801" lon="5.95808">
        <ele>287.57</ele>
        <time>2011-04-05T14:01:13Z</time>
      </trkpt>
      <trkpt lat="45.55801" lon="5.95808">
        <ele>287.57</ele>
        <time>2011-04-05T14:01:41Z</time>
      </trkpt>
      <trkpt lat="45.55804" lon="5.95812">
        <ele>287.57</ele>
        <time>2011-04-05T14:01:50Z</time>
      </trkpt>
      <trkpt lat="45.55836" lon="5.95853">
        <ele>287.09</ele>
        <time>2011-04-05T14:01:59Z</time>
      </trkpt>
      <trkpt lat="45.55932" lon="5.95948">
        <ele>286.61</ele>
        <time>2011-04-05T14:02:17Z</time>
      </trkpt>
      <trkpt lat="45.56003" lon="5.96004">
        <ele>287.09</ele>
        <time>2011-04-05T14:02:30Z</time>
      </trkpt>
      <trkpt lat="45.56009" lon="5.96007">
        <ele>287.09</ele>
        <time>2011-04-05T14:02:31Z</time>
      </trkpt>
      <trkpt lat="45.56015" lon="5.96009">
        <ele>287.09</ele>
        <time>2011-04-05T14:02:32Z</time>
      </trkpt>
      <trkpt lat="45.5602" lon="5.96011">
        <ele>287.57</ele>
        <time>2011-04-05T14:02:33Z</time>
      </trkpt>
      <trkpt lat="45.56026" lon="5.96016">
        <ele>287.57</ele>
        <time>2011-04-05T14:02:34Z</time>
      </trkpt>
      <trkpt lat="45.56031" lon="5.9602">
        <ele>287.57</ele>
        <time>2011-04-05T14:02:35Z</time>
      </trkpt>
      <trkpt lat="45.56036" lon="5.96024">
        <ele>287.09</ele>
        <time>2011-04-05T14:02:36Z</time>
      </trkpt>
      <trkpt lat="45.56041" lon="5.96027">
        <ele>287.57</ele>
        <time>2011-04-05T14:02:37Z</time>
      </trkpt>
      <trkpt lat="45.56047" lon="5.96032">
        <ele>287.57</ele>
        <time>2011-04-05T14:02:38Z</time>
      </trkpt>
      <trkpt lat="45.56051" lon="5.96037">
        <ele>287.57</ele>
        <time>2011-04-05T14:02:39Z</time>
      </trkpt>
      <trkpt lat="45.56056" lon="5.96043">
        <ele>287.57</ele>
        <time>2011-04-05T14:02:40Z</time>
      </trkpt>
      <trkpt lat="45.56061" lon="5.96047">
        <ele>287.57</ele>
        <time>2011-04-05T14:02:41Z</time>
      </trkpt>
      <trkpt lat="45.56066" lon="5.96051">
        <ele>287.57</ele>
        <time>2011-04-05T14:02:42Z</time>
      </trkpt>
      <trkpt lat="45.56072" lon="5.96055">
        <ele>287.57</ele>
        <time>2011-04-05T14:02:43Z</time>
      </trkpt>
      <trkpt lat="45.56163" lon="5.96119">
        <ele>288.53</ele>
        <time>2011-04-05T14:03:00Z</time>
      </trkpt>
      <trkpt lat="45.56237" lon="5.96212">
        <ele>289.01</ele>
        <time>2011-04-05T14:03:16Z</time>
      </trkpt>
      <trkpt lat="45.5629" lon="5.96344">
        <ele>290.94</ele>
        <time>2011-04-05T14:03:33Z</time>
      </trkpt>
      <trkpt lat="45.56332" lon="5.96434">
        <ele>291.9</ele>
        <time>2011-04-05T14:03:45Z</time>
      </trkpt>
      <trkpt lat="45.56334" lon="5.96442">
        <ele>291.9</ele>
        <time>2011-04-05T14:03:46Z</time>
      </trkpt>
      <trkpt lat="45.56338" lon="5.96459">
        <ele>291.9</ele>
        <time>2011-04-05T14:03:48Z</time>
      </trkpt>
      <trkpt lat="45.56341" lon="5.96467">
        <ele>291.9</ele>
        <time>2011-04-05T14:03:49Z</time>
      </trkpt>
      <trkpt lat="45.56346" lon="5.96472">
        <ele>291.9</ele>
        <time>2011-04-05T14:03:50Z</time>
      </trkpt>
      <trkpt lat="45.56352" lon="5.96475">
        <ele>291.9</ele>
        <time>2011-04-05T14:03:51Z</time>
      </trkpt>
      <trkpt lat="45.56358" lon="5.96476">
        <ele>291.9</ele>
        <time>2011-04-05T14:03:52Z</time>
      </trkpt>
      <trkpt lat="45.56364" lon="5.96476">
        <ele>292.38</ele>
        <time>2011-04-05T14:03:53Z</time>
      </trkpt>
      <trkpt lat="45.5637" lon="5.96478">
        <ele>291.9</ele>
        <time>2011-04-05T14:03:54Z</time>
      </trkpt>
      <trkpt lat="45.56376" lon="5.96482">
        <ele>292.38</ele>
        <time>2011-04-05T14:03:55Z</time>
      </trkpt>
      <trkpt lat="45.56381" lon="5.96487">
        <ele>291.9</ele>
        <time>2011-04-05T14:03:56Z</time>
      </trkpt>
      <trkpt lat="45.56452" lon="5.96587">
        <ele>293.34</ele>
        <time>2011-04-05T14:04:13Z</time>
      </trkpt>
      <trkpt lat="45.56492" lon="5.96682">
        <ele>293.82</ele>
        <time>2011-04-05T14:04:30Z</time>
      </trkpt>
      <trkpt lat="45.56501" lon="5.96702">
        <ele>294.3</ele>
        <time>2011-04-05T14:04:37Z</time>
      </trkpt>
      <trkpt lat="45.56507" lon="5.96712">
        <ele>293.82</ele>
        <time>2011-04-05T14:04:39Z</time>
      </trkpt>
      <trkpt lat="45.56559" lon="5.96819">
        <ele>295.74</ele>
        <time>2011-04-05T14:04:55Z</time>
      </trkpt>
      <trkpt lat="45.56618" lon="5.96939">
        <ele>297.18</ele>
        <time>2011-04-05T14:05:13Z</time>
      </trkpt>
      <trkpt lat="45.56674" lon="5.97055">
        <ele>298.15</ele>
        <time>2011-04-05T14:05:30Z</time>
      </trkpt>
      <trkpt lat="45.56733" lon="5.97177">
        <ele>299.59</ele>
        <time>2011-04-05T14:05:48Z</time>
      </trkpt>
      <trkpt lat="45.56784" lon="5.97285">
        <ele>300.07</ele>
        <time>2011-04-05T14:06:04Z</time>
      </trkpt>
      <trkpt lat="45.5684" lon="5.97399">
        <ele>301.03</ele>
        <time>2011-04-05T14:06:21Z</time>
      </trkpt>
      <trkpt lat="45.5691" lon="5.97542">
        <ele>302.47</ele>
        <time>2011-04-05T14:06:42Z</time>
      </trkpt>
      <trkpt lat="45.56929" lon="5.97584">
        <ele>302.47</ele>
        <time>2011-04-05T14:06:48Z</time>
      </trkpt>
      <trkpt lat="45.56931" lon="5.97591">
        <ele>302.95</ele>
        <time>2011-04-05T14:06:49Z</time>
      </trkpt>
      <trkpt lat="45.56933" lon="5.97599">
        <ele>302.47</ele>
        <time>2011-04-05T14:06:50Z</time>
      </trkpt>
      <trkpt lat="45.56937" lon="5.97606">
        <ele>302.95</ele>
        <time>2011-04-05T14:06:51Z</time>
      </trkpt>
      <trkpt lat="45.56941" lon="5.97611">
        <ele>302.47</ele>
        <time>2011-04-05T14:06:52Z</time>
      </trkpt>
      <trkpt lat="45.56946" lon="5.97616">
        <ele>302.95</ele>
        <time>2011-04-05T14:06:53Z</time>
      </trkpt>
      <trkpt lat="45.5695" lon="5.97622">
        <ele>302.47</ele>
        <time>2011-04-05T14:06:54Z</time>
      </trkpt>
      <trkpt lat="45.56954" lon="5.97629">
        <ele>302.47</ele>
        <time>2011-04-05T14:06:55Z</time>
      </trkpt>
      <trkpt lat="45.57024" lon="5.97771">
        <ele>302.95</ele>
        <time>2011-04-05T14:07:16Z</time>
      </trkpt>
      <trkpt lat="45.57027" lon="5.97777">
        <ele>302.95</ele>
        <time>2011-04-05T14:07:17Z</time>
      </trkpt>
      <trkpt lat="45.57029" lon="5.97784">
        <ele>303.43</ele>
        <time>2011-04-05T14:07:18Z</time>
      </trkpt>
      <trkpt lat="45.57029" lon="5.97791">
        <ele>302.95</ele>
        <time>2011-04-05T14:07:19Z</time>
      </trkpt>
      <trkpt lat="45.57029" lon="5.97799">
        <ele>302.95</ele>
        <time>2011-04-05T14:07:20Z</time>
      </trkpt>
      <trkpt lat="45.57027" lon="5.97806">
        <ele>302.95</ele>
        <time>2011-04-05T14:07:21Z</time>
      </trkpt>
      <trkpt lat="45.57025" lon="5.97813">
        <ele>302.95</ele>
        <time>2011-04-05T14:07:22Z</time>
      </trkpt>
      <trkpt lat="45.57022" lon="5.9782">
        <ele>303.43</ele>
        <time>2011-04-05T14:07:23Z</time>
      </trkpt>
      <trkpt lat="45.57018" lon="5.97827">
        <ele>302.95</ele>
        <time>2011-04-05T14:07:24Z</time>
      </trkpt>
      <trkpt lat="45.57015" lon="5.97834">
        <ele>302.47</ele>
        <time>2011-04-05T14:07:25Z</time>
      </trkpt>
      <trkpt lat="45.5695" lon="5.97936">
        <ele>301.51</ele>
        <time>2011-04-05T14:07:41Z</time>
      </trkpt>
      <trkpt lat="45.56943" lon="5.97948">
        <ele>301.51</ele>
        <time>2011-04-05T14:07:43Z</time>
      </trkpt>
      <trkpt lat="45.56942" lon="5.97955">
        <ele>301.51</ele>
        <time>2011-04-05T14:07:44Z</time>
      </trkpt>
      <trkpt lat="45.56942" lon="5.97962">
        <ele>301.03</ele>
        <time>2011-04-05T14:07:45Z</time>
      </trkpt>
      <trkpt lat="45.56943" lon="5.9797">
        <ele>301.51</ele>
        <time>2011-04-05T14:07:46Z</time>
      </trkpt>
      <trkpt lat="45.56945" lon="5.97977">
        <ele>301.03</ele>
        <time>2011-04-05T14:07:47Z</time>
      </trkpt>
      <trkpt lat="45.56948" lon="5.97985">
        <ele>301.51</ele>
        <time>2011-04-05T14:07:48Z</time>
      </trkpt>
      <trkpt lat="45.56992" lon="5.98117">
        <ele>301.99</ele>
        <time>2011-04-05T14:08:06Z</time>
      </trkpt>
      <trkpt lat="45.56998" lon="5.98139">
        <ele>302.47</ele>
        <time>2011-04-05T14:08:09Z</time>
      </trkpt>
      <trkpt lat="45.57009" lon="5.98174">
        <ele>302.95</ele>
        <time>2011-04-05T14:08:14Z</time>
      </trkpt>
      <trkpt lat="45.5701" lon="5.98181">
        <ele>302.95</ele>
        <time>2011-04-05T14:08:15Z</time>
      </trkpt>
      <trkpt lat="45.57008" lon="5.98188">
        <ele>302.95</ele>
        <time>2011-04-05T14:08:16Z</time>
      </trkpt>
      <trkpt lat="45.57007" lon="5.98195">
        <ele>302.95</ele>
        <time>2011-04-05T14:08:17Z</time>
      </trkpt>
      <trkpt lat="45.57007" lon="5.98202">
        <ele>302.47</ele>
        <time>2011-04-05T14:08:18Z</time>
      </trkpt>
      <trkpt lat="45.57007" lon="5.9821">
        <ele>303.43</ele>
        <time>2011-04-05T14:08:19Z</time>
      </trkpt>
      <trkpt lat="45.57008" lon="5.98224">
        <ele>303.43</ele>
        <time>2011-04-05T14:08:21Z</time>
      </trkpt>
      <trkpt lat="45.57007" lon="5.98231">
        <ele>303.91</ele>
        <time>2011-04-05T14:08:22Z</time>
      </trkpt>
      <trkpt lat="45.5699" lon="5.98296">
        <ele>307.28</ele>
        <time>2011-04-05T14:08:35Z</time>
      </trkpt>
      <trkpt lat="45.56974" lon="5.98328">
        <ele>310.16</ele>
        <time>2011-04-05T14:08:46Z</time>
      </trkpt>
      <trkpt lat="45.56971" lon="5.98337">
        <ele>311.12</ele>
        <time>2011-04-05T14:08:49Z</time>
      </trkpt>
      <trkpt lat="45.56972" lon="5.9834">
        <ele>311.6</ele>
        <time>2011-04-05T14:08:50Z</time>
      </trkpt>
      <trkpt lat="45.56973" lon="5.98343">
        <ele>311.12</ele>
        <time>2011-04-05T14:08:51Z</time>
      </trkpt>
      <trkpt lat="45.56975" lon="5.98346">
        <ele>311.6</ele>
        <time>2011-04-05T14:08:52Z</time>
      </trkpt>
      <trkpt lat="45.56977" lon="5.98348">
        <ele>312.09</ele>
        <time>2011-04-05T14:08:53Z</time>
      </trkpt>
      <trkpt lat="45.56979" lon="5.98349">
        <ele>312.09</ele>
        <time>2011-04-05T14:08:54Z</time>
      </trkpt>
      <trkpt lat="45.57007" lon="5.98356">
        <ele>314.97</ele>
        <time>2011-04-05T14:09:06Z</time>
      </trkpt>
      <trkpt lat="45.57036" lon="5.98347">
        <ele>317.85</ele>
        <time>2011-04-05T14:09:19Z</time>
      </trkpt>
      <trkpt lat="45.5706" lon="5.9834">
        <ele>320.74</ele>
        <time>2011-04-05T14:09:30Z</time>
      </trkpt>
      <trkpt lat="45.57087" lon="5.98338">
        <ele>324.1</ele>
        <time>2011-04-05T14:09:42Z</time>
      </trkpt>
      <trkpt lat="45.5711" lon="5.98345">
        <ele>327.47</ele>
        <time>2011-04-05T14:09:54Z</time>
      </trkpt>
      <trkpt lat="45.57131" lon="5.98355">
        <ele>330.35</ele>
        <time>2011-04-05T14:10:05Z</time>
      </trkpt>
      <trkpt lat="45.57158" lon="5.98366">
        <ele>333.23</ele>
        <time>2011-04-05T14:10:18Z</time>
      </trkpt>
      <trkpt lat="45.57182" lon="5.98374">
        <ele>336.6</ele>
        <time>2011-04-05T14:10:30Z</time>
      </trkpt>
      <trkpt lat="45.57204" lon="5.98381">
        <ele>339.48</ele>
        <time>2011-04-05T14:10:42Z</time>
      </trkpt>
      <trkpt lat="45.5721" lon="5.98351">
        <ele>341.89</ele>
        <time>2011-04-05T14:10:53Z</time>
      </trkpt>
      <trkpt lat="45.5723" lon="5.98345">
        <ele>345.25</ele>
        <time>2011-04-05T14:11:04Z</time>
      </trkpt>
      <trkpt lat="45.57258" lon="5.98338">
        <ele>348.13</ele>
        <time>2011-04-05T14:11:18Z</time>
      </trkpt>
      <trkpt lat="45.57282" lon="5.98326">
        <ele>351.5</ele>
        <time>2011-04-05T14:11:31Z</time>
      </trkpt>
      <trkpt lat="45.57295" lon="5.98356">
        <ele>354.38</ele>
        <time>2011-04-05T14:11:44Z</time>
      </trkpt>
      <trkpt lat="45.57273" lon="5.98381">
        <ele>357.27</ele>
        <time>2011-04-05T14:11:58Z</time>
      </trkpt>
      <trkpt lat="45.57243" lon="5.98393">
        <ele>360.15</ele>
        <time>2011-04-05T14:12:12Z</time>
      </trkpt>
      <trkpt lat="45.57237" lon="5.984">
        <ele>360.63</ele>
        <time>2011-04-05T14:12:16Z</time>
      </trkpt>
      <trkpt lat="45.57236" lon="5.98404">
        <ele>360.63</ele>
        <time>2011-04-05T14:12:17Z</time>
      </trkpt>
      <trkpt lat="45.57238" lon="5.98414">
        <ele>361.59</ele>
        <time>2011-04-05T14:12:20Z</time>
      </trkpt>
      <trkpt lat="45.5724" lon="5.98415">
        <ele>361.59</ele>
        <time>2011-04-05T14:12:21Z</time>
      </trkpt>
      <trkpt lat="45.57242" lon="5.98416">
        <ele>361.59</ele>
        <time>2011-04-05T14:12:22Z</time>
      </trkpt>
      <trkpt lat="45.5727" lon="5.9842">
        <ele>364.48</ele>
        <time>2011-04-05T14:12:34Z</time>
      </trkpt>
      <trkpt lat="45.57303" lon="5.98424">
        <ele>367.84</ele>
        <time>2011-04-05T14:12:49Z</time>
      </trkpt>
      <trkpt lat="45.5733" lon="5.98426">
        <ele>371.21</ele>
        <time>2011-04-05T14:13:01Z</time>
      </trkpt>
      <trkpt lat="45.57352" lon="5.98406">
        <ele>375.05</ele>
        <time>2011-04-05T14:13:14Z</time>
      </trkpt>
      <trkpt lat="45.57354" lon="5.98405">
        <ele>374.57</ele>
        <time>2011-04-05T14:13:15Z</time>
      </trkpt>
      <trkpt lat="45.57356" lon="5.98406">
        <ele>375.05</ele>
        <time>2011-04-05T14:13:16Z</time>
      </trkpt>
      <trkpt lat="45.57357" lon="5.98407">
        <ele>375.05</ele>
        <time>2011-04-05T14:13:17Z</time>
      </trkpt>
      <trkpt lat="45.57358" lon="5.9841">
        <ele>375.05</ele>
        <time>2011-04-05T14:13:18Z</time>
      </trkpt>
      <trkpt lat="45.57357" lon="5.98413">
        <ele>375.05</ele>
        <time>2011-04-05T14:13:19Z</time>
      </trkpt>
      <trkpt lat="45.57354" lon="5.98418">
        <ele>375.53</ele>
        <time>2011-04-05T14:13:21Z</time>
      </trkpt>
      <trkpt lat="45.57344" lon="5.98425">
        <ele>376.01</ele>
        <time>2011-04-05T14:13:25Z</time>
      </trkpt>
      <trkpt lat="45.57294" lon="5.98467">
        <ele>378.42</ele>
        <time>2011-04-05T14:13:43Z</time>
      </trkpt>
      <trkpt lat="45.57255" lon="5.98474">
        <ele>379.86</ele>
        <time>2011-04-05T14:13:57Z</time>
      </trkpt>
      <trkpt lat="45.57219" lon="5.98498">
        <ele>382.74</ele>
        <time>2011-04-05T14:14:11Z</time>
      </trkpt>
      <trkpt lat="45.57184" lon="5.98509">
        <ele>384.18</ele>
        <time>2011-04-05T14:14:22Z</time>
      </trkpt>
      <trkpt lat="45.57145" lon="5.9852">
        <ele>386.59</ele>
        <time>2011-04-05T14:14:36Z</time>
      </trkpt>
      <trkpt lat="45.57101" lon="5.98495">
        <ele>388.03</ele>
        <time>2011-04-05T14:14:50Z</time>
      </trkpt>
      <trkpt lat="45.57044" lon="5.98502">
        <ele>387.55</ele>
        <time>2011-04-05T14:15:03Z</time>
      </trkpt>
      <trkpt lat="45.57023" lon="5.985">
        <ele>387.07</ele>
        <time>2011-04-05T14:15:07Z</time>
      </trkpt>
      <trkpt lat="45.57018" lon="5.98501">
        <ele>387.07</ele>
        <time>2011-04-05T14:15:08Z</time>
      </trkpt>
      <trkpt lat="45.57012" lon="5.98503">
        <ele>386.59</ele>
        <time>2011-04-05T14:15:09Z</time>
      </trkpt>
      <trkpt lat="45.57006" lon="5.98507">
        <ele>386.11</ele>
        <time>2011-04-05T14:15:10Z</time>
      </trkpt>
      <trkpt lat="45.57" lon="5.98512">
        <ele>385.63</ele>
        <time>2011-04-05T14:15:11Z</time>
      </trkpt>
      <trkpt lat="45.56995" lon="5.98517">
        <ele>385.63</ele>
        <time>2011-04-05T14:15:12Z</time>
      </trkpt>
      <trkpt lat="45.56989" lon="5.98523">
        <ele>384.66</ele>
        <time>2011-04-05T14:15:13Z</time>
      </trkpt>
      <trkpt lat="45.56983" lon="5.98528">
        <ele>384.18</ele>
        <time>2011-04-05T14:15:14Z</time>
      </trkpt>
      <trkpt lat="45.56911" lon="5.98578">
        <ele>381.78</ele>
        <time>2011-04-05T14:15:26Z</time>
      </trkpt>
      <trkpt lat="45.56886" lon="5.98591">
        <ele>382.74</ele>
        <time>2011-04-05T14:15:31Z</time>
      </trkpt>
      <trkpt lat="45.56878" lon="5.98593">
        <ele>383.22</ele>
        <time>2011-04-05T14:15:33Z</time>
      </trkpt>
      <trkpt lat="45.56873" lon="5.98593">
        <ele>383.22</ele>
        <time>2011-04-05T14:15:34Z</time>
      </trkpt>
      <trkpt lat="45.56869" lon="5.98593">
        <ele>383.7</ele>
        <time>2011-04-05T14:15:35Z</time>
      </trkpt>
      <trkpt lat="45.56805" lon="5.98575">
        <ele>386.11</ele>
        <time>2011-04-05T14:15:51Z</time>
      </trkpt>
      <trkpt lat="45.56744" lon="5.98556">
        <ele>387.07</ele>
        <time>2011-04-05T14:16:07Z</time>
      </trkpt>
      <trkpt lat="45.56735" lon="5.98551">
        <ele>387.07</ele>
        <time>2011-04-05T14:16:09Z</time>
      </trkpt>
      <trkpt lat="45.5673" lon="5.9855">
        <ele>386.11</ele>
        <time>2011-04-05T14:16:10Z</time>
      </trkpt>
      <trkpt lat="45.56724" lon="5.9855">
        <ele>385.63</ele>
        <time>2011-04-05T14:16:11Z</time>
      </trkpt>
      <trkpt lat="45.56718" lon="5.98551">
        <ele>385.63</ele>
        <time>2011-04-05T14:16:12Z</time>
      </trkpt>
      <trkpt lat="45.56712" lon="5.98553">
        <ele>385.63</ele>
        <time>2011-04-05T14:16:13Z</time>
      </trkpt>
      <trkpt lat="45.56706" lon="5.98555">
        <ele>384.66</ele>
        <time>2011-04-05T14:16:14Z</time>
      </trkpt>
      <trkpt lat="45.56699" lon="5.98557">
        <ele>384.18</ele>
        <time>2011-04-05T14:16:15Z</time>
      </trkpt>
      <trkpt lat="45.56619" lon="5.98584">
        <ele>382.26</ele>
        <time>2011-04-05T14:16:28Z</time>
      </trkpt>
      <trkpt lat="45.56602" lon="5.98583">
        <ele>382.26</ele>
        <time>2011-04-05T14:16:31Z</time>
      </trkpt>
      <trkpt lat="45.56596" lon="5.98582">
        <ele>382.26</ele>
        <time>2011-04-05T14:16:32Z</time>
      </trkpt>
      <trkpt lat="45.56555" lon="5.98568">
        <ele>383.7</ele>
        <time>2011-04-05T14:16:40Z</time>
      </trkpt>
      <trkpt lat="45.56546" lon="5.98565">
        <ele>384.18</ele>
        <time>2011-04-05T14:16:42Z</time>
      </trkpt>
      <trkpt lat="45.56542" lon="5.98563">
        <ele>384.18</ele>
        <time>2011-04-05T14:16:43Z</time>
      </trkpt>
      <trkpt lat="45.56538" lon="5.9856">
        <ele>384.18</ele>
        <time>2011-04-05T14:16:44Z</time>
      </trkpt>
      <trkpt lat="45.56533" lon="5.98559">
        <ele>384.18</ele>
        <time>2011-04-05T14:16:45Z</time>
      </trkpt>
      <trkpt lat="45.56529" lon="5.98558">
        <ele>384.18</ele>
        <time>2011-04-05T14:16:46Z</time>
      </trkpt>
      <trkpt lat="45.56507" lon="5.98557">
        <ele>385.15</ele>
        <time>2011-04-05T14:16:51Z</time>
      </trkpt>
      <trkpt lat="45.56499" lon="5.98559">
        <ele>385.15</ele>
        <time>2011-04-05T14:16:53Z</time>
      </trkpt>
      <trkpt lat="45.56495" lon="5.98561">
        <ele>385.63</ele>
        <time>2011-04-05T14:16:54Z</time>
      </trkpt>
      <trkpt lat="45.56459" lon="5.98584">
        <ele>386.11</ele>
        <time>2011-04-05T14:17:03Z</time>
      </trkpt>
      <trkpt lat="45.5645" lon="5.98589">
        <ele>384.66</ele>
        <time>2011-04-05T14:17:05Z</time>
      </trkpt>
      <trkpt lat="45.5644" lon="5.98595">
        <ele>384.66</ele>
        <time>2011-04-05T14:17:07Z</time>
      </trkpt>
      <trkpt lat="45.56423" lon="5.98604">
        <ele>382.74</ele>
        <time>2011-04-05T14:17:10Z</time>
      </trkpt>
      <trkpt lat="45.5641" lon="5.98609">
        <ele>381.3</ele>
        <time>2011-04-05T14:17:12Z</time>
      </trkpt>
      <trkpt lat="45.56403" lon="5.98612">
        <ele>380.34</ele>
        <time>2011-04-05T14:17:13Z</time>
      </trkpt>
      <trkpt lat="45.56377" lon="5.98624">
        <ele>377.45</ele>
        <time>2011-04-05T14:17:17Z</time>
      </trkpt>
      <trkpt lat="45.56356" lon="5.98629">
        <ele>375.05</ele>
        <time>2011-04-05T14:17:21Z</time>
      </trkpt>
      <trkpt lat="45.5635" lon="5.98631">
        <ele>373.61</ele>
        <time>2011-04-05T14:17:22Z</time>
      </trkpt>
      <trkpt lat="45.56345" lon="5.98634">
        <ele>373.13</ele>
        <time>2011-04-05T14:17:23Z</time>
      </trkpt>
      <trkpt lat="45.5634" lon="5.98634">
        <ele>372.17</ele>
        <time>2011-04-05T14:17:24Z</time>
      </trkpt>
      <trkpt lat="45.5632" lon="5.98635">
        <ele>368.8</ele>
        <time>2011-04-05T14:17:28Z</time>
      </trkpt>
      <trkpt lat="45.5631" lon="5.98637">
        <ele>367.84</ele>
        <time>2011-04-05T14:17:30Z</time>
      </trkpt>
      <trkpt lat="45.56305" lon="5.98639">
        <ele>366.88</ele>
        <time>2011-04-05T14:17:31Z</time>
      </trkpt>
      <trkpt lat="45.563" lon="5.98641">
        <ele>365.44</ele>
        <time>2011-04-05T14:17:32Z</time>
      </trkpt>
      <trkpt lat="45.56294" lon="5.98645">
        <ele>364.48</ele>
        <time>2011-04-05T14:17:33Z</time>
      </trkpt>
      <trkpt lat="45.56289" lon="5.98649">
        <ele>363.04</ele>
        <time>2011-04-05T14:17:34Z</time>
      </trkpt>
      <trkpt lat="45.56276" lon="5.98657">
        <ele>361.59</ele>
        <time>2011-04-05T14:17:36Z</time>
      </trkpt>
      <trkpt lat="45.56262" lon="5.98666">
        <ele>361.11</ele>
        <time>2011-04-05T14:17:38Z</time>
      </trkpt>
      <trkpt lat="45.56245" lon="5.98675">
        <ele>361.11</ele>
        <time>2011-04-05T14:17:41Z</time>
      </trkpt>
      <trkpt lat="45.56242" lon="5.98679">
        <ele>361.11</ele>
        <time>2011-04-05T14:17:42Z</time>
      </trkpt>
      <trkpt lat="45.56239" lon="5.98684">
        <ele>361.59</ele>
        <time>2011-04-05T14:17:43Z</time>
      </trkpt>
      <trkpt lat="45.56236" lon="5.9869">
        <ele>361.59</ele>
        <time>2011-04-05T14:17:44Z</time>
      </trkpt>
      <trkpt lat="45.56234" lon="5.98696">
        <ele>361.59</ele>
        <time>2011-04-05T14:17:45Z</time>
      </trkpt>
      <trkpt lat="45.56231" lon="5.98702">
        <ele>361.59</ele>
        <time>2011-04-05T14:17:46Z</time>
      </trkpt>
      <trkpt lat="45.5622" lon="5.98718">
        <ele>360.63</ele>
        <time>2011-04-05T14:17:49Z</time>
      </trkpt>
      <trkpt lat="45.56195" lon="5.98738">
        <ele>360.63</ele>
        <time>2011-04-05T14:17:54Z</time>
      </trkpt>
      <trkpt lat="45.5619" lon="5.9874">
        <ele>360.63</ele>
        <time>2011-04-05T14:17:55Z</time>
      </trkpt>
      <trkpt lat="45.56185" lon="5.98741">
        <ele>360.63</ele>
        <time>2011-04-05T14:17:56Z</time>
      </trkpt>
      <trkpt lat="45.56179" lon="5.98742">
        <ele>360.15</ele>
        <time>2011-04-05T14:17:57Z</time>
      </trkpt>
      <trkpt lat="45.56174" lon="5.98744">
        <ele>360.63</ele>
        <time>2011-04-05T14:17:58Z</time>
      </trkpt>
      <trkpt lat="45.56162" lon="5.98745">
        <ele>360.15</ele>
        <time>2011-04-05T14:18:00Z</time>
      </trkpt>
      <trkpt lat="45.56156" lon="5.98744">
        <ele>359.67</ele>
        <time>2011-04-05T14:18:01Z</time>
      </trkpt>
      <trkpt lat="45.56137" lon="5.98741">
        <ele>358.23</ele>
        <time>2011-04-05T14:18:04Z</time>
      </trkpt>
      <trkpt lat="45.56131" lon="5.98741">
        <ele>358.71</ele>
        <time>2011-04-05T14:18:05Z</time>
      </trkpt>
      <trkpt lat="45.56124" lon="5.98743">
        <ele>357.75</ele>
        <time>2011-04-05T14:18:06Z</time>
      </trkpt>
      <trkpt lat="45.5611" lon="5.98748">
        <ele>356.79</ele>
        <time>2011-04-05T14:18:08Z</time>
      </trkpt>
      <trkpt lat="45.56047" lon="5.98778">
        <ele>357.75</ele>
        <time>2011-04-05T14:18:21Z</time>
      </trkpt>
      <trkpt lat="45.56027" lon="5.98788">
        <ele>360.63</ele>
        <time>2011-04-05T14:18:31Z</time>
      </trkpt>
      <trkpt lat="45.56025" lon="5.9879">
        <ele>360.63</ele>
        <time>2011-04-05T14:18:32Z</time>
      </trkpt>
      <trkpt lat="45.56025" lon="5.98792">
        <ele>360.63</ele>
        <time>2011-04-05T14:18:33Z</time>
      </trkpt>
      <trkpt lat="45.56024" lon="5.98795">
        <ele>361.11</ele>
        <time>2011-04-05T14:18:34Z</time>
      </trkpt>
      <trkpt lat="45.56025" lon="5.98798">
        <ele>361.59</ele>
        <time>2011-04-05T14:18:35Z</time>
      </trkpt>
      <trkpt lat="45.56025" lon="5.988">
        <ele>361.59</ele>
        <time>2011-04-05T14:18:36Z</time>
      </trkpt>
      <trkpt lat="45.56026" lon="5.98801">
        <ele>362.07</ele>
        <time>2011-04-05T14:18:37Z</time>
      </trkpt>
      <trkpt lat="45.56028" lon="5.98805">
        <ele>363.04</ele>
        <time>2011-04-05T14:18:39Z</time>
      </trkpt>
      <trkpt lat="45.56031" lon="5.98812">
        <ele>358.71</ele>
        <time>2011-04-05T14:18:49Z</time>
      </trkpt>
      <trkpt lat="45.56031" lon="5.98812">
        <ele>364.96</ele>
        <time>2011-04-05T14:18:50Z</time>
      </trkpt>
      <trkpt lat="45.56031" lon="5.98812">
        <ele>369.76</ele>
        <time>2011-04-05T14:18:51Z</time>
      </trkpt>
      <trkpt lat="45.56031" lon="5.98812">
        <ele>364.48</ele>
        <time>2011-04-05T14:18:52Z</time>
      </trkpt>
      <trkpt lat="45.56042" lon="5.98823">
        <ele>366.88</ele>
        <time>2011-04-05T14:19:06Z</time>
      </trkpt>
      <trkpt lat="45.56047" lon="5.98826">
        <ele>367.84</ele>
        <time>2011-04-05T14:19:11Z</time>
      </trkpt>
      <trkpt lat="45.56049" lon="5.98826">
        <ele>367.84</ele>
        <time>2011-04-05T14:19:12Z</time>
      </trkpt>
      <trkpt lat="45.56059" lon="5.98831">
        <ele>370.24</ele>
        <time>2011-04-05T14:19:26Z</time>
      </trkpt>
      <trkpt lat="45.56059" lon="5.98831">
        <ele>370.73</ele>
        <time>2011-04-05T14:19:47Z</time>
      </trkpt>
      <trkpt lat="45.56078" lon="5.98841">
        <ele>373.13</ele>
        <time>2011-04-05T14:19:59Z</time>
      </trkpt>
      <trkpt lat="45.56102" lon="5.98853">
        <ele>375.53</ele>
        <time>2011-04-05T14:20:13Z</time>
      </trkpt>
      <trkpt lat="45.56119" lon="5.98862">
        <ele>378.42</ele>
        <time>2011-04-05T14:20:24Z</time>
      </trkpt>
      <trkpt lat="45.56139" lon="5.98865">
        <ele>381.78</ele>
        <time>2011-04-05T14:20:37Z</time>
      </trkpt>
      <trkpt lat="45.56154" lon="5.98862">
        <ele>385.15</ele>
        <time>2011-04-05T14:20:48Z</time>
      </trkpt>
      <trkpt lat="45.56171" lon="5.98859">
        <ele>388.51</ele>
        <time>2011-04-05T14:21:02Z</time>
      </trkpt>
      <trkpt lat="45.56178" lon="5.98862">
        <ele>390.43</ele>
        <time>2011-04-05T14:21:08Z</time>
      </trkpt>
      <trkpt lat="45.56186" lon="5.98866">
        <ele>393.32</ele>
        <time>2011-04-05T14:21:18Z</time>
      </trkpt>
      <trkpt lat="45.562" lon="5.98867">
        <ele>396.2</ele>
        <time>2011-04-05T14:21:30Z</time>
      </trkpt>
      <trkpt lat="45.56208" lon="5.9887">
        <ele>398.12</ele>
        <time>2011-04-05T14:21:38Z</time>
      </trkpt>
      <trkpt lat="45.56209" lon="5.9887">
        <ele>398.6</ele>
        <time>2011-04-05T14:21:39Z</time>
      </trkpt>
      <trkpt lat="45.56223" lon="5.98866">
        <ele>401.01</ele>
        <time>2011-04-05T14:21:51Z</time>
      </trkpt>
      <trkpt lat="45.56228" lon="5.98864">
        <ele>401.97</ele>
        <time>2011-04-05T14:21:55Z</time>
      </trkpt>
      <trkpt lat="45.56243" lon="5.98853">
        <ele>404.37</ele>
        <time>2011-04-05T14:22:08Z</time>
      </trkpt>
      <trkpt lat="45.56244" lon="5.98852">
        <ele>404.85</ele>
        <time>2011-04-05T14:22:09Z</time>
      </trkpt>
      <trkpt lat="45.56257" lon="5.98841">
        <ele>407.74</ele>
        <time>2011-04-05T14:22:22Z</time>
      </trkpt>
      <trkpt lat="45.56257" lon="5.98842">
        <ele>408.22</ele>
        <time>2011-04-05T14:22:23Z</time>
      </trkpt>
      <trkpt lat="45.56258" lon="5.98843">
        <ele>408.22</ele>
        <time>2011-04-05T14:22:24Z</time>
      </trkpt>
      <trkpt lat="45.56258" lon="5.98844">
        <ele>408.7</ele>
        <time>2011-04-05T14:22:25Z</time>
      </trkpt>
      <trkpt lat="45.56259" lon="5.98846">
        <ele>409.18</ele>
        <time>2011-04-05T14:22:26Z</time>
      </trkpt>
      <trkpt lat="45.56259" lon="5.98848">
        <ele>409.18</ele>
        <time>2011-04-05T14:22:27Z</time>
      </trkpt>
      <trkpt lat="45.56258" lon="5.9885">
        <ele>409.18</ele>
        <time>2011-04-05T14:22:28Z</time>
      </trkpt>
      <trkpt lat="45.56258" lon="5.98852">
        <ele>409.18</ele>
        <time>2011-04-05T14:22:29Z</time>
      </trkpt>
      <trkpt lat="45.56257" lon="5.98853">
        <ele>409.66</ele>
        <time>2011-04-05T14:22:30Z</time>
      </trkpt>
      <trkpt lat="45.56257" lon="5.98855">
        <ele>409.66</ele>
        <time>2011-04-05T14:22:31Z</time>
      </trkpt>
      <trkpt lat="45.56255" lon="5.98856">
        <ele>409.66</ele>
        <time>2011-04-05T14:22:32Z</time>
      </trkpt>
      <trkpt lat="45.56255" lon="5.98858">
        <ele>410.14</ele>
        <time>2011-04-05T14:22:33Z</time>
      </trkpt>
      <trkpt lat="45.56254" lon="5.98859">
        <ele>410.14</ele>
        <time>2011-04-05T14:22:34Z</time>
      </trkpt>
      <trkpt lat="45.56253" lon="5.98861">
        <ele>410.62</ele>
        <time>2011-04-05T14:22:35Z</time>
      </trkpt>
      <trkpt lat="45.56252" lon="5.98862">
        <ele>410.62</ele>
        <time>2011-04-05T14:22:36Z</time>
      </trkpt>
      <trkpt lat="45.56251" lon="5.98863">
        <ele>410.62</ele>
        <time>2011-04-05T14:22:37Z</time>
      </trkpt>
      <trkpt lat="45.5625" lon="5.98865">
        <ele>411.1</ele>
        <time>2011-04-05T14:22:38Z</time>
      </trkpt>
      <trkpt lat="45.5625" lon="5.98867">
        <ele>411.1</ele>
        <time>2011-04-05T14:22:39Z</time>
      </trkpt>
      <trkpt lat="45.56249" lon="5.98868">
        <ele>411.58</ele>
        <time>2011-04-05T14:22:40Z</time>
      </trkpt>
      <trkpt lat="45.56248" lon="5.98869">
        <ele>411.1</ele>
        <time>2011-04-05T14:22:41Z</time>
      </trkpt>
      <trkpt lat="45.56247" lon="5.9887">
        <ele>411.58</ele>
        <time>2011-04-05T14:22:42Z</time>
      </trkpt>
      <trkpt lat="45.56247" lon="5.98872">
        <ele>412.06</ele>
        <time>2011-04-05T14:22:43Z</time>
      </trkpt>
      <trkpt lat="45.56238" lon="5.98896">
        <ele>415.43</ele>
        <time>2011-04-05T14:22:59Z</time>
      </trkpt>
      <trkpt lat="45.56224" lon="5.98915">
        <ele>417.35</ele>
        <time>2011-04-05T14:23:13Z</time>
      </trkpt>
      <trkpt lat="45.56215" lon="5.98924">
        <ele>418.79</ele>
        <time>2011-04-05T14:23:20Z</time>
      </trkpt>
      <trkpt lat="45.56215" lon="5.98925">
        <ele>419.27</ele>
        <time>2011-04-05T14:23:21Z</time>
      </trkpt>
      <trkpt lat="45.56213" lon="5.98926">
        <ele>418.79</ele>
        <time>2011-04-05T14:23:22Z</time>
      </trkpt>
      <trkpt lat="45.5621" lon="5.98929">
        <ele>420.23</ele>
        <time>2011-04-05T14:23:25Z</time>
      </trkpt>
      <trkpt lat="45.56209" lon="5.98931">
        <ele>419.75</ele>
        <time>2011-04-05T14:23:26Z</time>
      </trkpt>
      <trkpt lat="45.56207" lon="5.98932">
        <ele>420.71</ele>
        <time>2011-04-05T14:23:27Z</time>
      </trkpt>
      <trkpt lat="45.56206" lon="5.98932">
        <ele>420.71</ele>
        <time>2011-04-05T14:23:28Z</time>
      </trkpt>
      <trkpt lat="45.56204" lon="5.98932">
        <ele>420.23</ele>
        <time>2011-04-05T14:23:29Z</time>
      </trkpt>
      <trkpt lat="45.56203" lon="5.98933">
        <ele>420.71</ele>
        <time>2011-04-05T14:23:30Z</time>
      </trkpt>
      <trkpt lat="45.56202" lon="5.98934">
        <ele>420.71</ele>
        <time>2011-04-05T14:23:31Z</time>
      </trkpt>
      <trkpt lat="45.56198" lon="5.98937">
        <ele>421.19</ele>
        <time>2011-04-05T14:23:34Z</time>
      </trkpt>
      <trkpt lat="45.56197" lon="5.98937">
        <ele>420.71</ele>
        <time>2011-04-05T14:23:35Z</time>
      </trkpt>
      <trkpt lat="45.56195" lon="5.98938">
        <ele>420.71</ele>
        <time>2011-04-05T14:23:36Z</time>
      </trkpt>
      <trkpt lat="45.56173" lon="5.98958">
        <ele>421.68</ele>
        <time>2011-04-05T14:23:50Z</time>
      </trkpt>
      <trkpt lat="45.56171" lon="5.98959">
        <ele>422.16</ele>
        <time>2011-04-05T14:23:51Z</time>
      </trkpt>
      <trkpt lat="45.5617" lon="5.9896">
        <ele>422.64</ele>
        <time>2011-04-05T14:23:52Z</time>
      </trkpt>
      <trkpt lat="45.56169" lon="5.98962">
        <ele>422.64</ele>
        <time>2011-04-05T14:23:53Z</time>
      </trkpt>
      <trkpt lat="45.56155" lon="5.98971">
        <ele>425.52</ele>
        <time>2011-04-05T14:24:06Z</time>
      </trkpt>
      <trkpt lat="45.56134" lon="5.98983">
        <ele>427.92</ele>
        <time>2011-04-05T14:24:20Z</time>
      </trkpt>
      <trkpt lat="45.56113" lon="5.98995">
        <ele>430.81</ele>
        <time>2011-04-05T14:24:36Z</time>
      </trkpt>
      <trkpt lat="45.56111" lon="5.98998">
        <ele>431.29</ele>
        <time>2011-04-05T14:24:38Z</time>
      </trkpt>
      <trkpt lat="45.56102" lon="5.99013">
        <ele>434.17</ele>
        <time>2011-04-05T14:24:50Z</time>
      </trkpt>
      <trkpt lat="45.56099" lon="5.99021">
        <ele>436.1</ele>
        <time>2011-04-05T14:25:04Z</time>
      </trkpt>
      <trkpt lat="45.56092" lon="5.99037">
        <ele>439.46</ele>
        <time>2011-04-05T14:25:19Z</time>
      </trkpt>
      <trkpt lat="45.56086" lon="5.99042">
        <ele>440.42</ele>
        <time>2011-04-05T14:25:33Z</time>
      </trkpt>
      <trkpt lat="45.56086" lon="5.99042">
        <ele>440.42</ele>
        <time>2011-04-05T14:26:12Z</time>
      </trkpt>
      <trkpt lat="45.56086" lon="5.99042">
        <ele>440.42</ele>
        <time>2011-04-05T14:26:48Z</time>
      </trkpt>
      <trkpt lat="45.56086" lon="5.99042">
        <ele>440.9</ele>
        <time>2011-04-05T14:27:20Z</time>
      </trkpt>
      <trkpt lat="45.56083" lon="5.99048">
        <ele>441.38</ele>
        <time>2011-04-05T14:27:34Z</time>
      </trkpt>
      <trkpt lat="45.5608" lon="5.99051">
        <ele>442.82</ele>
        <time>2011-04-05T14:27:37Z</time>
      </trkpt>
      <trkpt lat="45.56062" lon="5.99066">
        <ele>445.23</ele>
        <time>2011-04-05T14:27:50Z</time>
      </trkpt>
      <trkpt lat="45.56038" lon="5.99094">
        <ele>448.11</ele>
        <time>2011-04-05T14:28:06Z</time>
      </trkpt>
      <trkpt lat="45.56038" lon="5.99096">
        <ele>448.11</ele>
        <time>2011-04-05T14:28:07Z</time>
      </trkpt>
      <trkpt lat="45.56036" lon="5.99097">
        <ele>448.59</ele>
        <time>2011-04-05T14:28:08Z</time>
      </trkpt>
      <trkpt lat="45.56031" lon="5.99112">
        <ele>451.96</ele>
        <time>2011-04-05T14:28:17Z</time>
      </trkpt>
      <trkpt lat="45.56024" lon="5.99131">
        <ele>454.84</ele>
        <time>2011-04-05T14:28:30Z</time>
      </trkpt>
      <trkpt lat="45.56015" lon="5.99151">
        <ele>458.21</ele>
        <time>2011-04-05T14:28:44Z</time>
      </trkpt>
      <trkpt lat="45.55991" lon="5.99173">
        <ele>456.28</ele>
        <time>2011-04-05T14:28:55Z</time>
      </trkpt>
      <trkpt lat="45.55988" lon="5.99177">
        <ele>456.28</ele>
        <time>2011-04-05T14:28:56Z</time>
      </trkpt>
      <trkpt lat="45.5597" lon="5.99217">
        <ele>459.17</ele>
        <time>2011-04-05T14:29:08Z</time>
      </trkpt>
      <trkpt lat="45.5596" lon="5.99255">
        <ele>462.05</ele>
        <time>2011-04-05T14:29:21Z</time>
      </trkpt>
      <trkpt lat="45.55948" lon="5.99292">
        <ele>461.09</ele>
        <time>2011-04-05T14:29:32Z</time>
      </trkpt>
      <trkpt lat="45.55949" lon="5.99304">
        <ele>462.05</ele>
        <time>2011-04-05T14:29:36Z</time>
      </trkpt>
      <trkpt lat="45.5596" lon="5.99315">
        <ele>464.45</ele>
        <time>2011-04-05T14:29:44Z</time>
      </trkpt>
      <trkpt lat="45.55961" lon="5.99317">
        <ele>464.93</ele>
        <time>2011-04-05T14:29:45Z</time>
      </trkpt>
      <trkpt lat="45.55962" lon="5.99318">
        <ele>464.93</ele>
        <time>2011-04-05T14:29:46Z</time>
      </trkpt>
      <trkpt lat="45.55963" lon="5.99319">
        <ele>464.93</ele>
        <time>2011-04-05T14:29:47Z</time>
      </trkpt>
      <trkpt lat="45.55964" lon="5.99321">
        <ele>465.42</ele>
        <time>2011-04-05T14:29:48Z</time>
      </trkpt>
      <trkpt lat="45.55965" lon="5.99322">
        <ele>465.42</ele>
        <time>2011-04-05T14:29:49Z</time>
      </trkpt>
      <trkpt lat="45.55975" lon="5.99338">
        <ele>468.78</ele>
        <time>2011-04-05T14:30:01Z</time>
      </trkpt>
      <trkpt lat="45.55986" lon="5.99354">
        <ele>472.14</ele>
        <time>2011-04-05T14:30:14Z</time>
      </trkpt>
      <trkpt lat="45.55991" lon="5.9937">
        <ele>474.07</ele>
        <time>2011-04-05T14:30:24Z</time>
      </trkpt>
      <trkpt lat="45.55982" lon="5.99395">
        <ele>476.95</ele>
        <time>2011-04-05T14:30:38Z</time>
      </trkpt>
      <trkpt lat="45.55972" lon="5.9942">
        <ele>479.84</ele>
        <time>2011-04-05T14:30:53Z</time>
      </trkpt>
      <trkpt lat="45.55966" lon="5.99427">
        <ele>480.8</ele>
        <time>2011-04-05T14:30:59Z</time>
      </trkpt>
      <trkpt lat="45.55965" lon="5.99427">
        <ele>481.28</ele>
        <time>2011-04-05T14:31:00Z</time>
      </trkpt>
      <trkpt lat="45.55964" lon="5.99428">
        <ele>481.28</ele>
        <time>2011-04-05T14:31:01Z</time>
      </trkpt>
      <trkpt lat="45.55963" lon="5.99429">
        <ele>481.28</ele>
        <time>2011-04-05T14:31:02Z</time>
      </trkpt>
      <trkpt lat="45.55962" lon="5.99429">
        <ele>481.76</ele>
        <time>2011-04-05T14:31:03Z</time>
      </trkpt>
      <trkpt lat="45.55956" lon="5.99432">
        <ele>483.2</ele>
        <time>2011-04-05T14:31:09Z</time>
      </trkpt>
      <trkpt lat="45.55958" lon="5.99438">
        <ele>484.16</ele>
        <time>2011-04-05T14:31:13Z</time>
      </trkpt>
      <trkpt lat="45.55961" lon="5.99442">
        <ele>484.64</ele>
        <time>2011-04-05T14:31:16Z</time>
      </trkpt>
      <trkpt lat="45.5597" lon="5.99443">
        <ele>486.56</ele>
        <time>2011-04-05T14:31:24Z</time>
      </trkpt>
      <trkpt lat="45.55975" lon="5.99444">
        <ele>487.05</ele>
        <time>2011-04-05T14:31:28Z</time>
      </trkpt>
      <trkpt lat="45.55989" lon="5.99444">
        <ele>489.93</ele>
        <time>2011-04-05T14:31:40Z</time>
      </trkpt>
      <trkpt lat="45.55997" lon="5.99441">
        <ele>490.89</ele>
        <time>2011-04-05T14:31:45Z</time>
      </trkpt>
      <trkpt lat="45.5601" lon="5.99427">
        <ele>494.26</ele>
        <time>2011-04-05T14:32:00Z</time>
      </trkpt>
      <trkpt lat="45.56005" lon="5.99451">
        <ele>496.66</ele>
        <time>2011-04-05T14:32:13Z</time>
      </trkpt>
      <trkpt lat="45.56004" lon="5.99452">
        <ele>496.66</ele>
        <time>2011-04-05T14:32:14Z</time>
      </trkpt>
      <trkpt lat="45.55995" lon="5.99465">
        <ele>498.1</ele>
        <time>2011-04-05T14:32:23Z</time>
      </trkpt>
      <trkpt lat="45.56012" lon="5.99463">
        <ele>500.02</ele>
        <time>2011-04-05T14:32:35Z</time>
      </trkpt>
      <trkpt lat="45.56025" lon="5.99445">
        <ele>503.39</ele>
        <time>2011-04-05T14:32:48Z</time>
      </trkpt>
      <trkpt lat="45.56027" lon="5.99419">
        <ele>506.27</ele>
        <time>2011-04-05T14:33:01Z</time>
      </trkpt>
      <trkpt lat="45.56028" lon="5.99416">
        <ele>506.75</ele>
        <time>2011-04-05T14:33:03Z</time>
      </trkpt>
      <trkpt lat="45.56039" lon="5.99388">
        <ele>510.6</ele>
        <time>2011-04-05T14:33:20Z</time>
      </trkpt>
      <trkpt lat="45.56036" lon="5.99363">
        <ele>514.44</ele>
        <time>2011-04-05T14:33:34Z</time>
      </trkpt>
      <trkpt lat="45.56035" lon="5.99358">
        <ele>514.44</ele>
        <time>2011-04-05T14:33:37Z</time>
      </trkpt>
      <trkpt lat="45.56038" lon="5.99343">
        <ele>516.85</ele>
        <time>2011-04-05T14:33:47Z</time>
      </trkpt>
      <trkpt lat="45.56039" lon="5.99339">
        <ele>517.81</ele>
        <time>2011-04-05T14:33:50Z</time>
      </trkpt>
      <trkpt lat="45.56047" lon="5.99317">
        <ele>521.17</ele>
        <time>2011-04-05T14:34:05Z</time>
      </trkpt>
      <trkpt lat="45.56054" lon="5.99295">
        <ele>523.58</ele>
        <time>2011-04-05T14:34:19Z</time>
      </trkpt>
      <trkpt lat="45.5606" lon="5.99283">
        <ele>525.5</ele>
        <time>2011-04-05T14:34:27Z</time>
      </trkpt>
      <trkpt lat="45.56064" lon="5.99281">
        <ele>525.98</ele>
        <time>2011-04-05T14:34:30Z</time>
      </trkpt>
      <trkpt lat="45.56066" lon="5.99281">
        <ele>526.94</ele>
        <time>2011-04-05T14:34:43Z</time>
      </trkpt>
      <trkpt lat="45.56067" lon="5.99283">
        <ele>527.42</ele>
        <time>2011-04-05T14:34:44Z</time>
      </trkpt>
      <trkpt lat="45.56066" lon="5.99294">
        <ele>527.9</ele>
        <time>2011-04-05T14:34:49Z</time>
      </trkpt>
      <trkpt lat="45.56062" lon="5.99321">
        <ele>531.75</ele>
        <time>2011-04-05T14:35:03Z</time>
      </trkpt>
      <trkpt lat="45.56063" lon="5.99346">
        <ele>534.15</ele>
        <time>2011-04-05T14:35:17Z</time>
      </trkpt>
      <trkpt lat="45.56067" lon="5.99368">
        <ele>537.51</ele>
        <time>2011-04-05T14:35:29Z</time>
      </trkpt>
      <trkpt lat="45.56078" lon="5.99395">
        <ele>540.4</ele>
        <time>2011-04-05T14:35:45Z</time>
      </trkpt>
      <trkpt lat="45.56083" lon="5.99423">
        <ele>543.28</ele>
        <time>2011-04-05T14:36:00Z</time>
      </trkpt>
      <trkpt lat="45.56091" lon="5.99451">
        <ele>546.17</ele>
        <time>2011-04-05T14:36:16Z</time>
      </trkpt>
      <trkpt lat="45.56084" lon="5.99477">
        <ele>549.53</ele>
        <time>2011-04-05T14:36:31Z</time>
      </trkpt>
      <trkpt lat="45.56078" lon="5.99492">
        <ele>551.45</ele>
        <time>2011-04-05T14:36:42Z</time>
      </trkpt>
      <trkpt lat="45.56086" lon="5.99511">
        <ele>554.82</ele>
        <time>2011-04-05T14:36:56Z</time>
      </trkpt>
      <trkpt lat="45.56094" lon="5.99531">
        <ele>558.18</ele>
        <time>2011-04-05T14:37:09Z</time>
      </trkpt>
      <trkpt lat="45.5609" lon="5.99547">
        <ele>559.62</ele>
        <time>2011-04-05T14:37:19Z</time>
      </trkpt>
      <trkpt lat="45.56082" lon="5.99565">
        <ele>562.03</ele>
        <time>2011-04-05T14:37:32Z</time>
      </trkpt>
      <trkpt lat="45.56086" lon="5.9959">
        <ele>564.91</ele>
        <time>2011-04-05T14:37:46Z</time>
      </trkpt>
      <trkpt lat="45.56093" lon="5.99601">
        <ele>566.83</ele>
        <time>2011-04-05T14:37:59Z</time>
      </trkpt>
      <trkpt lat="45.56095" lon="5.99588">
        <ele>568.76</ele>
        <time>2011-04-05T14:38:05Z</time>
      </trkpt>
      <trkpt lat="45.56102" lon="5.99551">
        <ele>570.68</ele>
        <time>2011-04-05T14:38:20Z</time>
      </trkpt>
      <trkpt lat="45.56113" lon="5.99522">
        <ele>571.64</ele>
        <time>2011-04-05T14:38:33Z</time>
      </trkpt>
      <trkpt lat="45.56116" lon="5.99522">
        <ele>572.12</ele>
        <time>2011-04-05T14:38:35Z</time>
      </trkpt>
      <trkpt lat="45.5612" lon="5.99531">
        <ele>573.08</ele>
        <time>2011-04-05T14:38:40Z</time>
      </trkpt>
      <trkpt lat="45.56112" lon="5.99559">
        <ele>576.45</ele>
        <time>2011-04-05T14:38:55Z</time>
      </trkpt>
      <trkpt lat="45.56105" lon="5.99566">
        <ele>577.89</ele>
        <time>2011-04-05T14:39:02Z</time>
      </trkpt>
      <trkpt lat="45.56104" lon="5.99576">
        <ele>579.33</ele>
        <time>2011-04-05T14:39:07Z</time>
      </trkpt>
      <trkpt lat="45.56107" lon="5.99581">
        <ele>580.29</ele>
        <time>2011-04-05T14:39:11Z</time>
      </trkpt>
      <trkpt lat="45.56119" lon="5.99607">
        <ele>583.18</ele>
        <time>2011-04-05T14:39:28Z</time>
      </trkpt>
      <trkpt lat="45.5611" lon="5.99637">
        <ele>586.06</ele>
        <time>2011-04-05T14:39:43Z</time>
      </trkpt>
      <trkpt lat="45.5609" lon="5.99655">
        <ele>588.95</ele>
        <time>2011-04-05T14:39:59Z</time>
      </trkpt>
      <trkpt lat="45.56066" lon="5.99653">
        <ele>588.95</ele>
        <time>2011-04-05T14:40:11Z</time>
      </trkpt>
      <trkpt lat="45.5604" lon="5.99651">
        <ele>590.87</ele>
        <time>2011-04-05T14:40:24Z</time>
      </trkpt>
      <trkpt lat="45.56025" lon="5.99651">
        <ele>593.75</ele>
        <time>2011-04-05T14:40:34Z</time>
      </trkpt>
      <trkpt lat="45.56022" lon="5.99653">
        <ele>594.23</ele>
        <time>2011-04-05T14:40:36Z</time>
      </trkpt>
      <trkpt lat="45.56019" lon="5.99653">
        <ele>594.23</ele>
        <time>2011-04-05T14:40:38Z</time>
      </trkpt>
      <trkpt lat="45.56014" lon="5.99651">
        <ele>595.19</ele>
        <time>2011-04-05T14:40:55Z</time>
      </trkpt>
      <trkpt lat="45.56014" lon="5.9965">
        <ele>595.67</ele>
        <time>2011-04-05T14:41:16Z</time>
      </trkpt>
      <trkpt lat="45.56015" lon="5.9965">
        <ele>596.15</ele>
        <time>2011-04-05T14:41:27Z</time>
      </trkpt>
      <trkpt lat="45.56012" lon="5.9965">
        <ele>595.19</ele>
        <time>2011-04-05T14:41:43Z</time>
      </trkpt>
      <trkpt lat="45.56008" lon="5.99652">
        <ele>595.67</ele>
        <time>2011-04-05T14:42:01Z</time>
      </trkpt>
      <trkpt lat="45.56003" lon="5.99654">
        <ele>597.12</ele>
        <time>2011-04-05T14:42:16Z</time>
      </trkpt>
      <trkpt lat="45.5599" lon="5.99663">
        <ele>598.08</ele>
        <time>2011-04-05T14:42:28Z</time>
      </trkpt>
      <trkpt lat="45.55965" lon="5.99687">
        <ele>600.96</ele>
        <time>2011-04-05T14:42:44Z</time>
      </trkpt>
      <trkpt lat="45.55945" lon="5.99694">
        <ele>602.88</ele>
        <time>2011-04-05T14:42:57Z</time>
      </trkpt>
      <trkpt lat="45.55939" lon="5.99696">
        <ele>603.85</ele>
        <time>2011-04-05T14:43:01Z</time>
      </trkpt>
      <trkpt lat="45.55917" lon="5.99701">
        <ele>607.21</ele>
        <time>2011-04-05T14:43:16Z</time>
      </trkpt>
      <trkpt lat="45.55907" lon="5.997">
        <ele>608.65</ele>
        <time>2011-04-05T14:43:23Z</time>
      </trkpt>
      <trkpt lat="45.55885" lon="5.99715">
        <ele>611.06</ele>
        <time>2011-04-05T14:43:37Z</time>
      </trkpt>
      <trkpt lat="45.55861" lon="5.99727">
        <ele>612.5</ele>
        <time>2011-04-05T14:43:50Z</time>
      </trkpt>
      <trkpt lat="45.55825" lon="5.99731">
        <ele>613.94</ele>
        <time>2011-04-05T14:44:06Z</time>
      </trkpt>
      <trkpt lat="45.55794" lon="5.99731">
        <ele>614.9</ele>
        <time>2011-04-05T14:44:19Z</time>
      </trkpt>
      <trkpt lat="45.55769" lon="5.9974">
        <ele>617.3</ele>
        <time>2011-04-05T14:44:32Z</time>
      </trkpt>
      <trkpt lat="45.55752" lon="5.99759">
        <ele>619.23</ele>
        <time>2011-04-05T14:44:45Z</time>
      </trkpt>
      <trkpt lat="45.55751" lon="5.99771">
        <ele>620.67</ele>
        <time>2011-04-05T14:44:50Z</time>
      </trkpt>
      <trkpt lat="45.55758" lon="5.99778">
        <ele>621.15</ele>
        <time>2011-04-05T14:44:56Z</time>
      </trkpt>
      <trkpt lat="45.55767" lon="5.99783">
        <ele>622.11</ele>
        <time>2011-04-05T14:45:02Z</time>
      </trkpt>
      <trkpt lat="45.55763" lon="5.998">
        <ele>623.55</ele>
        <time>2011-04-05T14:45:10Z</time>
      </trkpt>
      <trkpt lat="45.55743" lon="5.9983">
        <ele>625.47</ele>
        <time>2011-04-05T14:45:25Z</time>
      </trkpt>
      <trkpt lat="45.55722" lon="5.99846">
        <ele>627.88</ele>
        <time>2011-04-05T14:45:38Z</time>
      </trkpt>
      <trkpt lat="45.55704" lon="5.99845">
        <ele>629.8</ele>
        <time>2011-04-05T14:45:49Z</time>
      </trkpt>
      <trkpt lat="45.55673" lon="5.99838">
        <ele>632.2</ele>
        <time>2011-04-05T14:46:04Z</time>
      </trkpt>
      <trkpt lat="45.55655" lon="5.9983">
        <ele>633.17</ele>
        <time>2011-04-05T14:46:13Z</time>
      </trkpt>
      <trkpt lat="45.55655" lon="5.9984">
        <ele>634.61</ele>
        <time>2011-04-05T14:46:20Z</time>
      </trkpt>
      <trkpt lat="45.55661" lon="5.99844">
        <ele>635.57</ele>
        <time>2011-04-05T14:46:26Z</time>
      </trkpt>
      <trkpt lat="45.55687" lon="5.9986">
        <ele>638.93</ele>
        <time>2011-04-05T14:46:40Z</time>
      </trkpt>
      <trkpt lat="45.55708" lon="5.99871">
        <ele>641.82</ele>
        <time>2011-04-05T14:46:54Z</time>
      </trkpt>
      <trkpt lat="45.55729" lon="5.99893">
        <ele>644.7</ele>
        <time>2011-04-05T14:47:10Z</time>
      </trkpt>
      <trkpt lat="45.55747" lon="5.99908">
        <ele>646.14</ele>
        <time>2011-04-05T14:47:22Z</time>
      </trkpt>
      <trkpt lat="45.5576" lon="5.99914">
        <ele>649.03</ele>
        <time>2011-04-05T14:47:31Z</time>
      </trkpt>
      <trkpt lat="45.5578" lon="5.99919">
        <ele>651.43</ele>
        <time>2011-04-05T14:47:45Z</time>
      </trkpt>
      <trkpt lat="45.55803" lon="5.9992">
        <ele>653.35</ele>
        <time>2011-04-05T14:47:59Z</time>
      </trkpt>
      <trkpt lat="45.55804" lon="5.9992">
        <ele>653.83</ele>
        <time>2011-04-05T14:48:00Z</time>
      </trkpt>
      <trkpt lat="45.55815" lon="5.99924">
        <ele>655.28</ele>
        <time>2011-04-05T14:48:07Z</time>
      </trkpt>
      <trkpt lat="45.55842" lon="5.99933">
        <ele>658.16</ele>
        <time>2011-04-05T14:48:24Z</time>
      </trkpt>
      <trkpt lat="45.55855" lon="5.9994">
        <ele>659.12</ele>
        <time>2011-04-05T14:48:32Z</time>
      </trkpt>
      <trkpt lat="45.55866" lon="5.99944">
        <ele>659.6</ele>
        <time>2011-04-05T14:48:39Z</time>
      </trkpt>
      <trkpt lat="45.5589" lon="5.99951">
        <ele>662.97</ele>
        <time>2011-04-05T14:48:55Z</time>
      </trkpt>
      <trkpt lat="45.55912" lon="5.99955">
        <ele>665.37</ele>
        <time>2011-04-05T14:49:09Z</time>
      </trkpt>
      <trkpt lat="45.55933" lon="5.99961">
        <ele>667.29</ele>
        <time>2011-04-05T14:49:23Z</time>
      </trkpt>
      <trkpt lat="45.55957" lon="5.99961">
        <ele>670.18</ele>
        <time>2011-04-05T14:49:38Z</time>
      </trkpt>
      <trkpt lat="45.55985" lon="5.99959">
        <ele>672.58</ele>
        <time>2011-04-05T14:49:53Z</time>
      </trkpt>
      <trkpt lat="45.56012" lon="5.99952">
        <ele>675.46</ele>
        <time>2011-04-05T14:50:09Z</time>
      </trkpt>
      <trkpt lat="45.56037" lon="5.99942">
        <ele>678.83</ele>
        <time>2011-04-05T14:50:24Z</time>
      </trkpt>
      <trkpt lat="45.56059" lon="5.99934">
        <ele>680.75</ele>
        <time>2011-04-05T14:50:37Z</time>
      </trkpt>
      <trkpt lat="45.56079" lon="5.99924">
        <ele>682.67</ele>
        <time>2011-04-05T14:50:50Z</time>
      </trkpt>
      <trkpt lat="45.56077" lon="5.99936">
        <ele>684.12</ele>
        <time>2011-04-05T14:50:57Z</time>
      </trkpt>
      <trkpt lat="45.56052" lon="5.99961">
        <ele>686.52</ele>
        <time>2011-04-05T14:51:14Z</time>
      </trkpt>
      <trkpt lat="45.56034" lon="5.99989">
        <ele>689.4</ele>
        <time>2011-04-05T14:51:30Z</time>
      </trkpt>
      <trkpt lat="45.56021" lon="6.00014">
        <ele>691.33</ele>
        <time>2011-04-05T14:51:44Z</time>
      </trkpt>
      <trkpt lat="45.56006" lon="6.00036">
        <ele>694.21</ele>
        <time>2011-04-05T14:51:58Z</time>
      </trkpt>
      <trkpt lat="45.56002" lon="6.00039">
        <ele>694.69</ele>
        <time>2011-04-05T14:52:01Z</time>
      </trkpt>
      <trkpt lat="45.55994" lon="6.00045">
        <ele>695.65</ele>
        <time>2011-04-05T14:52:07Z</time>
      </trkpt>
      <trkpt lat="45.55981" lon="6.00057">
        <ele>697.57</ele>
        <time>2011-04-05T14:52:18Z</time>
      </trkpt>
      <trkpt lat="45.5598" lon="6.00056">
        <ele>697.57</ele>
        <time>2011-04-05T14:52:48Z</time>
      </trkpt>
      <trkpt lat="45.5598" lon="6.00058">
        <ele>698.05</ele>
        <time>2011-04-05T14:53:02Z</time>
      </trkpt>
      <trkpt lat="45.55974" lon="6.00061">
        <ele>699.02</ele>
        <time>2011-04-05T14:53:25Z</time>
      </trkpt>
      <trkpt lat="45.55972" lon="6.00062">
        <ele>699.02</ele>
        <time>2011-04-05T14:53:36Z</time>
      </trkpt>
      <trkpt lat="45.55959" lon="6.00078">
        <ele>701.42</ele>
        <time>2011-04-05T14:53:50Z</time>
      </trkpt>
      <trkpt lat="45.55976" lon="6.00079">
        <ele>702.86</ele>
        <time>2011-04-05T14:53:59Z</time>
      </trkpt>
      <trkpt lat="45.56001" lon="6.00077">
        <ele>705.26</ele>
        <time>2011-04-05T14:54:13Z</time>
      </trkpt>
      <trkpt lat="45.56025" lon="6.00072">
        <ele>708.63</ele>
        <time>2011-04-05T14:54:28Z</time>
      </trkpt>
      <trkpt lat="45.56042" lon="6.00059">
        <ele>711.51</ele>
        <time>2011-04-05T14:54:41Z</time>
      </trkpt>
      <trkpt lat="45.56057" lon="6.00039">
        <ele>713.44</ele>
        <time>2011-04-05T14:54:54Z</time>
      </trkpt>
      <trkpt lat="45.56075" lon="6.00019">
        <ele>715.84</ele>
        <time>2011-04-05T14:55:09Z</time>
      </trkpt>
      <trkpt lat="45.56097" lon="6.00013">
        <ele>718.72</ele>
        <time>2011-04-05T14:55:24Z</time>
      </trkpt>
      <trkpt lat="45.5612" lon="6.00011">
        <ele>721.61</ele>
        <time>2011-04-05T14:55:39Z</time>
      </trkpt>
      <trkpt lat="45.56142" lon="5.99996">
        <ele>724.49</ele>
        <time>2011-04-05T14:55:54Z</time>
      </trkpt>
      <trkpt lat="45.56159" lon="5.99972">
        <ele>727.86</ele>
        <time>2011-04-05T14:56:09Z</time>
      </trkpt>
      <trkpt lat="45.56173" lon="5.99949">
        <ele>730.26</ele>
        <time>2011-04-05T14:56:23Z</time>
      </trkpt>
      <trkpt lat="45.5619" lon="5.99917">
        <ele>733.14</ele>
        <time>2011-04-05T14:56:39Z</time>
      </trkpt>
      <trkpt lat="45.56202" lon="5.99894">
        <ele>735.55</ele>
        <time>2011-04-05T14:56:52Z</time>
      </trkpt>
      <trkpt lat="45.56205" lon="5.9989">
        <ele>736.51</ele>
        <time>2011-04-05T14:56:55Z</time>
      </trkpt>
      <trkpt lat="45.56223" lon="5.99867">
        <ele>739.39</ele>
        <time>2011-04-05T14:57:10Z</time>
      </trkpt>
      <trkpt lat="45.56239" lon="5.99834">
        <ele>742.28</ele>
        <time>2011-04-05T14:57:27Z</time>
      </trkpt>
      <trkpt lat="45.56253" lon="5.99804">
        <ele>744.68</ele>
        <time>2011-04-05T14:57:43Z</time>
      </trkpt>
      <trkpt lat="45.56273" lon="5.9979">
        <ele>748.04</ele>
        <time>2011-04-05T14:57:58Z</time>
      </trkpt>
      <trkpt lat="45.563" lon="5.998">
        <ele>749.49</ele>
        <time>2011-04-05T14:58:12Z</time>
      </trkpt>
      <trkpt lat="45.5633" lon="5.99834">
        <ele>750.93</ele>
        <time>2011-04-05T14:58:28Z</time>
      </trkpt>
      <trkpt lat="45.56369" lon="5.99847">
        <ele>752.85</ele>
        <time>2011-04-05T14:58:45Z</time>
      </trkpt>
      <trkpt lat="45.56376" lon="5.99851">
        <ele>753.81</ele>
        <time>2011-04-05T14:58:49Z</time>
      </trkpt>
      <trkpt lat="45.56366" lon="5.99867">
        <ele>755.25</ele>
        <time>2011-04-05T14:58:58Z</time>
      </trkpt>
      <trkpt lat="45.56337" lon="5.99865">
        <ele>757.66</ele>
        <time>2011-04-05T14:59:13Z</time>
      </trkpt>
      <trkpt lat="45.56308" lon="5.99868">
        <ele>760.06</ele>
        <time>2011-04-05T14:59:27Z</time>
      </trkpt>
      <trkpt lat="45.56282" lon="5.99868">
        <ele>762.46</ele>
        <time>2011-04-05T14:59:41Z</time>
      </trkpt>
      <trkpt lat="45.56263" lon="5.99872">
        <ele>765.35</ele>
        <time>2011-04-05T14:59:52Z</time>
      </trkpt>
      <trkpt lat="45.56241" lon="5.99908">
        <ele>766.79</ele>
        <time>2011-04-05T15:00:07Z</time>
      </trkpt>
      <trkpt lat="45.56218" lon="5.99969">
        <ele>765.83</ele>
        <time>2011-04-05T15:00:20Z</time>
      </trkpt>
      <trkpt lat="45.5621" lon="6.00031">
        <ele>767.75</ele>
        <time>2011-04-05T15:00:33Z</time>
      </trkpt>
      <trkpt lat="45.56197" lon="6.00107">
        <ele>765.35</ele>
        <time>2011-04-05T15:00:46Z</time>
      </trkpt>
      <trkpt lat="45.56192" lon="6.00124">
        <ele>764.39</ele>
        <time>2011-04-05T15:00:48Z</time>
      </trkpt>
      <trkpt lat="45.56183" lon="6.00186">
        <ele>762.94</ele>
        <time>2011-04-05T15:00:56Z</time>
      </trkpt>
      <trkpt lat="45.56183" lon="6.00193">
        <ele>762.94</ele>
        <time>2011-04-05T15:00:57Z</time>
      </trkpt>
      <trkpt lat="45.56184" lon="6.00201">
        <ele>762.94</ele>
        <time>2011-04-05T15:00:58Z</time>
      </trkpt>
      <trkpt lat="45.56189" lon="6.00222">
        <ele>762.46</ele>
        <time>2011-04-05T15:01:01Z</time>
      </trkpt>
      <trkpt lat="45.56191" lon="6.00236">
        <ele>762.46</ele>
        <time>2011-04-05T15:01:03Z</time>
      </trkpt>
      <trkpt lat="45.56191" lon="6.00241">
        <ele>762.46</ele>
        <time>2011-04-05T15:01:04Z</time>
      </trkpt>
      <trkpt lat="45.56191" lon="6.00244">
        <ele>761.98</ele>
        <time>2011-04-05T15:01:05Z</time>
      </trkpt>
      <trkpt lat="45.56191" lon="6.00246">
        <ele>761.5</ele>
        <time>2011-04-05T15:01:06Z</time>
      </trkpt>
      <trkpt lat="45.56191" lon="6.00246">
        <ele>761.5</ele>
        <time>2011-04-05T15:01:32Z</time>
      </trkpt>
      <trkpt lat="45.56192" lon="6.00247">
        <ele>761.98</ele>
        <time>2011-04-05T15:01:35Z</time>
      </trkpt>
      <trkpt lat="45.56192" lon="6.00249">
        <ele>761.02</ele>
        <time>2011-04-05T15:01:36Z</time>
      </trkpt>
      <trkpt lat="45.56192" lon="6.00252">
        <ele>760.54</ele>
        <time>2011-04-05T15:01:37Z</time>
      </trkpt>
      <trkpt lat="45.56193" lon="6.00255">
        <ele>760.06</ele>
        <time>2011-04-05T15:01:38Z</time>
      </trkpt>
      <trkpt lat="45.56194" lon="6.0026">
        <ele>760.06</ele>
        <time>2011-04-05T15:01:39Z</time>
      </trkpt>
      <trkpt lat="45.56195" lon="6.00265">
        <ele>760.06</ele>
        <time>2011-04-05T15:01:40Z</time>
      </trkpt>
      <trkpt lat="45.56197" lon="6.0027">
        <ele>759.58</ele>
        <time>2011-04-05T15:01:41Z</time>
      </trkpt>
      <trkpt lat="45.56198" lon="6.00276">
        <ele>759.1</ele>
        <time>2011-04-05T15:01:42Z</time>
      </trkpt>
      <trkpt lat="45.56199" lon="6.00282">
        <ele>758.62</ele>
        <time>2011-04-05T15:01:43Z</time>
      </trkpt>
      <trkpt lat="45.562" lon="6.00289">
        <ele>758.14</ele>
        <time>2011-04-05T15:01:44Z</time>
      </trkpt>
      <trkpt lat="45.56202" lon="6.00297">
        <ele>757.66</ele>
        <time>2011-04-05T15:01:45Z</time>
      </trkpt>
      <trkpt lat="45.56204" lon="6.00304">
        <ele>757.18</ele>
        <time>2011-04-05T15:01:46Z</time>
      </trkpt>
      <trkpt lat="45.56207" lon="6.00311">
        <ele>756.69</ele>
        <time>2011-04-05T15:01:47Z</time>
      </trkpt>
      <trkpt lat="45.56211" lon="6.00318">
        <ele>756.21</ele>
        <time>2011-04-05T15:01:48Z</time>
      </trkpt>
      <trkpt lat="45.5622" lon="6.00331">
        <ele>755.25</ele>
        <time>2011-04-05T15:01:50Z</time>
      </trkpt>
      <trkpt lat="45.5626" lon="6.00384">
        <ele>753.33</ele>
        <time>2011-04-05T15:01:59Z</time>
      </trkpt>
      <trkpt lat="45.5628" lon="6.00398">
        <ele>752.37</ele>
        <time>2011-04-05T15:02:03Z</time>
      </trkpt>
      <trkpt lat="45.56286" lon="6.00401">
        <ele>752.37</ele>
        <time>2011-04-05T15:02:04Z</time>
      </trkpt>
      <trkpt lat="45.56292" lon="6.00405">
        <ele>751.41</ele>
        <time>2011-04-05T15:02:05Z</time>
      </trkpt>
      <trkpt lat="45.56297" lon="6.00409">
        <ele>750.45</ele>
        <time>2011-04-05T15:02:06Z</time>
      </trkpt>
      <trkpt lat="45.56303" lon="6.00415">
        <ele>749.49</ele>
        <time>2011-04-05T15:02:07Z</time>
      </trkpt>
      <trkpt lat="45.56308" lon="6.0042">
        <ele>748.52</ele>
        <time>2011-04-05T15:02:08Z</time>
      </trkpt>
      <trkpt lat="45.56313" lon="6.00425">
        <ele>748.04</ele>
        <time>2011-04-05T15:02:09Z</time>
      </trkpt>
      <trkpt lat="45.56318" lon="6.0043">
        <ele>747.08</ele>
        <time>2011-04-05T15:02:10Z</time>
      </trkpt>
      <trkpt lat="45.56323" lon="6.00435">
        <ele>746.6</ele>
        <time>2011-04-05T15:02:11Z</time>
      </trkpt>
      <trkpt lat="45.5633" lon="6.00441">
        <ele>746.12</ele>
        <time>2011-04-05T15:02:12Z</time>
      </trkpt>
      <trkpt lat="45.56375" lon="6.00488">
        <ele>744.2</ele>
        <time>2011-04-05T15:02:19Z</time>
      </trkpt>
      <trkpt lat="45.56409" lon="6.00543">
        <ele>741.79</ele>
        <time>2011-04-05T15:02:27Z</time>
      </trkpt>
      <trkpt lat="45.56413" lon="6.00549">
        <ele>740.83</ele>
        <time>2011-04-05T15:02:28Z</time>
      </trkpt>
      <trkpt lat="45.56442" lon="6.00588">
        <ele>737.95</ele>
        <time>2011-04-05T15:02:34Z</time>
      </trkpt>
      <trkpt lat="45.56456" lon="6.00608">
        <ele>736.03</ele>
        <time>2011-04-05T15:02:37Z</time>
      </trkpt>
      <trkpt lat="45.56463" lon="6.00612">
        <ele>735.55</ele>
        <time>2011-04-05T15:02:38Z</time>
      </trkpt>
      <trkpt lat="45.56469" lon="6.00615">
        <ele>735.07</ele>
        <time>2011-04-05T15:02:39Z</time>
      </trkpt>
      <trkpt lat="45.56501" lon="6.00626">
        <ele>734.1</ele>
        <time>2011-04-05T15:02:44Z</time>
      </trkpt>
      <trkpt lat="45.56511" lon="6.00629">
        <ele>733.14</ele>
        <time>2011-04-05T15:02:46Z</time>
      </trkpt>
      <trkpt lat="45.56516" lon="6.00631">
        <ele>732.66</ele>
        <time>2011-04-05T15:02:47Z</time>
      </trkpt>
      <trkpt lat="45.56521" lon="6.00635">
        <ele>732.18</ele>
        <time>2011-04-05T15:02:48Z</time>
      </trkpt>
      <trkpt lat="45.56526" lon="6.00639">
        <ele>731.7</ele>
        <time>2011-04-05T15:02:49Z</time>
      </trkpt>
      <trkpt lat="45.5655" lon="6.00661">
        <ele>729.78</ele>
        <time>2011-04-05T15:02:53Z</time>
      </trkpt>
      <trkpt lat="45.56569" lon="6.00676">
        <ele>728.34</ele>
        <time>2011-04-05T15:02:56Z</time>
      </trkpt>
      <trkpt lat="45.56592" lon="6.00693">
        <ele>725.93</ele>
        <time>2011-04-05T15:03:00Z</time>
      </trkpt>
      <trkpt lat="45.56603" lon="6.00699">
        <ele>724.01</ele>
        <time>2011-04-05T15:03:02Z</time>
      </trkpt>
      <trkpt lat="45.56609" lon="6.007">
        <ele>723.53</ele>
        <time>2011-04-05T15:03:03Z</time>
      </trkpt>
      <trkpt lat="45.56614" lon="6.007">
        <ele>722.57</ele>
        <time>2011-04-05T15:03:04Z</time>
      </trkpt>
      <trkpt lat="45.56619" lon="6.007">
        <ele>722.57</ele>
        <time>2011-04-05T15:03:05Z</time>
      </trkpt>
      <trkpt lat="45.56624" lon="6.00701">
        <ele>722.09</ele>
        <time>2011-04-05T15:03:06Z</time>
      </trkpt>
      <trkpt lat="45.56627" lon="6.00702">
        <ele>721.61</ele>
        <time>2011-04-05T15:03:07Z</time>
      </trkpt>
      <trkpt lat="45.56629" lon="6.00706">
        <ele>721.61</ele>
        <time>2011-04-05T15:03:08Z</time>
      </trkpt>
      <trkpt lat="45.56632" lon="6.00713">
        <ele>721.13</ele>
        <time>2011-04-05T15:03:09Z</time>
      </trkpt>
      <trkpt lat="45.56634" lon="6.0072">
        <ele>720.16</ele>
        <time>2011-04-05T15:03:10Z</time>
      </trkpt>
      <trkpt lat="45.56636" lon="6.00728">
        <ele>719.68</ele>
        <time>2011-04-05T15:03:11Z</time>
      </trkpt>
      <trkpt lat="45.56643" lon="6.00743">
        <ele>717.28</ele>
        <time>2011-04-05T15:03:14Z</time>
      </trkpt>
      <trkpt lat="45.56646" lon="6.00745">
        <ele>717.28</ele>
        <time>2011-04-05T15:03:15Z</time>
      </trkpt>
      <trkpt lat="45.5666" lon="6.00768">
        <ele>714.88</ele>
        <time>2011-04-05T15:03:21Z</time>
      </trkpt>
      <trkpt lat="45.56664" lon="6.00789">
        <ele>713.44</ele>
        <time>2011-04-05T15:03:24Z</time>
      </trkpt>
      <trkpt lat="45.56665" lon="6.00803">
        <ele>711.99</ele>
        <time>2011-04-05T15:03:26Z</time>
      </trkpt>
      <trkpt lat="45.56664" lon="6.0081">
        <ele>710.55</ele>
        <time>2011-04-05T15:03:27Z</time>
      </trkpt>
      <trkpt lat="45.56661" lon="6.00817">
        <ele>711.03</ele>
        <time>2011-04-05T15:03:28Z</time>
      </trkpt>
      <trkpt lat="45.56657" lon="6.00823">
        <ele>709.59</ele>
        <time>2011-04-05T15:03:29Z</time>
      </trkpt>
      <trkpt lat="45.56653" lon="6.0083">
        <ele>709.11</ele>
        <time>2011-04-05T15:03:30Z</time>
      </trkpt>
      <trkpt lat="45.56649" lon="6.00837">
        <ele>709.11</ele>
        <time>2011-04-05T15:03:31Z</time>
      </trkpt>
      <trkpt lat="45.56642" lon="6.00852">
        <ele>708.63</ele>
        <time>2011-04-05T15:03:33Z</time>
      </trkpt>
      <trkpt lat="45.56622" lon="6.00894">
        <ele>706.71</ele>
        <time>2011-04-05T15:03:38Z</time>
      </trkpt>
      <trkpt lat="45.56617" lon="6.00902">
        <ele>705.75</ele>
        <time>2011-04-05T15:03:39Z</time>
      </trkpt>
      <trkpt lat="45.56607" lon="6.00919">
        <ele>705.75</ele>
        <time>2011-04-05T15:03:41Z</time>
      </trkpt>
      <trkpt lat="45.56581" lon="6.00968">
        <ele>704.78</ele>
        <time>2011-04-05T15:03:47Z</time>
      </trkpt>
      <trkpt lat="45.56577" lon="6.00977">
        <ele>704.3</ele>
        <time>2011-04-05T15:03:48Z</time>
      </trkpt>
      <trkpt lat="45.56574" lon="6.00986">
        <ele>704.78</ele>
        <time>2011-04-05T15:03:49Z</time>
      </trkpt>
      <trkpt lat="45.56572" lon="6.00995">
        <ele>704.78</ele>
        <time>2011-04-05T15:03:50Z</time>
      </trkpt>
      <trkpt lat="45.5657" lon="6.01004">
        <ele>704.3</ele>
        <time>2011-04-05T15:03:51Z</time>
      </trkpt>
      <trkpt lat="45.56567" lon="6.01013">
        <ele>704.3</ele>
        <time>2011-04-05T15:03:52Z</time>
      </trkpt>
      <trkpt lat="45.56564" lon="6.01021">
        <ele>704.78</ele>
        <time>2011-04-05T15:03:53Z</time>
      </trkpt>
      <trkpt lat="45.5656" lon="6.01029">
        <ele>704.78</ele>
        <time>2011-04-05T15:03:54Z</time>
      </trkpt>
      <trkpt lat="45.56524" lon="6.01088">
        <ele>705.26</ele>
        <time>2011-04-05T15:04:03Z</time>
      </trkpt>
      <trkpt lat="45.56521" lon="6.01095">
        <ele>705.75</ele>
        <time>2011-04-05T15:04:04Z</time>
      </trkpt>
      <trkpt lat="45.56519" lon="6.01103">
        <ele>705.26</ele>
        <time>2011-04-05T15:04:05Z</time>
      </trkpt>
      <trkpt lat="45.5651" lon="6.01141">
        <ele>705.26</ele>
        <time>2011-04-05T15:04:11Z</time>
      </trkpt>
      <trkpt lat="45.56507" lon="6.01144">
        <ele>706.23</ele>
        <time>2011-04-05T15:04:12Z</time>
      </trkpt>
      <trkpt lat="45.56504" lon="6.01145">
        <ele>706.23</ele>
        <time>2011-04-05T15:04:13Z</time>
      </trkpt>
      <trkpt lat="45.56501" lon="6.01145">
        <ele>706.23</ele>
        <time>2011-04-05T15:04:14Z</time>
      </trkpt>
      <trkpt lat="45.56499" lon="6.01144">
        <ele>706.71</ele>
        <time>2011-04-05T15:04:15Z</time>
      </trkpt>
      <trkpt lat="45.56471" lon="6.01132">
        <ele>709.11</ele>
        <time>2011-04-05T15:04:26Z</time>
      </trkpt>
      <trkpt lat="45.56452" lon="6.0111">
        <ele>712.47</ele>
        <time>2011-04-05T15:04:38Z</time>
      </trkpt>
      <trkpt lat="45.56436" lon="6.01083">
        <ele>715.84</ele>
        <time>2011-04-05T15:04:50Z</time>
      </trkpt>
      <trkpt lat="45.56416" lon="6.01054">
        <ele>718.72</ele>
        <time>2011-04-05T15:05:04Z</time>
      </trkpt>
      <trkpt lat="45.56404" lon="6.01032">
        <ele>720.65</ele>
        <time>2011-04-05T15:05:16Z</time>
      </trkpt>
      <trkpt lat="45.56395" lon="6.01028">
        <ele>722.57</ele>
        <time>2011-04-05T15:05:23Z</time>
      </trkpt>
      <trkpt lat="45.56379" lon="6.0104">
        <ele>725.45</ele>
        <time>2011-04-05T15:05:38Z</time>
      </trkpt>
      <trkpt lat="45.56373" lon="6.01043">
        <ele>726.89</ele>
        <time>2011-04-05T15:05:46Z</time>
      </trkpt>
      <trkpt lat="45.56369" lon="6.01043">
        <ele>727.37</ele>
        <time>2011-04-05T15:05:58Z</time>
      </trkpt>
      <trkpt lat="45.56367" lon="6.01045">
        <ele>728.34</ele>
        <time>2011-04-05T15:06:04Z</time>
      </trkpt>
      <trkpt lat="45.56366" lon="6.01045">
        <ele>728.34</ele>
        <time>2011-04-05T15:06:05Z</time>
      </trkpt>
      <trkpt lat="45.56364" lon="6.01046">
        <ele>728.82</ele>
        <time>2011-04-05T15:06:06Z</time>
      </trkpt>
      <trkpt lat="45.56356" lon="6.01047">
        <ele>729.78</ele>
        <time>2011-04-05T15:06:11Z</time>
      </trkpt>
      <trkpt lat="45.5634" lon="6.01057">
        <ele>732.66</ele>
        <time>2011-04-05T15:06:24Z</time>
      </trkpt>
      <trkpt lat="45.56332" lon="6.01059">
        <ele>734.1</ele>
        <time>2011-04-05T15:06:31Z</time>
      </trkpt>
      <trkpt lat="45.56331" lon="6.0106">
        <ele>734.58</ele>
        <time>2011-04-05T15:06:32Z</time>
      </trkpt>
      <trkpt lat="45.56316" lon="6.01059">
        <ele>736.51</ele>
        <time>2011-04-05T15:06:44Z</time>
      </trkpt>
      <trkpt lat="45.56307" lon="6.01058">
        <ele>737.47</ele>
        <time>2011-04-05T15:06:50Z</time>
      </trkpt>
      <trkpt lat="45.56306" lon="6.01058">
        <ele>737.95</ele>
        <time>2011-04-05T15:06:51Z</time>
      </trkpt>
      <trkpt lat="45.56304" lon="6.01058">
        <ele>737.95</ele>
        <time>2011-04-05T15:06:52Z</time>
      </trkpt>
      <trkpt lat="45.56302" lon="6.01058">
        <ele>737.95</ele>
        <time>2011-04-05T15:06:53Z</time>
      </trkpt>
      <trkpt lat="45.56301" lon="6.01059">
        <ele>737.95</ele>
        <time>2011-04-05T15:06:54Z</time>
      </trkpt>
      <trkpt lat="45.56299" lon="6.0106">
        <ele>737.95</ele>
        <time>2011-04-05T15:06:55Z</time>
      </trkpt>
      <trkpt lat="45.56298" lon="6.0106">
        <ele>738.43</ele>
        <time>2011-04-05T15:06:56Z</time>
      </trkpt>
      <trkpt lat="45.56297" lon="6.0106">
        <ele>738.91</ele>
        <time>2011-04-05T15:06:57Z</time>
      </trkpt>
      <trkpt lat="45.56295" lon="6.01061">
        <ele>738.91</ele>
        <time>2011-04-05T15:06:58Z</time>
      </trkpt>
      <trkpt lat="45.56294" lon="6.01061">
        <ele>738.91</ele>
        <time>2011-04-05T15:06:59Z</time>
      </trkpt>
      <trkpt lat="45.56293" lon="6.01062">
        <ele>738.43</ele>
        <time>2011-04-05T15:07:00Z</time>
      </trkpt>
      <trkpt lat="45.56291" lon="6.01062">
        <ele>738.43</ele>
        <time>2011-04-05T15:07:01Z</time>
      </trkpt>
      <trkpt lat="45.56264" lon="6.01063">
        <ele>738.43</ele>
        <time>2011-04-05T15:07:11Z</time>
      </trkpt>
      <trkpt lat="45.56239" lon="6.01037">
        <ele>741.31</ele>
        <time>2011-04-05T15:07:26Z</time>
      </trkpt>
      <trkpt lat="45.5623" lon="6.01005">
        <ele>743.72</ele>
        <time>2011-04-05T15:07:39Z</time>
      </trkpt>
      <trkpt lat="45.56221" lon="6.00965">
        <ele>747.08</ele>
        <time>2011-04-05T15:07:54Z</time>
      </trkpt>
      <trkpt lat="45.56195" lon="6.00948">
        <ele>749.49</ele>
        <time>2011-04-05T15:08:09Z</time>
      </trkpt>
      <trkpt lat="45.56169" lon="6.00932">
        <ele>752.85</ele>
        <time>2011-04-05T15:08:23Z</time>
      </trkpt>
      <trkpt lat="45.5614" lon="6.00922">
        <ele>755.73</ele>
        <time>2011-04-05T15:08:38Z</time>
      </trkpt>
      <trkpt lat="45.56111" lon="6.00933">
        <ele>758.62</ele>
        <time>2011-04-05T15:08:54Z</time>
      </trkpt>
      <trkpt lat="45.56082" lon="6.00946">
        <ele>761.98</ele>
        <time>2011-04-05T15:09:10Z</time>
      </trkpt>
      <trkpt lat="45.56056" lon="6.0096">
        <ele>764.87</ele>
        <time>2011-04-05T15:09:25Z</time>
      </trkpt>
      <trkpt lat="45.56037" lon="6.00992">
        <ele>767.75</ele>
        <time>2011-04-05T15:09:40Z</time>
      </trkpt>
      <trkpt lat="45.5602" lon="6.01028">
        <ele>770.63</ele>
        <time>2011-04-05T15:09:56Z</time>
      </trkpt>
      <trkpt lat="45.56001" lon="6.01059">
        <ele>774</ele>
        <time>2011-04-05T15:10:11Z</time>
      </trkpt>
      <trkpt lat="45.55979" lon="6.01084">
        <ele>777.36</ele>
        <time>2011-04-05T15:10:26Z</time>
      </trkpt>
      <trkpt lat="45.55959" lon="6.01119">
        <ele>780.73</ele>
        <time>2011-04-05T15:10:43Z</time>
      </trkpt>
      <trkpt lat="45.55941" lon="6.01151">
        <ele>782.65</ele>
        <time>2011-04-05T15:10:57Z</time>
      </trkpt>
      <trkpt lat="45.55921" lon="6.01179">
        <ele>785.53</ele>
        <time>2011-04-05T15:11:11Z</time>
      </trkpt>
      <trkpt lat="45.55901" lon="6.01209">
        <ele>788.9</ele>
        <time>2011-04-05T15:11:26Z</time>
      </trkpt>
      <trkpt lat="45.55868" lon="6.01219">
        <ele>791.78</ele>
        <time>2011-04-05T15:11:43Z</time>
      </trkpt>
      <trkpt lat="45.55837" lon="6.01206">
        <ele>794.19</ele>
        <time>2011-04-05T15:11:58Z</time>
      </trkpt>
      <trkpt lat="45.5581" lon="6.01176">
        <ele>797.55</ele>
        <time>2011-04-05T15:12:13Z</time>
      </trkpt>
      <trkpt lat="45.55785" lon="6.01143">
        <ele>799.95</ele>
        <time>2011-04-05T15:12:28Z</time>
      </trkpt>
      <trkpt lat="45.55775" lon="6.01093">
        <ele>801.88</ele>
        <time>2011-04-05T15:12:44Z</time>
      </trkpt>
      <trkpt lat="45.55788" lon="6.01047">
        <ele>804.28</ele>
        <time>2011-04-05T15:12:59Z</time>
      </trkpt>
      <trkpt lat="45.55817" lon="6.01021">
        <ele>807.16</ele>
        <time>2011-04-05T15:13:14Z</time>
      </trkpt>
      <trkpt lat="45.55847" lon="6.01006">
        <ele>809.57</ele>
        <time>2011-04-05T15:13:28Z</time>
      </trkpt>
      <trkpt lat="45.55854" lon="6.00976">
        <ele>811.49</ele>
        <time>2011-04-05T15:13:39Z</time>
      </trkpt>
      <trkpt lat="45.5584" lon="6.00934">
        <ele>812.93</ele>
        <time>2011-04-05T15:13:53Z</time>
      </trkpt>
      <trkpt lat="45.55816" lon="6.00903">
        <ele>815.34</ele>
        <time>2011-04-05T15:14:07Z</time>
      </trkpt>
      <trkpt lat="45.55786" lon="6.00886">
        <ele>817.74</ele>
        <time>2011-04-05T15:14:22Z</time>
      </trkpt>
      <trkpt lat="45.55764" lon="6.00875">
        <ele>819.66</ele>
        <time>2011-04-05T15:14:34Z</time>
      </trkpt>
      <trkpt lat="45.55738" lon="6.00889">
        <ele>823.03</ele>
        <time>2011-04-05T15:14:48Z</time>
      </trkpt>
      <trkpt lat="45.55717" lon="6.00928">
        <ele>823.99</ele>
        <time>2011-04-05T15:15:02Z</time>
      </trkpt>
      <trkpt lat="45.55709" lon="6.00979">
        <ele>825.91</ele>
        <time>2011-04-05T15:15:16Z</time>
      </trkpt>
      <trkpt lat="45.55689" lon="6.00958">
        <ele>827.35</ele>
        <time>2011-04-05T15:15:27Z</time>
      </trkpt>
      <trkpt lat="45.55656" lon="6.00918">
        <ele>827.83</ele>
        <time>2011-04-05T15:15:40Z</time>
      </trkpt>
      <trkpt lat="45.55615" lon="6.00876">
        <ele>824.95</ele>
        <time>2011-04-05T15:15:53Z</time>
      </trkpt>
      <trkpt lat="45.55611" lon="6.0087">
        <ele>824.95</ele>
        <time>2011-04-05T15:15:54Z</time>
      </trkpt>
      <trkpt lat="45.55603" lon="6.00858">
        <ele>823.99</ele>
        <time>2011-04-05T15:15:56Z</time>
      </trkpt>
      <trkpt lat="45.55599" lon="6.0085">
        <ele>823.51</ele>
        <time>2011-04-05T15:15:57Z</time>
      </trkpt>
      <trkpt lat="45.55595" lon="6.00842">
        <ele>822.55</ele>
        <time>2011-04-05T15:15:58Z</time>
      </trkpt>
      <trkpt lat="45.55592" lon="6.00833">
        <ele>822.55</ele>
        <time>2011-04-05T15:15:59Z</time>
      </trkpt>
      <trkpt lat="45.5559" lon="6.00824">
        <ele>822.06</ele>
        <time>2011-04-05T15:16:00Z</time>
      </trkpt>
      <trkpt lat="45.55557" lon="6.00741">
        <ele>821.1</ele>
        <time>2011-04-05T15:16:10Z</time>
      </trkpt>
      <trkpt lat="45.55545" lon="6.007">
        <ele>818.22</ele>
        <time>2011-04-05T15:16:15Z</time>
      </trkpt>
      <trkpt lat="45.55541" lon="6.00694">
        <ele>817.74</ele>
        <time>2011-04-05T15:16:16Z</time>
      </trkpt>
      <trkpt lat="45.55532" lon="6.00683">
        <ele>817.26</ele>
        <time>2011-04-05T15:16:18Z</time>
      </trkpt>
      <trkpt lat="45.55527" lon="6.00679">
        <ele>816.3</ele>
        <time>2011-04-05T15:16:19Z</time>
      </trkpt>
      <trkpt lat="45.55513" lon="6.00669">
        <ele>813.89</ele>
        <time>2011-04-05T15:16:22Z</time>
      </trkpt>
      <trkpt lat="45.55508" lon="6.00668">
        <ele>813.89</ele>
        <time>2011-04-05T15:16:23Z</time>
      </trkpt>
      <trkpt lat="45.55504" lon="6.00668">
        <ele>813.41</ele>
        <time>2011-04-05T15:16:24Z</time>
      </trkpt>
      <trkpt lat="45.555" lon="6.0067">
        <ele>813.41</ele>
        <time>2011-04-05T15:16:25Z</time>
      </trkpt>
      <trkpt lat="45.55497" lon="6.00672">
        <ele>812.45</ele>
        <time>2011-04-05T15:16:26Z</time>
      </trkpt>
      <trkpt lat="45.55494" lon="6.00675">
        <ele>812.45</ele>
        <time>2011-04-05T15:16:27Z</time>
      </trkpt>
      <trkpt lat="45.55491" lon="6.00678">
        <ele>811.97</ele>
        <time>2011-04-05T15:16:28Z</time>
      </trkpt>
      <trkpt lat="45.55484" lon="6.00684">
        <ele>810.53</ele>
        <time>2011-04-05T15:16:30Z</time>
      </trkpt>
      <trkpt lat="45.55475" lon="6.00701">
        <ele>807.16</ele>
        <time>2011-04-05T15:16:34Z</time>
      </trkpt>
      <trkpt lat="45.55475" lon="6.00706">
        <ele>806.68</ele>
        <time>2011-04-05T15:16:35Z</time>
      </trkpt>
      <trkpt lat="45.55471" lon="6.00752">
        <ele>804.28</ele>
        <time>2011-04-05T15:16:46Z</time>
      </trkpt>
      <trkpt lat="45.55464" lon="6.00794">
        <ele>801.4</ele>
        <time>2011-04-05T15:16:55Z</time>
      </trkpt>
      <trkpt lat="45.55462" lon="6.00809">
        <ele>799.47</ele>
        <time>2011-04-05T15:17:04Z</time>
      </trkpt>
      <trkpt lat="45.55461" lon="6.00811">
        <ele>799.47</ele>
        <time>2011-04-05T15:17:17Z</time>
      </trkpt>
      <trkpt lat="45.55458" lon="6.00818">
        <ele>798.99</ele>
        <time>2011-04-05T15:17:26Z</time>
      </trkpt>
      <trkpt lat="45.55457" lon="6.00821">
        <ele>798.99</ele>
        <time>2011-04-05T15:17:27Z</time>
      </trkpt>
      <trkpt lat="45.55457" lon="6.00823">
        <ele>798.51</ele>
        <time>2011-04-05T15:17:28Z</time>
      </trkpt>
      <trkpt lat="45.55457" lon="6.00825">
        <ele>798.51</ele>
        <time>2011-04-05T15:17:29Z</time>
      </trkpt>
      <trkpt lat="45.55456" lon="6.00828">
        <ele>798.03</ele>
        <time>2011-04-05T15:17:30Z</time>
      </trkpt>
      <trkpt lat="45.55455" lon="6.00829">
        <ele>798.03</ele>
        <time>2011-04-05T15:17:31Z</time>
      </trkpt>
      <trkpt lat="45.55455" lon="6.00832">
        <ele>798.03</ele>
        <time>2011-04-05T15:17:32Z</time>
      </trkpt>
      <trkpt lat="45.55454" lon="6.00835">
        <ele>797.07</ele>
        <time>2011-04-05T15:17:33Z</time>
      </trkpt>
      <trkpt lat="45.55454" lon="6.00837">
        <ele>796.59</ele>
        <time>2011-04-05T15:17:34Z</time>
      </trkpt>
      <trkpt lat="45.55453" lon="6.00841">
        <ele>796.59</ele>
        <time>2011-04-05T15:17:35Z</time>
      </trkpt>
      <trkpt lat="45.55452" lon="6.00844">
        <ele>795.63</ele>
        <time>2011-04-05T15:17:36Z</time>
      </trkpt>
      <trkpt lat="45.55451" lon="6.00847">
        <ele>795.63</ele>
        <time>2011-04-05T15:17:37Z</time>
      </trkpt>
      <trkpt lat="45.55451" lon="6.00851">
        <ele>795.15</ele>
        <time>2011-04-05T15:17:38Z</time>
      </trkpt>
      <trkpt lat="45.55451" lon="6.00854">
        <ele>794.67</ele>
        <time>2011-04-05T15:17:39Z</time>
      </trkpt>
      <trkpt lat="45.55453" lon="6.00879">
        <ele>792.74</ele>
        <time>2011-04-05T15:17:45Z</time>
      </trkpt>
      <trkpt lat="45.55457" lon="6.00901">
        <ele>788.9</ele>
        <time>2011-04-05T15:17:50Z</time>
      </trkpt>
      <trkpt lat="45.55467" lon="6.00917">
        <ele>786.02</ele>
        <time>2011-04-05T15:17:55Z</time>
      </trkpt>
      <trkpt lat="45.55471" lon="6.00922">
        <ele>785.05</ele>
        <time>2011-04-05T15:17:57Z</time>
      </trkpt>
      <trkpt lat="45.55481" lon="6.00933">
        <ele>783.13</ele>
        <time>2011-04-05T15:18:02Z</time>
      </trkpt>
      <trkpt lat="45.55487" lon="6.00943">
        <ele>781.69</ele>
        <time>2011-04-05T15:18:05Z</time>
      </trkpt>
      <trkpt lat="45.55493" lon="6.0096">
        <ele>778.32</ele>
        <time>2011-04-05T15:18:10Z</time>
      </trkpt>
      <trkpt lat="45.55504" lon="6.00988">
        <ele>774.96</ele>
        <time>2011-04-05T15:18:19Z</time>
      </trkpt>
      <trkpt lat="45.55508" lon="6.01005">
        <ele>773.04</ele>
        <time>2011-04-05T15:18:23Z</time>
      </trkpt>
      <trkpt lat="45.55516" lon="6.01026">
        <ele>769.67</ele>
        <time>2011-04-05T15:18:28Z</time>
      </trkpt>
      <trkpt lat="45.55525" lon="6.01046">
        <ele>766.31</ele>
        <time>2011-04-05T15:18:32Z</time>
      </trkpt>
      <trkpt lat="45.55523" lon="6.01059">
        <ele>763.9</ele>
        <time>2011-04-05T15:18:37Z</time>
      </trkpt>
      <trkpt lat="45.55493" lon="6.01034">
        <ele>760.54</ele>
        <time>2011-04-05T15:18:47Z</time>
      </trkpt>
      <trkpt lat="45.55479" lon="6.01023">
        <ele>759.1</ele>
        <time>2011-04-05T15:18:52Z</time>
      </trkpt>
      <trkpt lat="45.55465" lon="6.01004">
        <ele>755.25</ele>
        <time>2011-04-05T15:18:56Z</time>
      </trkpt>
      <trkpt lat="45.5546" lon="6.00998">
        <ele>755.25</ele>
        <time>2011-04-05T15:18:57Z</time>
      </trkpt>
      <trkpt lat="45.55455" lon="6.00992">
        <ele>754.29</ele>
        <time>2011-04-05T15:18:59Z</time>
      </trkpt>
      <trkpt lat="45.55453" lon="6.00993">
        <ele>753.81</ele>
        <time>2011-04-05T15:19:00Z</time>
      </trkpt>
      <trkpt lat="45.55453" lon="6.00995">
        <ele>753.81</ele>
        <time>2011-04-05T15:19:01Z</time>
      </trkpt>
      <trkpt lat="45.55454" lon="6.00998">
        <ele>753.33</ele>
        <time>2011-04-05T15:19:02Z</time>
      </trkpt>
      <trkpt lat="45.55456" lon="6.01002">
        <ele>752.37</ele>
        <time>2011-04-05T15:19:03Z</time>
      </trkpt>
      <trkpt lat="45.55458" lon="6.01008">
        <ele>751.89</ele>
        <time>2011-04-05T15:19:04Z</time>
      </trkpt>
      <trkpt lat="45.55462" lon="6.01019">
        <ele>750.93</ele>
        <time>2011-04-05T15:19:06Z</time>
      </trkpt>
      <trkpt lat="45.55465" lon="6.01031">
        <ele>749.97</ele>
        <time>2011-04-05T15:19:08Z</time>
      </trkpt>
      <trkpt lat="45.55478" lon="6.01061">
        <ele>747.08</ele>
        <time>2011-04-05T15:19:17Z</time>
      </trkpt>
      <trkpt lat="45.55473" lon="6.01059">
        <ele>746.6</ele>
        <time>2011-04-05T15:19:23Z</time>
      </trkpt>
      <trkpt lat="45.55473" lon="6.01058">
        <ele>745.64</ele>
        <time>2011-04-05T15:19:24Z</time>
      </trkpt>
      <trkpt lat="45.55467" lon="6.01055">
        <ele>744.68</ele>
        <time>2011-04-05T15:19:35Z</time>
      </trkpt>
      <trkpt lat="45.55457" lon="6.01046">
        <ele>743.24</ele>
        <time>2011-04-05T15:19:45Z</time>
      </trkpt>
      <trkpt lat="45.55452" lon="6.01044">
        <ele>740.83</ele>
        <time>2011-04-05T15:19:55Z</time>
      </trkpt>
      <trkpt lat="45.55454" lon="6.01046">
        <ele>740.83</ele>
        <time>2011-04-05T15:19:56Z</time>
      </trkpt>
      <trkpt lat="45.55457" lon="6.01061">
        <ele>738.43</ele>
        <time>2011-04-05T15:20:09Z</time>
      </trkpt>
      <trkpt lat="45.55455" lon="6.01059">
        <ele>738.43</ele>
        <time>2011-04-05T15:20:12Z</time>
      </trkpt>
      <trkpt lat="45.55454" lon="6.01058">
        <ele>737.95</ele>
        <time>2011-04-05T15:20:13Z</time>
      </trkpt>
      <trkpt lat="45.55452" lon="6.01056">
        <ele>737.95</ele>
        <time>2011-04-05T15:20:14Z</time>
      </trkpt>
      <trkpt lat="45.55435" lon="6.01039">
        <ele>736.03</ele>
        <time>2011-04-05T15:20:21Z</time>
      </trkpt>
      <trkpt lat="45.55414" lon="6.01018">
        <ele>733.14</ele>
        <time>2011-04-05T15:20:30Z</time>
      </trkpt>
      <trkpt lat="45.55408" lon="6.01014">
        <ele>730.26</ele>
        <time>2011-04-05T15:20:42Z</time>
      </trkpt>
      <trkpt lat="45.55405" lon="6.01012">
        <ele>728.82</ele>
        <time>2011-04-05T15:20:47Z</time>
      </trkpt>
      <trkpt lat="45.55404" lon="6.01011">
        <ele>728.34</ele>
        <time>2011-04-05T15:20:51Z</time>
      </trkpt>
      <trkpt lat="45.55402" lon="6.01012">
        <ele>727.86</ele>
        <time>2011-04-05T15:20:52Z</time>
      </trkpt>
      <trkpt lat="45.554" lon="6.01012">
        <ele>727.86</ele>
        <time>2011-04-05T15:20:53Z</time>
      </trkpt>
      <trkpt lat="45.55398" lon="6.01011">
        <ele>727.37</ele>
        <time>2011-04-05T15:20:54Z</time>
      </trkpt>
      <trkpt lat="45.55397" lon="6.01011">
        <ele>726.89</ele>
        <time>2011-04-05T15:20:55Z</time>
      </trkpt>
      <trkpt lat="45.55395" lon="6.01011">
        <ele>726.41</ele>
        <time>2011-04-05T15:20:56Z</time>
      </trkpt>
      <trkpt lat="45.55394" lon="6.01013">
        <ele>725.93</ele>
        <time>2011-04-05T15:20:57Z</time>
      </trkpt>
      <trkpt lat="45.55394" lon="6.01015">
        <ele>724.49</ele>
        <time>2011-04-05T15:20:59Z</time>
      </trkpt>
      <trkpt lat="45.55394" lon="6.01018">
        <ele>724.01</ele>
        <time>2011-04-05T15:21:02Z</time>
      </trkpt>
      <trkpt lat="45.55394" lon="6.0102">
        <ele>723.53</ele>
        <time>2011-04-05T15:21:03Z</time>
      </trkpt>
      <trkpt lat="45.55396" lon="6.01028">
        <ele>722.09</ele>
        <time>2011-04-05T15:21:06Z</time>
      </trkpt>
      <trkpt lat="45.55401" lon="6.01036">
        <ele>720.16</ele>
        <time>2011-04-05T15:21:09Z</time>
      </trkpt>
      <trkpt lat="45.55403" lon="6.01042">
        <ele>718.72</ele>
        <time>2011-04-05T15:21:11Z</time>
      </trkpt>
      <trkpt lat="45.55405" lon="6.01049">
        <ele>717.28</ele>
        <time>2011-04-05T15:21:14Z</time>
      </trkpt>
      <trkpt lat="45.55407" lon="6.01066">
        <ele>712.95</ele>
        <time>2011-04-05T15:21:19Z</time>
      </trkpt>
      <trkpt lat="45.55409" lon="6.01086">
        <ele>709.59</ele>
        <time>2011-04-05T15:21:24Z</time>
      </trkpt>
      <trkpt lat="45.55411" lon="6.01108">
        <ele>705.75</ele>
        <time>2011-04-05T15:21:29Z</time>
      </trkpt>
      <trkpt lat="45.55412" lon="6.01112">
        <ele>705.75</ele>
        <time>2011-04-05T15:21:30Z</time>
      </trkpt>
      <trkpt lat="45.55414" lon="6.01127">
        <ele>702.38</ele>
        <time>2011-04-05T15:21:34Z</time>
      </trkpt>
      <trkpt lat="45.55415" lon="6.01135">
        <ele>701.42</ele>
        <time>2011-04-05T15:21:36Z</time>
      </trkpt>
      <trkpt lat="45.55415" lon="6.01146">
        <ele>699.02</ele>
        <time>2011-04-05T15:21:39Z</time>
      </trkpt>
      <trkpt lat="45.55412" lon="6.0115">
        <ele>695.65</ele>
        <time>2011-04-05T15:21:45Z</time>
      </trkpt>
      <trkpt lat="45.55402" lon="6.01145">
        <ele>692.29</ele>
        <time>2011-04-05T15:21:48Z</time>
      </trkpt>
      <trkpt lat="45.55399" lon="6.01141">
        <ele>691.81</ele>
        <time>2011-04-05T15:21:49Z</time>
      </trkpt>
      <trkpt lat="45.55386" lon="6.0113">
        <ele>688.92</ele>
        <time>2011-04-05T15:21:53Z</time>
      </trkpt>
      <trkpt lat="45.55376" lon="6.01121">
        <ele>684.6</ele>
        <time>2011-04-05T15:21:58Z</time>
      </trkpt>
      <trkpt lat="45.55367" lon="6.01114">
        <ele>681.23</ele>
        <time>2011-04-05T15:22:02Z</time>
      </trkpt>
      <trkpt lat="45.55364" lon="6.01114">
        <ele>679.79</ele>
        <time>2011-04-05T15:22:04Z</time>
      </trkpt>
      <trkpt lat="45.55356" lon="6.01111">
        <ele>677.87</ele>
        <time>2011-04-05T15:22:07Z</time>
      </trkpt>
      <trkpt lat="45.55352" lon="6.01113">
        <ele>676.42</ele>
        <time>2011-04-05T15:22:10Z</time>
      </trkpt>
      <trkpt lat="45.55358" lon="6.01124">
        <ele>673.06</ele>
        <time>2011-04-05T15:22:16Z</time>
      </trkpt>
      <trkpt lat="45.55364" lon="6.01148">
        <ele>669.22</ele>
        <time>2011-04-05T15:22:23Z</time>
      </trkpt>
      <trkpt lat="45.55367" lon="6.01164">
        <ele>665.85</ele>
        <time>2011-04-05T15:22:28Z</time>
      </trkpt>
      <trkpt lat="45.55369" lon="6.0118">
        <ele>662.97</ele>
        <time>2011-04-05T15:22:34Z</time>
      </trkpt>
      <trkpt lat="45.55371" lon="6.01184">
        <ele>659.6</ele>
        <time>2011-04-05T15:22:46Z</time>
      </trkpt>
      <trkpt lat="45.55372" lon="6.01196">
        <ele>656.24</ele>
        <time>2011-04-05T15:22:55Z</time>
      </trkpt>
      <trkpt lat="45.55368" lon="6.01196">
        <ele>653.35</ele>
        <time>2011-04-05T15:23:09Z</time>
      </trkpt>
      <trkpt lat="45.55366" lon="6.01194">
        <ele>652.87</ele>
        <time>2011-04-05T15:23:10Z</time>
      </trkpt>
      <trkpt lat="45.55355" lon="6.01191">
        <ele>648.55</ele>
        <time>2011-04-05T15:23:15Z</time>
      </trkpt>
      <trkpt lat="45.5535" lon="6.01192">
        <ele>646.62</ele>
        <time>2011-04-05T15:23:19Z</time>
      </trkpt>
      <trkpt lat="45.55349" lon="6.01192">
        <ele>646.14</ele>
        <time>2011-04-05T15:23:20Z</time>
      </trkpt>
      <trkpt lat="45.5535" lon="6.01194">
        <ele>645.18</ele>
        <time>2011-04-05T15:23:22Z</time>
      </trkpt>
      <trkpt lat="45.55351" lon="6.01195">
        <ele>644.22</ele>
        <time>2011-04-05T15:23:23Z</time>
      </trkpt>
      <trkpt lat="45.55353" lon="6.01201">
        <ele>643.74</ele>
        <time>2011-04-05T15:23:25Z</time>
      </trkpt>
      <trkpt lat="45.55354" lon="6.01204">
        <ele>643.26</ele>
        <time>2011-04-05T15:23:26Z</time>
      </trkpt>
      <trkpt lat="45.55356" lon="6.01214">
        <ele>640.38</ele>
        <time>2011-04-05T15:23:30Z</time>
      </trkpt>
      <trkpt lat="45.55357" lon="6.01218">
        <ele>638.93</ele>
        <time>2011-04-05T15:23:32Z</time>
      </trkpt>
      <trkpt lat="45.5536" lon="6.01224">
        <ele>637.97</ele>
        <time>2011-04-05T15:23:36Z</time>
      </trkpt>
      <trkpt lat="45.55391" lon="6.0126">
        <ele>635.09</ele>
        <time>2011-04-05T15:23:49Z</time>
      </trkpt>
      <trkpt lat="45.5542" lon="6.01289">
        <ele>632.2</ele>
        <time>2011-04-05T15:23:57Z</time>
      </trkpt>
      <trkpt lat="45.55423" lon="6.01294">
        <ele>632.68</ele>
        <time>2011-04-05T15:23:58Z</time>
      </trkpt>
      <trkpt lat="45.55426" lon="6.01299">
        <ele>632.2</ele>
        <time>2011-04-05T15:23:59Z</time>
      </trkpt>
      <trkpt lat="45.55428" lon="6.01304">
        <ele>632.2</ele>
        <time>2011-04-05T15:24:00Z</time>
      </trkpt>
      <trkpt lat="45.55431" lon="6.0131">
        <ele>632.2</ele>
        <time>2011-04-05T15:24:01Z</time>
      </trkpt>
      <trkpt lat="45.55455" lon="6.01344">
        <ele>629.32</ele>
        <time>2011-04-05T15:24:08Z</time>
      </trkpt>
      <trkpt lat="45.55459" lon="6.01348">
        <ele>628.84</ele>
        <time>2011-04-05T15:24:09Z</time>
      </trkpt>
      <trkpt lat="45.55462" lon="6.01353">
        <ele>627.88</ele>
        <time>2011-04-05T15:24:10Z</time>
      </trkpt>
      <trkpt lat="45.55465" lon="6.01358">
        <ele>627.88</ele>
        <time>2011-04-05T15:24:11Z</time>
      </trkpt>
      <trkpt lat="45.55469" lon="6.01363">
        <ele>626.92</ele>
        <time>2011-04-05T15:24:12Z</time>
      </trkpt>
      <trkpt lat="45.55473" lon="6.01367">
        <ele>626.44</ele>
        <time>2011-04-05T15:24:13Z</time>
      </trkpt>
      <trkpt lat="45.55477" lon="6.0137">
        <ele>625.96</ele>
        <time>2011-04-05T15:24:14Z</time>
      </trkpt>
      <trkpt lat="45.55479" lon="6.01374">
        <ele>624.99</ele>
        <time>2011-04-05T15:24:15Z</time>
      </trkpt>
      <trkpt lat="45.55481" lon="6.01377">
        <ele>624.51</ele>
        <time>2011-04-05T15:24:16Z</time>
      </trkpt>
      <trkpt lat="45.55481" lon="6.0138">
        <ele>624.03</ele>
        <time>2011-04-05T15:24:17Z</time>
      </trkpt>
      <trkpt lat="45.5548" lon="6.0138">
        <ele>623.55</ele>
        <time>2011-04-05T15:24:19Z</time>
      </trkpt>
      <trkpt lat="45.55478" lon="6.0138">
        <ele>622.59</ele>
        <time>2011-04-05T15:24:20Z</time>
      </trkpt>
      <trkpt lat="45.55477" lon="6.01379">
        <ele>622.11</ele>
        <time>2011-04-05T15:24:21Z</time>
      </trkpt>
      <trkpt lat="45.55476" lon="6.01379">
        <ele>621.15</ele>
        <time>2011-04-05T15:24:22Z</time>
      </trkpt>
      <trkpt lat="45.55468" lon="6.01379">
        <ele>618.26</ele>
        <time>2011-04-05T15:24:25Z</time>
      </trkpt>
      <trkpt lat="45.5543" lon="6.01351">
        <ele>614.9</ele>
        <time>2011-04-05T15:24:28Z</time>
      </trkpt>
      <trkpt lat="45.55417" lon="6.01345">
        <ele>612.98</ele>
        <time>2011-04-05T15:24:30Z</time>
      </trkpt>
      <trkpt lat="45.5541" lon="6.01343">
        <ele>612.98</ele>
        <time>2011-04-05T15:24:31Z</time>
      </trkpt>
      <trkpt lat="45.55404" lon="6.01343">
        <ele>611.54</ele>
        <time>2011-04-05T15:24:32Z</time>
      </trkpt>
      <trkpt lat="45.5538" lon="6.01343">
        <ele>608.17</ele>
        <time>2011-04-05T15:24:36Z</time>
      </trkpt>
      <trkpt lat="45.55375" lon="6.01342">
        <ele>607.21</ele>
        <time>2011-04-05T15:24:37Z</time>
      </trkpt>
      <trkpt lat="45.55371" lon="6.01343">
        <ele>606.25</ele>
        <time>2011-04-05T15:24:38Z</time>
      </trkpt>
      <trkpt lat="45.55363" lon="6.01346">
        <ele>604.81</ele>
        <time>2011-04-05T15:24:40Z</time>
      </trkpt>
      <trkpt lat="45.55359" lon="6.01351">
        <ele>603.85</ele>
        <time>2011-04-05T15:24:42Z</time>
      </trkpt>
      <trkpt lat="45.55358" lon="6.01358">
        <ele>603.36</ele>
        <time>2011-04-05T15:24:43Z</time>
      </trkpt>
      <trkpt lat="45.55356" lon="6.01374">
        <ele>601.92</ele>
        <time>2011-04-05T15:24:45Z</time>
      </trkpt>
      <trkpt lat="45.55354" lon="6.01383">
        <ele>601.44</ele>
        <time>2011-04-05T15:24:46Z</time>
      </trkpt>
      <trkpt lat="45.55351" lon="6.01398">
        <ele>600</ele>
        <time>2011-04-05T15:24:48Z</time>
      </trkpt>
      <trkpt lat="45.55349" lon="6.01405">
        <ele>600</ele>
        <time>2011-04-05T15:24:49Z</time>
      </trkpt>
      <trkpt lat="45.55332" lon="6.01454">
        <ele>596.64</ele>
        <time>2011-04-05T15:24:55Z</time>
      </trkpt>
      <trkpt lat="45.55321" lon="6.0148">
        <ele>595.19</ele>
        <time>2011-04-05T15:24:58Z</time>
      </trkpt>
      <trkpt lat="45.55314" lon="6.01497">
        <ele>593.75</ele>
        <time>2011-04-05T15:25:00Z</time>
      </trkpt>
      <trkpt lat="45.55298" lon="6.01531">
        <ele>592.79</ele>
        <time>2011-04-05T15:25:04Z</time>
      </trkpt>
      <trkpt lat="45.55293" lon="6.01538">
        <ele>592.79</ele>
        <time>2011-04-05T15:25:05Z</time>
      </trkpt>
      <trkpt lat="45.55289" lon="6.01545">
        <ele>592.79</ele>
        <time>2011-04-05T15:25:06Z</time>
      </trkpt>
      <trkpt lat="45.55286" lon="6.01552">
        <ele>593.27</ele>
        <time>2011-04-05T15:25:07Z</time>
      </trkpt>
      <trkpt lat="45.55282" lon="6.01558">
        <ele>593.75</ele>
        <time>2011-04-05T15:25:08Z</time>
      </trkpt>
      <trkpt lat="45.55278" lon="6.01561">
        <ele>593.75</ele>
        <time>2011-04-05T15:25:09Z</time>
      </trkpt>
      <trkpt lat="45.55274" lon="6.01562">
        <ele>593.75</ele>
        <time>2011-04-05T15:25:10Z</time>
      </trkpt>
      <trkpt lat="45.55269" lon="6.01562">
        <ele>593.75</ele>
        <time>2011-04-05T15:25:11Z</time>
      </trkpt>
      <trkpt lat="45.55264" lon="6.01562">
        <ele>593.27</ele>
        <time>2011-04-05T15:25:12Z</time>
      </trkpt>
      <trkpt lat="45.5526" lon="6.01564">
        <ele>593.75</ele>
        <time>2011-04-05T15:25:13Z</time>
      </trkpt>
      <trkpt lat="45.55232" lon="6.01575">
        <ele>594.71</ele>
        <time>2011-04-05T15:25:20Z</time>
      </trkpt>
      <trkpt lat="45.55228" lon="6.01575">
        <ele>594.23</ele>
        <time>2011-04-05T15:25:21Z</time>
      </trkpt>
      <trkpt lat="45.55224" lon="6.01575">
        <ele>594.71</ele>
        <time>2011-04-05T15:25:22Z</time>
      </trkpt>
      <trkpt lat="45.55201" lon="6.0157">
        <ele>595.19</ele>
        <time>2011-04-05T15:25:32Z</time>
      </trkpt>
      <trkpt lat="45.55197" lon="6.01569">
        <ele>595.19</ele>
        <time>2011-04-05T15:25:47Z</time>
      </trkpt>
      <trkpt lat="45.55195" lon="6.01569">
        <ele>595.67</ele>
        <time>2011-04-05T15:25:48Z</time>
      </trkpt>
      <trkpt lat="45.55194" lon="6.01569">
        <ele>595.67</ele>
        <time>2011-04-05T15:25:49Z</time>
      </trkpt>
      <trkpt lat="45.55193" lon="6.01569">
        <ele>595.19</ele>
        <time>2011-04-05T15:25:50Z</time>
      </trkpt>
      <trkpt lat="45.55191" lon="6.01568">
        <ele>595.19</ele>
        <time>2011-04-05T15:25:51Z</time>
      </trkpt>
      <trkpt lat="45.55188" lon="6.01567">
        <ele>595.19</ele>
        <time>2011-04-05T15:25:52Z</time>
      </trkpt>
      <trkpt lat="45.55173" lon="6.01564">
        <ele>595.19</ele>
        <time>2011-04-05T15:25:56Z</time>
      </trkpt>
      <trkpt lat="45.55108" lon="6.01539">
        <ele>594.71</ele>
        <time>2011-04-05T15:26:10Z</time>
      </trkpt>
      <trkpt lat="45.55103" lon="6.01535">
        <ele>594.71</ele>
        <time>2011-04-05T15:26:11Z</time>
      </trkpt>
      <trkpt lat="45.551" lon="6.0153">
        <ele>594.23</ele>
        <time>2011-04-05T15:26:12Z</time>
      </trkpt>
      <trkpt lat="45.55097" lon="6.01524">
        <ele>594.23</ele>
        <time>2011-04-05T15:26:13Z</time>
      </trkpt>
      <trkpt lat="45.55095" lon="6.01518">
        <ele>593.27</ele>
        <time>2011-04-05T15:26:14Z</time>
      </trkpt>
      <trkpt lat="45.55094" lon="6.01511">
        <ele>593.27</ele>
        <time>2011-04-05T15:26:15Z</time>
      </trkpt>
      <trkpt lat="45.55095" lon="6.01504">
        <ele>592.79</ele>
        <time>2011-04-05T15:26:16Z</time>
      </trkpt>
      <trkpt lat="45.55095" lon="6.01497">
        <ele>592.31</ele>
        <time>2011-04-05T15:26:17Z</time>
      </trkpt>
      <trkpt lat="45.55095" lon="6.0149">
        <ele>592.31</ele>
        <time>2011-04-05T15:26:18Z</time>
      </trkpt>
      <trkpt lat="45.55094" lon="6.01483">
        <ele>591.35</ele>
        <time>2011-04-05T15:26:19Z</time>
      </trkpt>
      <trkpt lat="45.55093" lon="6.01475">
        <ele>590.87</ele>
        <time>2011-04-05T15:26:20Z</time>
      </trkpt>
      <trkpt lat="45.5509" lon="6.01468">
        <ele>590.87</ele>
        <time>2011-04-05T15:26:21Z</time>
      </trkpt>
      <trkpt lat="45.55083" lon="6.01448">
        <ele>590.39</ele>
        <time>2011-04-05T15:26:24Z</time>
      </trkpt>
      <trkpt lat="45.55079" lon="6.01437">
        <ele>589.91</ele>
        <time>2011-04-05T15:26:26Z</time>
      </trkpt>
      <trkpt lat="45.55075" lon="6.01425">
        <ele>589.43</ele>
        <time>2011-04-05T15:26:28Z</time>
      </trkpt>
      <trkpt lat="45.55074" lon="6.01419">
        <ele>589.43</ele>
        <time>2011-04-05T15:26:29Z</time>
      </trkpt>
      <trkpt lat="45.55072" lon="6.01413">
        <ele>589.43</ele>
        <time>2011-04-05T15:26:30Z</time>
      </trkpt>
      <trkpt lat="45.55069" lon="6.01407">
        <ele>588.95</ele>
        <time>2011-04-05T15:26:31Z</time>
      </trkpt>
      <trkpt lat="45.55041" lon="6.01352">
        <ele>587.02</ele>
        <time>2011-04-05T15:26:40Z</time>
      </trkpt>
      <trkpt lat="45.55033" lon="6.01317">
        <ele>585.1</ele>
        <time>2011-04-05T15:26:45Z</time>
      </trkpt>
      <trkpt lat="45.55032" lon="6.0131">
        <ele>584.62</ele>
        <time>2011-04-05T15:26:46Z</time>
      </trkpt>
      <trkpt lat="45.55031" lon="6.01303">
        <ele>584.62</ele>
        <time>2011-04-05T15:26:47Z</time>
      </trkpt>
      <trkpt lat="45.55029" lon="6.01281">
        <ele>583.18</ele>
        <time>2011-04-05T15:26:50Z</time>
      </trkpt>
      <trkpt lat="45.55027" lon="6.01277">
        <ele>583.18</ele>
        <time>2011-04-05T15:26:51Z</time>
      </trkpt>
      <trkpt lat="45.55026" lon="6.01273">
        <ele>583.18</ele>
        <time>2011-04-05T15:26:52Z</time>
      </trkpt>
      <trkpt lat="45.55024" lon="6.01248">
        <ele>582.7</ele>
        <time>2011-04-05T15:26:57Z</time>
      </trkpt>
      <trkpt lat="45.55024" lon="6.01242">
        <ele>582.7</ele>
        <time>2011-04-05T15:26:58Z</time>
      </trkpt>
      <trkpt lat="45.55022" lon="6.01223">
        <ele>581.25</ele>
        <time>2011-04-05T15:27:01Z</time>
      </trkpt>
      <trkpt lat="45.55014" lon="6.01196">
        <ele>580.77</ele>
        <time>2011-04-05T15:27:05Z</time>
      </trkpt>
      <trkpt lat="45.55011" lon="6.01191">
        <ele>580.77</ele>
        <time>2011-04-05T15:27:06Z</time>
      </trkpt>
      <trkpt lat="45.54997" lon="6.01152">
        <ele>580.29</ele>
        <time>2011-04-05T15:27:12Z</time>
      </trkpt>
      <trkpt lat="45.54996" lon="6.01146">
        <ele>580.29</ele>
        <time>2011-04-05T15:27:13Z</time>
      </trkpt>
      <trkpt lat="45.54987" lon="6.01112">
        <ele>579.81</ele>
        <time>2011-04-05T15:27:18Z</time>
      </trkpt>
      <trkpt lat="45.54981" lon="6.01093">
        <ele>578.85</ele>
        <time>2011-04-05T15:27:21Z</time>
      </trkpt>
      <trkpt lat="45.5498" lon="6.01088">
        <ele>579.81</ele>
        <time>2011-04-05T15:27:22Z</time>
      </trkpt>
      <trkpt lat="45.54977" lon="6.01085">
        <ele>579.33</ele>
        <time>2011-04-05T15:27:23Z</time>
      </trkpt>
      <trkpt lat="45.54964" lon="6.01062">
        <ele>581.25</ele>
        <time>2011-04-05T15:27:30Z</time>
      </trkpt>
      <trkpt lat="45.5496" lon="6.01057">
        <ele>581.25</ele>
        <time>2011-04-05T15:27:32Z</time>
      </trkpt>
      <trkpt lat="45.54958" lon="6.01054">
        <ele>581.73</ele>
        <time>2011-04-05T15:27:33Z</time>
      </trkpt>
      <trkpt lat="45.54956" lon="6.0105">
        <ele>581.25</ele>
        <time>2011-04-05T15:27:34Z</time>
      </trkpt>
      <trkpt lat="45.54953" lon="6.01047">
        <ele>581.73</ele>
        <time>2011-04-05T15:27:35Z</time>
      </trkpt>
      <trkpt lat="45.54944" lon="6.01039">
        <ele>581.73</ele>
        <time>2011-04-05T15:27:38Z</time>
      </trkpt>
      <trkpt lat="45.54923" lon="6.0101">
        <ele>583.18</ele>
        <time>2011-04-05T15:27:48Z</time>
      </trkpt>
      <trkpt lat="45.54896" lon="6.00982">
        <ele>582.7</ele>
        <time>2011-04-05T15:27:57Z</time>
      </trkpt>
      <trkpt lat="45.5486" lon="6.00977">
        <ele>582.7</ele>
        <time>2011-04-05T15:28:06Z</time>
      </trkpt>
      <trkpt lat="45.54856" lon="6.00979">
        <ele>583.18</ele>
        <time>2011-04-05T15:28:07Z</time>
      </trkpt>
      <trkpt lat="45.54833" lon="6.00964">
        <ele>583.18</ele>
        <time>2011-04-05T15:28:16Z</time>
      </trkpt>
      <trkpt lat="45.54809" lon="6.00922">
        <ele>580.29</ele>
        <time>2011-04-05T15:28:28Z</time>
      </trkpt>
      <trkpt lat="45.5475" lon="6.00898">
        <ele>579.81</ele>
        <time>2011-04-05T15:28:40Z</time>
      </trkpt>
      <trkpt lat="45.54726" lon="6.00849">
        <ele>576.45</ele>
        <time>2011-04-05T15:28:52Z</time>
      </trkpt>
      <trkpt lat="45.54686" lon="6.00852">
        <ele>574.04</ele>
        <time>2011-04-05T15:29:03Z</time>
      </trkpt>
      <trkpt lat="45.54668" lon="6.00858">
        <ele>571.16</ele>
        <time>2011-04-05T15:29:09Z</time>
      </trkpt>
      <trkpt lat="45.54646" lon="6.00844">
        <ele>566.83</ele>
        <time>2011-04-05T15:29:17Z</time>
      </trkpt>
      <trkpt lat="45.54636" lon="6.00815">
        <ele>563.95</ele>
        <time>2011-04-05T15:29:22Z</time>
      </trkpt>
      <trkpt lat="45.54619" lon="6.00802">
        <ele>560.59</ele>
        <time>2011-04-05T15:29:27Z</time>
      </trkpt>
      <trkpt lat="45.5461" lon="6.00806">
        <ele>556.74</ele>
        <time>2011-04-05T15:29:30Z</time>
      </trkpt>
      <trkpt lat="45.54596" lon="6.00816">
        <ele>553.86</ele>
        <time>2011-04-05T15:29:33Z</time>
      </trkpt>
      <trkpt lat="45.54579" lon="6.00822">
        <ele>550.49</ele>
        <time>2011-04-05T15:29:36Z</time>
      </trkpt>
      <trkpt lat="45.54558" lon="6.00826">
        <ele>546.65</ele>
        <time>2011-04-05T15:29:40Z</time>
      </trkpt>
      <trkpt lat="45.54545" lon="6.00834">
        <ele>542.8</ele>
        <time>2011-04-05T15:29:43Z</time>
      </trkpt>
      <trkpt lat="45.54528" lon="6.00841">
        <ele>539.44</ele>
        <time>2011-04-05T15:29:46Z</time>
      </trkpt>
      <trkpt lat="45.54508" lon="6.00842">
        <ele>536.07</ele>
        <time>2011-04-05T15:29:49Z</time>
      </trkpt>
      <trkpt lat="45.54488" lon="6.00844">
        <ele>533.19</ele>
        <time>2011-04-05T15:29:52Z</time>
      </trkpt>
      <trkpt lat="45.54469" lon="6.00844">
        <ele>530.79</ele>
        <time>2011-04-05T15:29:55Z</time>
      </trkpt>
      <trkpt lat="45.54456" lon="6.00877">
        <ele>527.42</ele>
        <time>2011-04-05T15:30:03Z</time>
      </trkpt>
      <trkpt lat="45.54454" lon="6.00883">
        <ele>526.94</ele>
        <time>2011-04-05T15:30:04Z</time>
      </trkpt>
      <trkpt lat="45.54455" lon="6.00891">
        <ele>526.46</ele>
        <time>2011-04-05T15:30:05Z</time>
      </trkpt>
      <trkpt lat="45.54446" lon="6.0091">
        <ele>525.02</ele>
        <time>2011-04-05T15:30:09Z</time>
      </trkpt>
      <trkpt lat="45.54442" lon="6.00912">
        <ele>524.06</ele>
        <time>2011-04-05T15:30:10Z</time>
      </trkpt>
      <trkpt lat="45.54437" lon="6.00914">
        <ele>523.09</ele>
        <time>2011-04-05T15:30:11Z</time>
      </trkpt>
      <trkpt lat="45.54432" lon="6.00914">
        <ele>522.13</ele>
        <time>2011-04-05T15:30:12Z</time>
      </trkpt>
      <trkpt lat="45.54425" lon="6.00914">
        <ele>521.17</ele>
        <time>2011-04-05T15:30:13Z</time>
      </trkpt>
      <trkpt lat="45.5442" lon="6.00915">
        <ele>520.69</ele>
        <time>2011-04-05T15:30:14Z</time>
      </trkpt>
      <trkpt lat="45.54415" lon="6.00918">
        <ele>518.77</ele>
        <time>2011-04-05T15:30:15Z</time>
      </trkpt>
      <trkpt lat="45.5441" lon="6.00921">
        <ele>518.77</ele>
        <time>2011-04-05T15:30:16Z</time>
      </trkpt>
      <trkpt lat="45.544" lon="6.00928">
        <ele>516.37</ele>
        <time>2011-04-05T15:30:18Z</time>
      </trkpt>
      <trkpt lat="45.54395" lon="6.00929">
        <ele>514.92</ele>
        <time>2011-04-05T15:30:19Z</time>
      </trkpt>
      <trkpt lat="45.5439" lon="6.00927">
        <ele>513</ele>
        <time>2011-04-05T15:30:20Z</time>
      </trkpt>
      <trkpt lat="45.54386" lon="6.00924">
        <ele>513</ele>
        <time>2011-04-05T15:30:21Z</time>
      </trkpt>
      <trkpt lat="45.54382" lon="6.00921">
        <ele>511.56</ele>
        <time>2011-04-05T15:30:22Z</time>
      </trkpt>
      <trkpt lat="45.5438" lon="6.00917">
        <ele>510.6</ele>
        <time>2011-04-05T15:30:23Z</time>
      </trkpt>
      <trkpt lat="45.54378" lon="6.00914">
        <ele>509.16</ele>
        <time>2011-04-05T15:30:24Z</time>
      </trkpt>
      <trkpt lat="45.54378" lon="6.0091">
        <ele>508.67</ele>
        <time>2011-04-05T15:30:25Z</time>
      </trkpt>
      <trkpt lat="45.54379" lon="6.00907">
        <ele>508.67</ele>
        <time>2011-04-05T15:30:26Z</time>
      </trkpt>
      <trkpt lat="45.54381" lon="6.00905">
        <ele>508.19</ele>
        <time>2011-04-05T15:30:27Z</time>
      </trkpt>
      <trkpt lat="45.54384" lon="6.00901">
        <ele>508.19</ele>
        <time>2011-04-05T15:30:28Z</time>
      </trkpt>
      <trkpt lat="45.54386" lon="6.00898">
        <ele>508.19</ele>
        <time>2011-04-05T15:30:29Z</time>
      </trkpt>
      <trkpt lat="45.54389" lon="6.00893">
        <ele>507.71</ele>
        <time>2011-04-05T15:30:30Z</time>
      </trkpt>
      <trkpt lat="45.54393" lon="6.00889">
        <ele>507.23</ele>
        <time>2011-04-05T15:30:31Z</time>
      </trkpt>
      <trkpt lat="45.54401" lon="6.00881">
        <ele>507.71</ele>
        <time>2011-04-05T15:30:33Z</time>
      </trkpt>
      <trkpt lat="45.54403" lon="6.00876">
        <ele>508.19</ele>
        <time>2011-04-05T15:30:34Z</time>
      </trkpt>
      <trkpt lat="45.54406" lon="6.00872">
        <ele>508.19</ele>
        <time>2011-04-05T15:30:35Z</time>
      </trkpt>
      <trkpt lat="45.54409" lon="6.00868">
        <ele>507.71</ele>
        <time>2011-04-05T15:30:36Z</time>
      </trkpt>
      <trkpt lat="45.54413" lon="6.00863">
        <ele>508.19</ele>
        <time>2011-04-05T15:30:37Z</time>
      </trkpt>
      <trkpt lat="45.54415" lon="6.00858">
        <ele>508.19</ele>
        <time>2011-04-05T15:30:38Z</time>
      </trkpt>
      <trkpt lat="45.54418" lon="6.00853">
        <ele>508.67</ele>
        <time>2011-04-05T15:30:39Z</time>
      </trkpt>
      <trkpt lat="45.5442" lon="6.00848">
        <ele>508.67</ele>
        <time>2011-04-05T15:30:40Z</time>
      </trkpt>
      <trkpt lat="45.54421" lon="6.00843">
        <ele>509.16</ele>
        <time>2011-04-05T15:30:41Z</time>
      </trkpt>
      <trkpt lat="45.54421" lon="6.00837">
        <ele>509.16</ele>
        <time>2011-04-05T15:30:42Z</time>
      </trkpt>
      <trkpt lat="45.5442" lon="6.00832">
        <ele>509.16</ele>
        <time>2011-04-05T15:30:43Z</time>
      </trkpt>
      <trkpt lat="45.54418" lon="6.00825">
        <ele>508.19</ele>
        <time>2011-04-05T15:30:44Z</time>
      </trkpt>
      <trkpt lat="45.54416" lon="6.00819">
        <ele>508.19</ele>
        <time>2011-04-05T15:30:45Z</time>
      </trkpt>
      <trkpt lat="45.54413" lon="6.00812">
        <ele>507.71</ele>
        <time>2011-04-05T15:30:46Z</time>
      </trkpt>
      <trkpt lat="45.54401" lon="6.00788">
        <ele>505.79</ele>
        <time>2011-04-05T15:30:49Z</time>
      </trkpt>
      <trkpt lat="45.544" lon="6.00779">
        <ele>505.31</ele>
        <time>2011-04-05T15:30:50Z</time>
      </trkpt>
      <trkpt lat="45.54398" lon="6.0077">
        <ele>503.87</ele>
        <time>2011-04-05T15:30:51Z</time>
      </trkpt>
      <trkpt lat="45.54398" lon="6.00762">
        <ele>502.91</ele>
        <time>2011-04-05T15:30:52Z</time>
      </trkpt>
      <trkpt lat="45.544" lon="6.00755">
        <ele>502.43</ele>
        <time>2011-04-05T15:30:53Z</time>
      </trkpt>
      <trkpt lat="45.54403" lon="6.00749">
        <ele>501.95</ele>
        <time>2011-04-05T15:30:54Z</time>
      </trkpt>
      <trkpt lat="45.54408" lon="6.00745">
        <ele>500.98</ele>
        <time>2011-04-05T15:30:55Z</time>
      </trkpt>
      <trkpt lat="45.54414" lon="6.00743">
        <ele>500.98</ele>
        <time>2011-04-05T15:30:56Z</time>
      </trkpt>
      <trkpt lat="45.5442" lon="6.00743">
        <ele>499.54</ele>
        <time>2011-04-05T15:30:57Z</time>
      </trkpt>
      <trkpt lat="45.54427" lon="6.00743">
        <ele>499.06</ele>
        <time>2011-04-05T15:30:58Z</time>
      </trkpt>
      <trkpt lat="45.54441" lon="6.00741">
        <ele>497.14</ele>
        <time>2011-04-05T15:31:00Z</time>
      </trkpt>
      <trkpt lat="45.54448" lon="6.00738">
        <ele>496.18</ele>
        <time>2011-04-05T15:31:01Z</time>
      </trkpt>
      <trkpt lat="45.54456" lon="6.00734">
        <ele>495.22</ele>
        <time>2011-04-05T15:31:02Z</time>
      </trkpt>
      <trkpt lat="45.54469" lon="6.00722">
        <ele>493.77</ele>
        <time>2011-04-05T15:31:04Z</time>
      </trkpt>
      <trkpt lat="45.5448" lon="6.00711">
        <ele>492.81</ele>
        <time>2011-04-05T15:31:06Z</time>
      </trkpt>
      <trkpt lat="45.54489" lon="6.00699">
        <ele>493.29</ele>
        <time>2011-04-05T15:31:08Z</time>
      </trkpt>
      <trkpt lat="45.54495" lon="6.00689">
        <ele>494.26</ele>
        <time>2011-04-05T15:31:10Z</time>
      </trkpt>
      <trkpt lat="45.545" lon="6.00671">
        <ele>495.22</ele>
        <time>2011-04-05T15:31:13Z</time>
      </trkpt>
      <trkpt lat="45.545" lon="6.00665">
        <ele>495.7</ele>
        <time>2011-04-05T15:31:14Z</time>
      </trkpt>
      <trkpt lat="45.54495" lon="6.00643">
        <ele>495.22</ele>
        <time>2011-04-05T15:31:17Z</time>
      </trkpt>
      <trkpt lat="45.54491" lon="6.00636">
        <ele>495.7</ele>
        <time>2011-04-05T15:31:18Z</time>
      </trkpt>
      <trkpt lat="45.54488" lon="6.0063">
        <ele>495.22</ele>
        <time>2011-04-05T15:31:19Z</time>
      </trkpt>
      <trkpt lat="45.54484" lon="6.00624">
        <ele>495.22</ele>
        <time>2011-04-05T15:31:20Z</time>
      </trkpt>
      <trkpt lat="45.5448" lon="6.00619">
        <ele>495.22</ele>
        <time>2011-04-05T15:31:21Z</time>
      </trkpt>
      <trkpt lat="45.54478" lon="6.00613">
        <ele>496.18</ele>
        <time>2011-04-05T15:31:22Z</time>
      </trkpt>
      <trkpt lat="45.54478" lon="6.00606">
        <ele>496.18</ele>
        <time>2011-04-05T15:31:23Z</time>
      </trkpt>
      <trkpt lat="45.5448" lon="6.006">
        <ele>496.18</ele>
        <time>2011-04-05T15:31:24Z</time>
      </trkpt>
      <trkpt lat="45.54483" lon="6.00595">
        <ele>496.66</ele>
        <time>2011-04-05T15:31:25Z</time>
      </trkpt>
      <trkpt lat="45.54487" lon="6.00591">
        <ele>496.18</ele>
        <time>2011-04-05T15:31:26Z</time>
      </trkpt>
      <trkpt lat="45.54491" lon="6.00585">
        <ele>495.7</ele>
        <time>2011-04-05T15:31:27Z</time>
      </trkpt>
      <trkpt lat="45.54494" lon="6.0058">
        <ele>495.7</ele>
        <time>2011-04-05T15:31:28Z</time>
      </trkpt>
      <trkpt lat="45.54498" lon="6.00574">
        <ele>495.7</ele>
        <time>2011-04-05T15:31:29Z</time>
      </trkpt>
      <trkpt lat="45.54503" lon="6.0057">
        <ele>495.7</ele>
        <time>2011-04-05T15:31:30Z</time>
      </trkpt>
      <trkpt lat="45.54509" lon="6.00566">
        <ele>494.74</ele>
        <time>2011-04-05T15:31:31Z</time>
      </trkpt>
      <trkpt lat="45.54516" lon="6.00564">
        <ele>493.77</ele>
        <time>2011-04-05T15:31:32Z</time>
      </trkpt>
      <trkpt lat="45.54523" lon="6.00563">
        <ele>493.77</ele>
        <time>2011-04-05T15:31:33Z</time>
      </trkpt>
      <trkpt lat="45.5453" lon="6.00564">
        <ele>493.29</ele>
        <time>2011-04-05T15:31:34Z</time>
      </trkpt>
      <trkpt lat="45.54537" lon="6.00566">
        <ele>493.29</ele>
        <time>2011-04-05T15:31:35Z</time>
      </trkpt>
      <trkpt lat="45.54558" lon="6.0057">
        <ele>492.33</ele>
        <time>2011-04-05T15:31:40Z</time>
      </trkpt>
      <trkpt lat="45.54559" lon="6.00567">
        <ele>491.85</ele>
        <time>2011-04-05T15:31:41Z</time>
      </trkpt>
      <trkpt lat="45.54558" lon="6.00563">
        <ele>492.33</ele>
        <time>2011-04-05T15:31:42Z</time>
      </trkpt>
      <trkpt lat="45.54555" lon="6.0056">
        <ele>491.85</ele>
        <time>2011-04-05T15:31:43Z</time>
      </trkpt>
      <trkpt lat="45.54551" lon="6.00557">
        <ele>491.85</ele>
        <time>2011-04-05T15:31:44Z</time>
      </trkpt>
      <trkpt lat="45.54546" lon="6.00555">
        <ele>491.85</ele>
        <time>2011-04-05T15:31:45Z</time>
      </trkpt>
      <trkpt lat="45.54522" lon="6.00544">
        <ele>491.85</ele>
        <time>2011-04-05T15:31:49Z</time>
      </trkpt>
      <trkpt lat="45.54515" lon="6.00543">
        <ele>488.49</ele>
        <time>2011-04-05T15:31:50Z</time>
      </trkpt>
      <trkpt lat="45.54508" lon="6.00544">
        <ele>487.53</ele>
        <time>2011-04-05T15:31:51Z</time>
      </trkpt>
      <trkpt lat="45.545" lon="6.00548">
        <ele>486.56</ele>
        <time>2011-04-05T15:31:52Z</time>
      </trkpt>
      <trkpt lat="45.54493" lon="6.00552">
        <ele>486.56</ele>
        <time>2011-04-05T15:31:53Z</time>
      </trkpt>
      <trkpt lat="45.54461" lon="6.00574">
        <ele>483.2</ele>
        <time>2011-04-05T15:31:57Z</time>
      </trkpt>
      <trkpt lat="45.54454" lon="6.00582">
        <ele>482.72</ele>
        <time>2011-04-05T15:31:58Z</time>
      </trkpt>
      <trkpt lat="45.54448" lon="6.00591">
        <ele>482.24</ele>
        <time>2011-04-05T15:31:59Z</time>
      </trkpt>
      <trkpt lat="45.54444" lon="6.00602">
        <ele>481.28</ele>
        <time>2011-04-05T15:32:00Z</time>
      </trkpt>
      <trkpt lat="45.54442" lon="6.00615">
        <ele>480.8</ele>
        <time>2011-04-05T15:32:01Z</time>
      </trkpt>
      <trkpt lat="45.5444" lon="6.00628">
        <ele>480.32</ele>
        <time>2011-04-05T15:32:02Z</time>
      </trkpt>
      <trkpt lat="45.54438" lon="6.0064">
        <ele>478.87</ele>
        <time>2011-04-05T15:32:03Z</time>
      </trkpt>
      <trkpt lat="45.54433" lon="6.00651">
        <ele>477.43</ele>
        <time>2011-04-05T15:32:04Z</time>
      </trkpt>
      <trkpt lat="45.54427" lon="6.0066">
        <ele>476.95</ele>
        <time>2011-04-05T15:32:05Z</time>
      </trkpt>
      <trkpt lat="45.54418" lon="6.00665">
        <ele>476.47</ele>
        <time>2011-04-05T15:32:06Z</time>
      </trkpt>
      <trkpt lat="45.54408" lon="6.00668">
        <ele>475.51</ele>
        <time>2011-04-05T15:32:07Z</time>
      </trkpt>
      <trkpt lat="45.54398" lon="6.0067">
        <ele>474.55</ele>
        <time>2011-04-05T15:32:08Z</time>
      </trkpt>
      <trkpt lat="45.54357" lon="6.00677">
        <ele>471.18</ele>
        <time>2011-04-05T15:32:12Z</time>
      </trkpt>
      <trkpt lat="45.54335" lon="6.0068">
        <ele>468.78</ele>
        <time>2011-04-05T15:32:14Z</time>
      </trkpt>
      <trkpt lat="45.54305" lon="6.00692">
        <ele>466.38</ele>
        <time>2011-04-05T15:32:17Z</time>
      </trkpt>
      <trkpt lat="45.54297" lon="6.00697">
        <ele>464.93</ele>
        <time>2011-04-05T15:32:18Z</time>
      </trkpt>
      <trkpt lat="45.54289" lon="6.00703">
        <ele>464.45</ele>
        <time>2011-04-05T15:32:19Z</time>
      </trkpt>
      <trkpt lat="45.54272" lon="6.00717">
        <ele>462.53</ele>
        <time>2011-04-05T15:32:22Z</time>
      </trkpt>
      <trkpt lat="45.54267" lon="6.00718">
        <ele>461.57</ele>
        <time>2011-04-05T15:32:23Z</time>
      </trkpt>
      <trkpt lat="45.54262" lon="6.00717">
        <ele>461.09</ele>
        <time>2011-04-05T15:32:24Z</time>
      </trkpt>
      <trkpt lat="45.54261" lon="6.00712">
        <ele>460.61</ele>
        <time>2011-04-05T15:32:25Z</time>
      </trkpt>
      <trkpt lat="45.54263" lon="6.00704">
        <ele>460.13</ele>
        <time>2011-04-05T15:32:26Z</time>
      </trkpt>
      <trkpt lat="45.54268" lon="6.00697">
        <ele>460.13</ele>
        <time>2011-04-05T15:32:27Z</time>
      </trkpt>
      <trkpt lat="45.54273" lon="6.00691">
        <ele>459.65</ele>
        <time>2011-04-05T15:32:28Z</time>
      </trkpt>
      <trkpt lat="45.54289" lon="6.00669">
        <ele>458.21</ele>
        <time>2011-04-05T15:32:31Z</time>
      </trkpt>
      <trkpt lat="45.54296" lon="6.00664">
        <ele>458.21</ele>
        <time>2011-04-05T15:32:32Z</time>
      </trkpt>
      <trkpt lat="45.54303" lon="6.0066">
        <ele>457.72</ele>
        <time>2011-04-05T15:32:33Z</time>
      </trkpt>
      <trkpt lat="45.54309" lon="6.00656">
        <ele>457.72</ele>
        <time>2011-04-05T15:32:34Z</time>
      </trkpt>
      <trkpt lat="45.54313" lon="6.0065">
        <ele>456.76</ele>
        <time>2011-04-05T15:32:35Z</time>
      </trkpt>
      <trkpt lat="45.54314" lon="6.00643">
        <ele>456.28</ele>
        <time>2011-04-05T15:32:36Z</time>
      </trkpt>
      <trkpt lat="45.54312" lon="6.00637">
        <ele>455.8</ele>
        <time>2011-04-05T15:32:37Z</time>
      </trkpt>
      <trkpt lat="45.54307" lon="6.00633">
        <ele>455.8</ele>
        <time>2011-04-05T15:32:38Z</time>
      </trkpt>
      <trkpt lat="45.54301" lon="6.00631">
        <ele>455.32</ele>
        <time>2011-04-05T15:32:39Z</time>
      </trkpt>
      <trkpt lat="45.54294" lon="6.00632">
        <ele>455.32</ele>
        <time>2011-04-05T15:32:40Z</time>
      </trkpt>
      <trkpt lat="45.54288" lon="6.00634">
        <ele>454.36</ele>
        <time>2011-04-05T15:32:41Z</time>
      </trkpt>
      <trkpt lat="45.54281" lon="6.00636">
        <ele>454.36</ele>
        <time>2011-04-05T15:32:42Z</time>
      </trkpt>
      <trkpt lat="45.54247" lon="6.00642">
        <ele>451.48</ele>
        <time>2011-04-05T15:32:46Z</time>
      </trkpt>
      <trkpt lat="45.54239" lon="6.00645">
        <ele>451</ele>
        <time>2011-04-05T15:32:47Z</time>
      </trkpt>
      <trkpt lat="45.54225" lon="6.00652">
        <ele>449.55</ele>
        <time>2011-04-05T15:32:49Z</time>
      </trkpt>
      <trkpt lat="45.54213" lon="6.00654">
        <ele>447.63</ele>
        <time>2011-04-05T15:32:51Z</time>
      </trkpt>
      <trkpt lat="45.54209" lon="6.00653">
        <ele>448.11</ele>
        <time>2011-04-05T15:32:52Z</time>
      </trkpt>
      <trkpt lat="45.54205" lon="6.00651">
        <ele>447.15</ele>
        <time>2011-04-05T15:32:53Z</time>
      </trkpt>
      <trkpt lat="45.54202" lon="6.00646">
        <ele>446.19</ele>
        <time>2011-04-05T15:32:54Z</time>
      </trkpt>
      <trkpt lat="45.54199" lon="6.0064">
        <ele>445.23</ele>
        <time>2011-04-05T15:32:55Z</time>
      </trkpt>
      <trkpt lat="45.54197" lon="6.00633">
        <ele>444.27</ele>
        <time>2011-04-05T15:32:56Z</time>
      </trkpt>
      <trkpt lat="45.54197" lon="6.00624">
        <ele>443.79</ele>
        <time>2011-04-05T15:32:57Z</time>
      </trkpt>
      <trkpt lat="45.54197" lon="6.00615">
        <ele>442.82</ele>
        <time>2011-04-05T15:32:58Z</time>
      </trkpt>
      <trkpt lat="45.542" lon="6.00591">
        <ele>440.42</ele>
        <time>2011-04-05T15:33:01Z</time>
      </trkpt>
      <trkpt lat="45.542" lon="6.00586">
        <ele>438.98</ele>
        <time>2011-04-05T15:33:02Z</time>
      </trkpt>
      <trkpt lat="45.54201" lon="6.00581">
        <ele>438.5</ele>
        <time>2011-04-05T15:33:03Z</time>
      </trkpt>
      <trkpt lat="45.54199" lon="6.00577">
        <ele>438.5</ele>
        <time>2011-04-05T15:33:04Z</time>
      </trkpt>
      <trkpt lat="45.54196" lon="6.00573">
        <ele>438.5</ele>
        <time>2011-04-05T15:33:05Z</time>
      </trkpt>
      <trkpt lat="45.54192" lon="6.00569">
        <ele>437.54</ele>
        <time>2011-04-05T15:33:06Z</time>
      </trkpt>
      <trkpt lat="45.54187" lon="6.00566">
        <ele>437.06</ele>
        <time>2011-04-05T15:33:07Z</time>
      </trkpt>
      <trkpt lat="45.54175" lon="6.0056">
        <ele>435.61</ele>
        <time>2011-04-05T15:33:09Z</time>
      </trkpt>
      <trkpt lat="45.54163" lon="6.00553">
        <ele>434.17</ele>
        <time>2011-04-05T15:33:11Z</time>
      </trkpt>
      <trkpt lat="45.54158" lon="6.00549">
        <ele>433.21</ele>
        <time>2011-04-05T15:33:12Z</time>
      </trkpt>
      <trkpt lat="45.54148" lon="6.00539">
        <ele>432.25</ele>
        <time>2011-04-05T15:33:14Z</time>
      </trkpt>
      <trkpt lat="45.54136" lon="6.0053">
        <ele>430.81</ele>
        <time>2011-04-05T15:33:16Z</time>
      </trkpt>
      <trkpt lat="45.54129" lon="6.00527">
        <ele>430.33</ele>
        <time>2011-04-05T15:33:17Z</time>
      </trkpt>
      <trkpt lat="45.54097" lon="6.00515">
        <ele>427.44</ele>
        <time>2011-04-05T15:33:22Z</time>
      </trkpt>
      <trkpt lat="45.54081" lon="6.0051">
        <ele>426.48</ele>
        <time>2011-04-05T15:33:25Z</time>
      </trkpt>
      <trkpt lat="45.54076" lon="6.0051">
        <ele>426</ele>
        <time>2011-04-05T15:33:26Z</time>
      </trkpt>
      <trkpt lat="45.54063" lon="6.00512">
        <ele>425.04</ele>
        <time>2011-04-05T15:33:28Z</time>
      </trkpt>
      <trkpt lat="45.54022" lon="6.00509">
        <ele>422.16</ele>
        <time>2011-04-05T15:33:34Z</time>
      </trkpt>
      <trkpt lat="45.53991" lon="6.00509">
        <ele>420.23</ele>
        <time>2011-04-05T15:33:39Z</time>
      </trkpt>
      <trkpt lat="45.53962" lon="6.00519">
        <ele>419.75</ele>
        <time>2011-04-05T15:33:49Z</time>
      </trkpt>
      <trkpt lat="45.5395" lon="6.00525">
        <ele>419.75</ele>
        <time>2011-04-05T15:33:52Z</time>
      </trkpt>
      <trkpt lat="45.53946" lon="6.00526">
        <ele>420.23</ele>
        <time>2011-04-05T15:33:53Z</time>
      </trkpt>
      <trkpt lat="45.53941" lon="6.00527">
        <ele>420.23</ele>
        <time>2011-04-05T15:33:54Z</time>
      </trkpt>
      <trkpt lat="45.53937" lon="6.00527">
        <ele>420.71</ele>
        <time>2011-04-05T15:33:55Z</time>
      </trkpt>
      <trkpt lat="45.53933" lon="6.00526">
        <ele>420.71</ele>
        <time>2011-04-05T15:33:56Z</time>
      </trkpt>
      <trkpt lat="45.53917" lon="6.00526">
        <ele>421.19</ele>
        <time>2011-04-05T15:34:00Z</time>
      </trkpt>
      <trkpt lat="45.53873" lon="6.00529">
        <ele>424.56</ele>
        <time>2011-04-05T15:34:13Z</time>
      </trkpt>
      <trkpt lat="45.53833" lon="6.00543">
        <ele>426.96</ele>
        <time>2011-04-05T15:34:28Z</time>
      </trkpt>
      <trkpt lat="45.53801" lon="6.00549">
        <ele>429.85</ele>
        <time>2011-04-05T15:34:41Z</time>
      </trkpt>
      <trkpt lat="45.53752" lon="6.0054">
        <ele>431.77</ele>
        <time>2011-04-05T15:34:59Z</time>
      </trkpt>
      <trkpt lat="45.53688" lon="6.00541">
        <ele>434.17</ele>
        <time>2011-04-05T15:35:19Z</time>
      </trkpt>
      <trkpt lat="45.53628" lon="6.00554">
        <ele>436.58</ele>
        <time>2011-04-05T15:35:39Z</time>
      </trkpt>
      <trkpt lat="45.53581" lon="6.00564">
        <ele>438.98</ele>
        <time>2011-04-05T15:35:57Z</time>
      </trkpt>
      <trkpt lat="45.53522" lon="6.00576">
        <ele>441.38</ele>
        <time>2011-04-05T15:36:16Z</time>
      </trkpt>
      <trkpt lat="45.53483" lon="6.00576">
        <ele>444.27</ele>
        <time>2011-04-05T15:36:31Z</time>
      </trkpt>
      <trkpt lat="45.53475" lon="6.00574">
        <ele>445.23</ele>
        <time>2011-04-05T15:36:35Z</time>
      </trkpt>
      <trkpt lat="45.53447" lon="6.00588">
        <ele>446.19</ele>
        <time>2011-04-05T15:36:46Z</time>
      </trkpt>
      <trkpt lat="45.53389" lon="6.00596">
        <ele>443.31</ele>
        <time>2011-04-05T15:36:58Z</time>
      </trkpt>
      <trkpt lat="45.5335" lon="6.00592">
        <ele>440.42</ele>
        <time>2011-04-05T15:37:04Z</time>
      </trkpt>
      <trkpt lat="45.53342" lon="6.00591">
        <ele>440.42</ele>
        <time>2011-04-05T15:37:05Z</time>
      </trkpt>
      <trkpt lat="45.53295" lon="6.00585">
        <ele>437.06</ele>
        <time>2011-04-05T15:37:11Z</time>
      </trkpt>
      <trkpt lat="45.53235" lon="6.00576">
        <ele>438.02</ele>
        <time>2011-04-05T15:37:21Z</time>
      </trkpt>
      <trkpt lat="45.53197" lon="6.00565">
        <ele>437.06</ele>
        <time>2011-04-05T15:37:29Z</time>
      </trkpt>
      <trkpt lat="45.53192" lon="6.00563">
        <ele>436.58</ele>
        <time>2011-04-05T15:37:30Z</time>
      </trkpt>
      <trkpt lat="45.53188" lon="6.00561">
        <ele>437.06</ele>
        <time>2011-04-05T15:37:31Z</time>
      </trkpt>
      <trkpt lat="45.53184" lon="6.00557">
        <ele>437.54</ele>
        <time>2011-04-05T15:37:32Z</time>
      </trkpt>
      <trkpt lat="45.5318" lon="6.00553">
        <ele>437.54</ele>
        <time>2011-04-05T15:37:33Z</time>
      </trkpt>
      <trkpt lat="45.53176" lon="6.0055">
        <ele>437.54</ele>
        <time>2011-04-05T15:37:34Z</time>
      </trkpt>
      <trkpt lat="45.53122" lon="6.00488">
        <ele>439.46</ele>
        <time>2011-04-05T15:37:52Z</time>
      </trkpt>
      <trkpt lat="45.53121" lon="6.00464">
        <ele>441.86</ele>
        <time>2011-04-05T15:38:02Z</time>
      </trkpt>
      <trkpt lat="45.53134" lon="6.00449">
        <ele>444.75</ele>
        <time>2011-04-05T15:38:13Z</time>
      </trkpt>
      <trkpt lat="45.53131" lon="6.00442">
        <ele>444.75</ele>
        <time>2011-04-05T15:38:17Z</time>
      </trkpt>
      <trkpt lat="45.53106" lon="6.00401">
        <ele>446.19</ele>
        <time>2011-04-05T15:38:34Z</time>
      </trkpt>
      <trkpt lat="45.5308" lon="6.00372">
        <ele>445.71</ele>
        <time>2011-04-05T15:38:47Z</time>
      </trkpt>
      <trkpt lat="45.53054" lon="6.00335">
        <ele>448.11</ele>
        <time>2011-04-05T15:39:04Z</time>
      </trkpt>
      <trkpt lat="45.53049" lon="6.00321">
        <ele>451</ele>
        <time>2011-04-05T15:39:13Z</time>
      </trkpt>
      <trkpt lat="45.53044" lon="6.00312">
        <ele>453.4</ele>
        <time>2011-04-05T15:39:26Z</time>
      </trkpt>
      <trkpt lat="45.53041" lon="6.003">
        <ele>455.8</ele>
        <time>2011-04-05T15:39:37Z</time>
      </trkpt>
      <trkpt lat="45.53038" lon="6.00287">
        <ele>456.28</ele>
        <time>2011-04-05T15:39:48Z</time>
      </trkpt>
      <trkpt lat="45.53028" lon="6.00251">
        <ele>454.84</ele>
        <time>2011-04-05T15:40:00Z</time>
      </trkpt>
      <trkpt lat="45.53021" lon="6.00231">
        <ele>452.92</ele>
        <time>2011-04-05T15:40:03Z</time>
      </trkpt>
      <trkpt lat="45.53017" lon="6.00215">
        <ele>451.48</ele>
        <time>2011-04-05T15:40:05Z</time>
      </trkpt>
      <trkpt lat="45.53013" lon="6.00196">
        <ele>448.59</ele>
        <time>2011-04-05T15:40:07Z</time>
      </trkpt>
      <trkpt lat="45.53009" lon="6.00179">
        <ele>446.67</ele>
        <time>2011-04-05T15:40:09Z</time>
      </trkpt>
      <trkpt lat="45.53008" lon="6.00172">
        <ele>446.19</ele>
        <time>2011-04-05T15:40:10Z</time>
      </trkpt>
      <trkpt lat="45.53006" lon="6.00155">
        <ele>444.27</ele>
        <time>2011-04-05T15:40:13Z</time>
      </trkpt>
      <trkpt lat="45.53006" lon="6.0015">
        <ele>444.27</ele>
        <time>2011-04-05T15:40:14Z</time>
      </trkpt>
      <trkpt lat="45.53008" lon="6.00144">
        <ele>443.31</ele>
        <time>2011-04-05T15:40:15Z</time>
      </trkpt>
      <trkpt lat="45.53011" lon="6.00139">
        <ele>442.34</ele>
        <time>2011-04-05T15:40:16Z</time>
      </trkpt>
      <trkpt lat="45.53013" lon="6.00133">
        <ele>442.34</ele>
        <time>2011-04-05T15:40:17Z</time>
      </trkpt>
      <trkpt lat="45.53016" lon="6.00127">
        <ele>442.34</ele>
        <time>2011-04-05T15:40:18Z</time>
      </trkpt>
      <trkpt lat="45.53018" lon="6.00122">
        <ele>441.38</ele>
        <time>2011-04-05T15:40:19Z</time>
      </trkpt>
      <trkpt lat="45.53021" lon="6.00115">
        <ele>441.86</ele>
        <time>2011-04-05T15:40:20Z</time>
      </trkpt>
      <trkpt lat="45.53024" lon="6.00109">
        <ele>440.9</ele>
        <time>2011-04-05T15:40:21Z</time>
      </trkpt>
      <trkpt lat="45.53027" lon="6.00103">
        <ele>440.9</ele>
        <time>2011-04-05T15:40:22Z</time>
      </trkpt>
      <trkpt lat="45.5303" lon="6.00097">
        <ele>439.94</ele>
        <time>2011-04-05T15:40:23Z</time>
      </trkpt>
      <trkpt lat="45.53031" lon="6.00091">
        <ele>439.46</ele>
        <time>2011-04-05T15:40:24Z</time>
      </trkpt>
      <trkpt lat="45.53031" lon="6.00086">
        <ele>438.5</ele>
        <time>2011-04-05T15:40:25Z</time>
      </trkpt>
      <trkpt lat="45.5303" lon="6.00082">
        <ele>437.54</ele>
        <time>2011-04-05T15:40:26Z</time>
      </trkpt>
      <trkpt lat="45.53027" lon="6.0008">
        <ele>437.06</ele>
        <time>2011-04-05T15:40:27Z</time>
      </trkpt>
      <trkpt lat="45.53024" lon="6.0008">
        <ele>436.58</ele>
        <time>2011-04-05T15:40:28Z</time>
      </trkpt>
      <trkpt lat="45.5302" lon="6.00082">
        <ele>435.61</ele>
        <time>2011-04-05T15:40:29Z</time>
      </trkpt>
      <trkpt lat="45.53015" lon="6.00086">
        <ele>435.13</ele>
        <time>2011-04-05T15:40:30Z</time>
      </trkpt>
      <trkpt lat="45.5301" lon="6.0009">
        <ele>434.65</ele>
        <time>2011-04-05T15:40:31Z</time>
      </trkpt>
      <trkpt lat="45.53004" lon="6.00094">
        <ele>433.21</ele>
        <time>2011-04-05T15:40:32Z</time>
      </trkpt>
      <trkpt lat="45.52997" lon="6.00098">
        <ele>432.25</ele>
        <time>2011-04-05T15:40:33Z</time>
      </trkpt>
      <trkpt lat="45.52962" lon="6.00119">
        <ele>430.33</ele>
        <time>2011-04-05T15:40:38Z</time>
      </trkpt>
      <trkpt lat="45.52948" lon="6.00127">
        <ele>430.33</ele>
        <time>2011-04-05T15:40:40Z</time>
      </trkpt>
      <trkpt lat="45.52906" lon="6.00151">
        <ele>430.33</ele>
        <time>2011-04-05T15:40:47Z</time>
      </trkpt>
      <trkpt lat="45.52901" lon="6.0015">
        <ele>429.85</ele>
        <time>2011-04-05T15:40:48Z</time>
      </trkpt>
      <trkpt lat="45.52897" lon="6.00147">
        <ele>430.33</ele>
        <time>2011-04-05T15:40:49Z</time>
      </trkpt>
      <trkpt lat="45.52893" lon="6.00145">
        <ele>429.85</ele>
        <time>2011-04-05T15:40:50Z</time>
      </trkpt>
      <trkpt lat="45.5289" lon="6.00143">
        <ele>429.85</ele>
        <time>2011-04-05T15:40:51Z</time>
      </trkpt>
      <trkpt lat="45.52887" lon="6.00143">
        <ele>429.85</ele>
        <time>2011-04-05T15:40:52Z</time>
      </trkpt>
      <trkpt lat="45.52885" lon="6.00144">
        <ele>430.33</ele>
        <time>2011-04-05T15:40:53Z</time>
      </trkpt>
      <trkpt lat="45.52883" lon="6.00145">
        <ele>430.81</ele>
        <time>2011-04-05T15:40:54Z</time>
      </trkpt>
      <trkpt lat="45.5288" lon="6.00145">
        <ele>430.81</ele>
        <time>2011-04-05T15:40:55Z</time>
      </trkpt>
      <trkpt lat="45.52877" lon="6.00147">
        <ele>431.77</ele>
        <time>2011-04-05T15:40:56Z</time>
      </trkpt>
      <trkpt lat="45.52874" lon="6.0015">
        <ele>431.77</ele>
        <time>2011-04-05T15:40:57Z</time>
      </trkpt>
      <trkpt lat="45.52872" lon="6.00154">
        <ele>431.77</ele>
        <time>2011-04-05T15:40:58Z</time>
      </trkpt>
      <trkpt lat="45.52869" lon="6.00156">
        <ele>432.25</ele>
        <time>2011-04-05T15:40:59Z</time>
      </trkpt>
      <trkpt lat="45.52848" lon="6.00171">
        <ele>431.29</ele>
        <time>2011-04-05T15:41:05Z</time>
      </trkpt>
      <trkpt lat="45.52839" lon="6.00176">
        <ele>431.29</ele>
        <time>2011-04-05T15:41:07Z</time>
      </trkpt>
      <trkpt lat="45.52819" lon="6.00192">
        <ele>429.37</ele>
        <time>2011-04-05T15:41:11Z</time>
      </trkpt>
      <trkpt lat="45.52816" lon="6.00197">
        <ele>428.89</ele>
        <time>2011-04-05T15:41:12Z</time>
      </trkpt>
      <trkpt lat="45.52814" lon="6.00202">
        <ele>428.4</ele>
        <time>2011-04-05T15:41:13Z</time>
      </trkpt>
      <trkpt lat="45.52813" lon="6.00208">
        <ele>427.44</ele>
        <time>2011-04-05T15:41:14Z</time>
      </trkpt>
      <trkpt lat="45.52811" lon="6.00212">
        <ele>426.96</ele>
        <time>2011-04-05T15:41:15Z</time>
      </trkpt>
      <trkpt lat="45.5281" lon="6.00216">
        <ele>426.96</ele>
        <time>2011-04-05T15:41:16Z</time>
      </trkpt>
      <trkpt lat="45.52806" lon="6.00218">
        <ele>426.96</ele>
        <time>2011-04-05T15:41:17Z</time>
      </trkpt>
      <trkpt lat="45.52802" lon="6.00219">
        <ele>426</ele>
        <time>2011-04-05T15:41:18Z</time>
      </trkpt>
      <trkpt lat="45.52789" lon="6.00224">
        <ele>426</ele>
        <time>2011-04-05T15:41:21Z</time>
      </trkpt>
      <trkpt lat="45.52723" lon="6.00247">
        <ele>426.48</ele>
        <time>2011-04-05T15:41:34Z</time>
      </trkpt>
      <trkpt lat="45.52653" lon="6.00255">
        <ele>427.92</ele>
        <time>2011-04-05T15:41:48Z</time>
      </trkpt>
      <trkpt lat="45.52645" lon="6.00255">
        <ele>428.4</ele>
        <time>2011-04-05T15:41:50Z</time>
      </trkpt>
      <trkpt lat="45.52589" lon="6.00268">
        <ele>429.85</ele>
        <time>2011-04-05T15:42:05Z</time>
      </trkpt>
      <trkpt lat="45.52564" lon="6.0028">
        <ele>427.92</ele>
        <time>2011-04-05T15:42:10Z</time>
      </trkpt>
      <trkpt lat="45.5254" lon="6.0029">
        <ele>424.56</ele>
        <time>2011-04-05T15:42:14Z</time>
      </trkpt>
      <trkpt lat="45.52523" lon="6.00297">
        <ele>421.19</ele>
        <time>2011-04-05T15:42:17Z</time>
      </trkpt>
      <trkpt lat="45.52512" lon="6.00301">
        <ele>419.75</ele>
        <time>2011-04-05T15:42:19Z</time>
      </trkpt>
      <trkpt lat="45.52507" lon="6.00304">
        <ele>417.83</ele>
        <time>2011-04-05T15:42:20Z</time>
      </trkpt>
      <trkpt lat="45.52496" lon="6.00309">
        <ele>416.87</ele>
        <time>2011-04-05T15:42:22Z</time>
      </trkpt>
      <trkpt lat="45.52487" lon="6.00311">
        <ele>415.43</ele>
        <time>2011-04-05T15:42:24Z</time>
      </trkpt>
      <trkpt lat="45.52483" lon="6.00307">
        <ele>415.43</ele>
        <time>2011-04-05T15:42:25Z</time>
      </trkpt>
      <trkpt lat="45.52481" lon="6.00301">
        <ele>414.47</ele>
        <time>2011-04-05T15:42:26Z</time>
      </trkpt>
      <trkpt lat="45.52478" lon="6.00295">
        <ele>413.5</ele>
        <time>2011-04-05T15:42:27Z</time>
      </trkpt>
      <trkpt lat="45.52475" lon="6.00288">
        <ele>413.98</ele>
        <time>2011-04-05T15:42:28Z</time>
      </trkpt>
      <trkpt lat="45.52473" lon="6.00282">
        <ele>413.98</ele>
        <time>2011-04-05T15:42:29Z</time>
      </trkpt>
      <trkpt lat="45.52472" lon="6.00276">
        <ele>414.47</ele>
        <time>2011-04-05T15:42:30Z</time>
      </trkpt>
      <trkpt lat="45.52467" lon="6.00245">
        <ele>413.02</ele>
        <time>2011-04-05T15:42:34Z</time>
      </trkpt>
      <trkpt lat="45.52462" lon="6.00148">
        <ele>411.58</ele>
        <time>2011-04-05T15:42:46Z</time>
      </trkpt>
      <trkpt lat="45.52448" lon="6.00091">
        <ele>409.18</ele>
        <time>2011-04-05T15:42:53Z</time>
      </trkpt>
      <trkpt lat="45.52443" lon="6.00064">
        <ele>406.29</ele>
        <time>2011-04-05T15:42:56Z</time>
      </trkpt>
      <trkpt lat="45.5244" lon="6.00025">
        <ele>402.45</ele>
        <time>2011-04-05T15:43:00Z</time>
      </trkpt>
      <trkpt lat="45.52441" lon="6.00006">
        <ele>401.49</ele>
        <time>2011-04-05T15:43:02Z</time>
      </trkpt>
      <trkpt lat="45.52444" lon="5.99992">
        <ele>399.57</ele>
        <time>2011-04-05T15:43:04Z</time>
      </trkpt>
      <trkpt lat="45.52445" lon="5.99986">
        <ele>398.6</ele>
        <time>2011-04-05T15:43:05Z</time>
      </trkpt>
      <trkpt lat="45.52443" lon="5.99982">
        <ele>398.12</ele>
        <time>2011-04-05T15:43:06Z</time>
      </trkpt>
      <trkpt lat="45.52441" lon="5.99981">
        <ele>397.64</ele>
        <time>2011-04-05T15:43:07Z</time>
      </trkpt>
      <trkpt lat="45.52438" lon="5.9998">
        <ele>396.68</ele>
        <time>2011-04-05T15:43:08Z</time>
      </trkpt>
      <trkpt lat="45.52435" lon="5.99982">
        <ele>396.68</ele>
        <time>2011-04-05T15:43:09Z</time>
      </trkpt>
      <trkpt lat="45.52432" lon="5.99986">
        <ele>395.72</ele>
        <time>2011-04-05T15:43:10Z</time>
      </trkpt>
      <trkpt lat="45.52428" lon="5.99991">
        <ele>395.72</ele>
        <time>2011-04-05T15:43:11Z</time>
      </trkpt>
      <trkpt lat="45.52425" lon="5.99996">
        <ele>395.24</ele>
        <time>2011-04-05T15:43:12Z</time>
      </trkpt>
      <trkpt lat="45.52417" lon="6.00002">
        <ele>393.32</ele>
        <time>2011-04-05T15:43:14Z</time>
      </trkpt>
      <trkpt lat="45.52413" lon="6.00001">
        <ele>392.84</ele>
        <time>2011-04-05T15:43:15Z</time>
      </trkpt>
      <trkpt lat="45.52412" lon="5.99991">
        <ele>391.39</ele>
        <time>2011-04-05T15:43:17Z</time>
      </trkpt>
      <trkpt lat="45.52415" lon="5.99984">
        <ele>390.91</ele>
        <time>2011-04-05T15:43:18Z</time>
      </trkpt>
      <trkpt lat="45.52418" lon="5.99978">
        <ele>390.91</ele>
        <time>2011-04-05T15:43:19Z</time>
      </trkpt>
      <trkpt lat="45.52422" lon="5.99972">
        <ele>389.95</ele>
        <time>2011-04-05T15:43:20Z</time>
      </trkpt>
      <trkpt lat="45.52426" lon="5.99968">
        <ele>388.99</ele>
        <time>2011-04-05T15:43:21Z</time>
      </trkpt>
      <trkpt lat="45.5243" lon="5.99965">
        <ele>388.03</ele>
        <time>2011-04-05T15:43:22Z</time>
      </trkpt>
      <trkpt lat="45.52432" lon="5.99962">
        <ele>388.03</ele>
        <time>2011-04-05T15:43:23Z</time>
      </trkpt>
      <trkpt lat="45.52433" lon="5.99959">
        <ele>387.55</ele>
        <time>2011-04-05T15:43:24Z</time>
      </trkpt>
      <trkpt lat="45.52423" lon="5.99953">
        <ele>386.11</ele>
        <time>2011-04-05T15:43:27Z</time>
      </trkpt>
      <trkpt lat="45.52418" lon="5.99953">
        <ele>385.63</ele>
        <time>2011-04-05T15:43:28Z</time>
      </trkpt>
      <trkpt lat="45.52412" lon="5.99952">
        <ele>385.15</ele>
        <time>2011-04-05T15:43:29Z</time>
      </trkpt>
      <trkpt lat="45.52401" lon="5.99952">
        <ele>383.7</ele>
        <time>2011-04-05T15:43:31Z</time>
      </trkpt>
      <trkpt lat="45.52397" lon="5.99953">
        <ele>382.74</ele>
        <time>2011-04-05T15:43:32Z</time>
      </trkpt>
      <trkpt lat="45.52393" lon="5.99955">
        <ele>382.26</ele>
        <time>2011-04-05T15:43:33Z</time>
      </trkpt>
      <trkpt lat="45.5239" lon="5.99958">
        <ele>381.3</ele>
        <time>2011-04-05T15:43:34Z</time>
      </trkpt>
      <trkpt lat="45.52386" lon="5.99951">
        <ele>380.34</ele>
        <time>2011-04-05T15:43:37Z</time>
      </trkpt>
      <trkpt lat="45.5239" lon="5.99941">
        <ele>378.9</ele>
        <time>2011-04-05T15:43:39Z</time>
      </trkpt>
      <trkpt lat="45.52394" lon="5.99935">
        <ele>378.9</ele>
        <time>2011-04-05T15:43:40Z</time>
      </trkpt>
      <trkpt lat="45.52398" lon="5.99929">
        <ele>377.94</ele>
        <time>2011-04-05T15:43:41Z</time>
      </trkpt>
      <trkpt lat="45.52403" lon="5.99923">
        <ele>376.97</ele>
        <time>2011-04-05T15:43:42Z</time>
      </trkpt>
      <trkpt lat="45.52407" lon="5.99919">
        <ele>376.01</ele>
        <time>2011-04-05T15:43:43Z</time>
      </trkpt>
      <trkpt lat="45.52411" lon="5.99915">
        <ele>375.53</ele>
        <time>2011-04-05T15:43:44Z</time>
      </trkpt>
      <trkpt lat="45.52414" lon="5.99913">
        <ele>374.57</ele>
        <time>2011-04-05T15:43:45Z</time>
      </trkpt>
      <trkpt lat="45.52416" lon="5.99911">
        <ele>374.09</ele>
        <time>2011-04-05T15:43:46Z</time>
      </trkpt>
      <trkpt lat="45.52416" lon="5.99907">
        <ele>373.61</ele>
        <time>2011-04-05T15:43:47Z</time>
      </trkpt>
      <trkpt lat="45.52413" lon="5.99904">
        <ele>372.65</ele>
        <time>2011-04-05T15:43:48Z</time>
      </trkpt>
      <trkpt lat="45.52409" lon="5.99901">
        <ele>372.17</ele>
        <time>2011-04-05T15:43:49Z</time>
      </trkpt>
      <trkpt lat="45.52405" lon="5.99898">
        <ele>371.69</ele>
        <time>2011-04-05T15:43:50Z</time>
      </trkpt>
      <trkpt lat="45.52399" lon="5.99897">
        <ele>371.21</ele>
        <time>2011-04-05T15:43:51Z</time>
      </trkpt>
      <trkpt lat="45.52393" lon="5.99897">
        <ele>370.24</ele>
        <time>2011-04-05T15:43:52Z</time>
      </trkpt>
      <trkpt lat="45.52387" lon="5.99898">
        <ele>369.28</ele>
        <time>2011-04-05T15:43:53Z</time>
      </trkpt>
      <trkpt lat="45.52382" lon="5.99902">
        <ele>368.8</ele>
        <time>2011-04-05T15:43:54Z</time>
      </trkpt>
      <trkpt lat="45.52379" lon="5.99906">
        <ele>367.84</ele>
        <time>2011-04-05T15:43:55Z</time>
      </trkpt>
      <trkpt lat="45.52376" lon="5.99909">
        <ele>367.84</ele>
        <time>2011-04-05T15:43:56Z</time>
      </trkpt>
      <trkpt lat="45.52373" lon="5.99909">
        <ele>366.88</ele>
        <time>2011-04-05T15:43:57Z</time>
      </trkpt>
      <trkpt lat="45.52371" lon="5.99908">
        <ele>366.88</ele>
        <time>2011-04-05T15:43:58Z</time>
      </trkpt>
      <trkpt lat="45.52371" lon="5.99904">
        <ele>366.4</ele>
        <time>2011-04-05T15:43:59Z</time>
      </trkpt>
      <trkpt lat="45.52373" lon="5.999">
        <ele>365.92</ele>
        <time>2011-04-05T15:44:00Z</time>
      </trkpt>
      <trkpt lat="45.52376" lon="5.99896">
        <ele>365.44</ele>
        <time>2011-04-05T15:44:01Z</time>
      </trkpt>
      <trkpt lat="45.5238" lon="5.99891">
        <ele>364.96</ele>
        <time>2011-04-05T15:44:02Z</time>
      </trkpt>
      <trkpt lat="45.52393" lon="5.99874">
        <ele>363.04</ele>
        <time>2011-04-05T15:44:05Z</time>
      </trkpt>
      <trkpt lat="45.52398" lon="5.99868">
        <ele>362.07</ele>
        <time>2011-04-05T15:44:06Z</time>
      </trkpt>
      <trkpt lat="45.52403" lon="5.99863">
        <ele>361.59</ele>
        <time>2011-04-05T15:44:07Z</time>
      </trkpt>
      <trkpt lat="45.52411" lon="5.99849">
        <ele>358.71</ele>
        <time>2011-04-05T15:44:10Z</time>
      </trkpt>
      <trkpt lat="45.52411" lon="5.99845">
        <ele>358.23</ele>
        <time>2011-04-05T15:44:11Z</time>
      </trkpt>
      <trkpt lat="45.52403" lon="5.99839">
        <ele>356.79</ele>
        <time>2011-04-05T15:44:14Z</time>
      </trkpt>
      <trkpt lat="45.52399" lon="5.9984">
        <ele>356.31</ele>
        <time>2011-04-05T15:44:15Z</time>
      </trkpt>
      <trkpt lat="45.52395" lon="5.99842">
        <ele>355.83</ele>
        <time>2011-04-05T15:44:16Z</time>
      </trkpt>
      <trkpt lat="45.52391" lon="5.99845">
        <ele>355.34</ele>
        <time>2011-04-05T15:44:17Z</time>
      </trkpt>
      <trkpt lat="45.52385" lon="5.99846">
        <ele>354.86</ele>
        <time>2011-04-05T15:44:18Z</time>
      </trkpt>
      <trkpt lat="45.5238" lon="5.99846">
        <ele>354.38</ele>
        <time>2011-04-05T15:44:19Z</time>
      </trkpt>
      <trkpt lat="45.52374" lon="5.99832">
        <ele>352.46</ele>
        <time>2011-04-05T15:44:23Z</time>
      </trkpt>
      <trkpt lat="45.52378" lon="5.99827">
        <ele>351.5</ele>
        <time>2011-04-05T15:44:24Z</time>
      </trkpt>
      <trkpt lat="45.52382" lon="5.99822">
        <ele>351.02</ele>
        <time>2011-04-05T15:44:25Z</time>
      </trkpt>
      <trkpt lat="45.52395" lon="5.99807">
        <ele>350.06</ele>
        <time>2011-04-05T15:44:28Z</time>
      </trkpt>
      <trkpt lat="45.52396" lon="5.998">
        <ele>349.1</ele>
        <time>2011-04-05T15:44:29Z</time>
      </trkpt>
      <trkpt lat="45.52389" lon="5.99791">
        <ele>347.65</ele>
        <time>2011-04-05T15:44:31Z</time>
      </trkpt>
      <trkpt lat="45.52383" lon="5.9979">
        <ele>346.69</ele>
        <time>2011-04-05T15:44:32Z</time>
      </trkpt>
      <trkpt lat="45.52377" lon="5.99792">
        <ele>346.21</ele>
        <time>2011-04-05T15:44:33Z</time>
      </trkpt>
      <trkpt lat="45.52371" lon="5.99794">
        <ele>345.25</ele>
        <time>2011-04-05T15:44:34Z</time>
      </trkpt>
      <trkpt lat="45.52365" lon="5.99798">
        <ele>344.77</ele>
        <time>2011-04-05T15:44:35Z</time>
      </trkpt>
      <trkpt lat="45.52361" lon="5.99802">
        <ele>343.81</ele>
        <time>2011-04-05T15:44:36Z</time>
      </trkpt>
      <trkpt lat="45.52358" lon="5.99807">
        <ele>343.33</ele>
        <time>2011-04-05T15:44:37Z</time>
      </trkpt>
      <trkpt lat="45.52355" lon="5.99811">
        <ele>343.33</ele>
        <time>2011-04-05T15:44:38Z</time>
      </trkpt>
      <trkpt lat="45.52334" lon="5.99856">
        <ele>346.21</ele>
        <time>2011-04-05T15:44:48Z</time>
      </trkpt>
      <trkpt lat="45.52295" lon="5.99939">
        <ele>348.62</ele>
        <time>2011-04-05T15:45:05Z</time>
      </trkpt>
      <trkpt lat="45.52256" lon="6.0002">
        <ele>350.06</ele>
        <time>2011-04-05T15:45:20Z</time>
      </trkpt>
      <trkpt lat="45.52248" lon="6.00045">
        <ele>350.06</ele>
        <time>2011-04-05T15:45:24Z</time>
      </trkpt>
      <trkpt lat="45.52245" lon="6.00051">
        <ele>350.06</ele>
        <time>2011-04-05T15:45:25Z</time>
      </trkpt>
      <trkpt lat="45.52241" lon="6.00056">
        <ele>350.06</ele>
        <time>2011-04-05T15:45:26Z</time>
      </trkpt>
      <trkpt lat="45.52191" lon="6.00129">
        <ele>351.02</ele>
        <time>2011-04-05T15:45:41Z</time>
      </trkpt>
      <trkpt lat="45.52143" lon="6.00209">
        <ele>352.94</ele>
        <time>2011-04-05T15:45:57Z</time>
      </trkpt>
      <trkpt lat="45.52101" lon="6.00306">
        <ele>353.42</ele>
        <time>2011-04-05T15:46:13Z</time>
      </trkpt>
      <trkpt lat="45.52099" lon="6.00312">
        <ele>353.42</ele>
        <time>2011-04-05T15:46:14Z</time>
      </trkpt>
      <trkpt lat="45.52098" lon="6.00319">
        <ele>353.9</ele>
        <time>2011-04-05T15:46:15Z</time>
      </trkpt>
      <trkpt lat="45.52098" lon="6.00325">
        <ele>353.9</ele>
        <time>2011-04-05T15:46:16Z</time>
      </trkpt>
      <trkpt lat="45.52099" lon="6.00331">
        <ele>353.9</ele>
        <time>2011-04-05T15:46:17Z</time>
      </trkpt>
      <trkpt lat="45.521" lon="6.00336">
        <ele>353.9</ele>
        <time>2011-04-05T15:46:18Z</time>
      </trkpt>
      <trkpt lat="45.52103" lon="6.00341">
        <ele>354.86</ele>
        <time>2011-04-05T15:46:19Z</time>
      </trkpt>
      <trkpt lat="45.52118" lon="6.00392">
        <ele>356.79</ele>
        <time>2011-04-05T15:46:30Z</time>
      </trkpt>
      <trkpt lat="45.52117" lon="6.00397">
        <ele>356.79</ele>
        <time>2011-04-05T15:46:31Z</time>
      </trkpt>
      <trkpt lat="45.52105" lon="6.00425">
        <ele>357.75</ele>
        <time>2011-04-05T15:46:37Z</time>
      </trkpt>
      <trkpt lat="45.52102" lon="6.00426">
        <ele>357.27</ele>
        <time>2011-04-05T15:46:38Z</time>
      </trkpt>
      <trkpt lat="45.52098" lon="6.00424">
        <ele>356.79</ele>
        <time>2011-04-05T15:46:39Z</time>
      </trkpt>
      <trkpt lat="45.52094" lon="6.00421">
        <ele>356.31</ele>
        <time>2011-04-05T15:46:40Z</time>
      </trkpt>
      <trkpt lat="45.52079" lon="6.00408">
        <ele>353.9</ele>
        <time>2011-04-05T15:46:43Z</time>
      </trkpt>
      <trkpt lat="45.52071" lon="6.00402">
        <ele>352.46</ele>
        <time>2011-04-05T15:46:45Z</time>
      </trkpt>
      <trkpt lat="45.52062" lon="6.00387">
        <ele>350.06</ele>
        <time>2011-04-05T15:46:48Z</time>
      </trkpt>
      <trkpt lat="45.5206" lon="6.00381">
        <ele>349.1</ele>
        <time>2011-04-05T15:46:49Z</time>
      </trkpt>
      <trkpt lat="45.5206" lon="6.00374">
        <ele>349.1</ele>
        <time>2011-04-05T15:46:50Z</time>
      </trkpt>
      <trkpt lat="45.5206" lon="6.00366">
        <ele>348.13</ele>
        <time>2011-04-05T15:46:51Z</time>
      </trkpt>
      <trkpt lat="45.52061" lon="6.00357">
        <ele>347.17</ele>
        <time>2011-04-05T15:46:52Z</time>
      </trkpt>
      <trkpt lat="45.52062" lon="6.00348">
        <ele>346.69</ele>
        <time>2011-04-05T15:46:53Z</time>
      </trkpt>
      <trkpt lat="45.52064" lon="6.0031">
        <ele>344.77</ele>
        <time>2011-04-05T15:46:57Z</time>
      </trkpt>
      <trkpt lat="45.52065" lon="6.00276">
        <ele>341.41</ele>
        <time>2011-04-05T15:47:02Z</time>
      </trkpt>
      <trkpt lat="45.52063" lon="6.00275">
        <ele>340.92</ele>
        <time>2011-04-05T15:47:03Z</time>
      </trkpt>
      <trkpt lat="45.5206" lon="6.00277">
        <ele>340.44</ele>
        <time>2011-04-05T15:47:04Z</time>
      </trkpt>
      <trkpt lat="45.52057" lon="6.00281">
        <ele>339.96</ele>
        <time>2011-04-05T15:47:05Z</time>
      </trkpt>
      <trkpt lat="45.52054" lon="6.00286">
        <ele>339.96</ele>
        <time>2011-04-05T15:47:06Z</time>
      </trkpt>
      <trkpt lat="45.5205" lon="6.0029">
        <ele>338.52</ele>
        <time>2011-04-05T15:47:07Z</time>
      </trkpt>
      <trkpt lat="45.52042" lon="6.00299">
        <ele>338.52</ele>
        <time>2011-04-05T15:47:09Z</time>
      </trkpt>
      <trkpt lat="45.52021" lon="6.00333">
        <ele>335.16</ele>
        <time>2011-04-05T15:47:16Z</time>
      </trkpt>
      <trkpt lat="45.52006" lon="6.00347">
        <ele>331.79</ele>
        <time>2011-04-05T15:47:23Z</time>
      </trkpt>
      <trkpt lat="45.51991" lon="6.00358">
        <ele>328.91</ele>
        <time>2011-04-05T15:47:27Z</time>
      </trkpt>
      <trkpt lat="45.51976" lon="6.00368">
        <ele>326.02</ele>
        <time>2011-04-05T15:47:30Z</time>
      </trkpt>
      <trkpt lat="45.51959" lon="6.00378">
        <ele>322.18</ele>
        <time>2011-04-05T15:47:34Z</time>
      </trkpt>
      <trkpt lat="45.51955" lon="6.0038">
        <ele>321.22</ele>
        <time>2011-04-05T15:47:36Z</time>
      </trkpt>
      <trkpt lat="45.51952" lon="6.00379">
        <ele>320.74</ele>
        <time>2011-04-05T15:47:37Z</time>
      </trkpt>
      <trkpt lat="45.5195" lon="6.00376">
        <ele>320.26</ele>
        <time>2011-04-05T15:47:38Z</time>
      </trkpt>
      <trkpt lat="45.51949" lon="6.00372">
        <ele>319.3</ele>
        <time>2011-04-05T15:47:39Z</time>
      </trkpt>
      <trkpt lat="45.5195" lon="6.00367">
        <ele>318.81</ele>
        <time>2011-04-05T15:47:40Z</time>
      </trkpt>
      <trkpt lat="45.51952" lon="6.00362">
        <ele>318.81</ele>
        <time>2011-04-05T15:47:41Z</time>
      </trkpt>
      <trkpt lat="45.51955" lon="6.00356">
        <ele>318.33</ele>
        <time>2011-04-05T15:47:42Z</time>
      </trkpt>
      <trkpt lat="45.51958" lon="6.00351">
        <ele>317.37</ele>
        <time>2011-04-05T15:47:43Z</time>
      </trkpt>
      <trkpt lat="45.51961" lon="6.00347">
        <ele>316.89</ele>
        <time>2011-04-05T15:47:44Z</time>
      </trkpt>
      <trkpt lat="45.51964" lon="6.00342">
        <ele>316.89</ele>
        <time>2011-04-05T15:47:45Z</time>
      </trkpt>
      <trkpt lat="45.5197" lon="6.00332">
        <ele>317.37</ele>
        <time>2011-04-05T15:47:47Z</time>
      </trkpt>
      <trkpt lat="45.51985" lon="6.00304">
        <ele>317.85</ele>
        <time>2011-04-05T15:47:55Z</time>
      </trkpt>
      <trkpt lat="45.51985" lon="6.00301">
        <ele>317.37</ele>
        <time>2011-04-05T15:47:56Z</time>
      </trkpt>
      <trkpt lat="45.51986" lon="6.00297">
        <ele>317.37</ele>
        <time>2011-04-05T15:47:57Z</time>
      </trkpt>
      <trkpt lat="45.51986" lon="6.00284">
        <ele>317.37</ele>
        <time>2011-04-05T15:48:01Z</time>
      </trkpt>
      <trkpt lat="45.51985" lon="6.00282">
        <ele>316.89</ele>
        <time>2011-04-05T15:48:02Z</time>
      </trkpt>
      <trkpt lat="45.5197" lon="6.0027">
        <ele>312.09</ele>
        <time>2011-04-05T15:48:06Z</time>
      </trkpt>
      <trkpt lat="45.51947" lon="6.00252">
        <ele>309.2</ele>
        <time>2011-04-05T15:48:12Z</time>
      </trkpt>
      <trkpt lat="45.51944" lon="6.00252">
        <ele>308.72</ele>
        <time>2011-04-05T15:48:13Z</time>
      </trkpt>
      <trkpt lat="45.51941" lon="6.00254">
        <ele>308.72</ele>
        <time>2011-04-05T15:48:14Z</time>
      </trkpt>
      <trkpt lat="45.51939" lon="6.00257">
        <ele>308.72</ele>
        <time>2011-04-05T15:48:15Z</time>
      </trkpt>
      <trkpt lat="45.51936" lon="6.00261">
        <ele>308.72</ele>
        <time>2011-04-05T15:48:16Z</time>
      </trkpt>
      <trkpt lat="45.51934" lon="6.00266">
        <ele>308.72</ele>
        <time>2011-04-05T15:48:17Z</time>
      </trkpt>
      <trkpt lat="45.51932" lon="6.00271">
        <ele>308.72</ele>
        <time>2011-04-05T15:48:18Z</time>
      </trkpt>
      <trkpt lat="45.51929" lon="6.00274">
        <ele>308.24</ele>
        <time>2011-04-05T15:48:19Z</time>
      </trkpt>
      <trkpt lat="45.51925" lon="6.00274">
        <ele>308.72</ele>
        <time>2011-04-05T15:48:20Z</time>
      </trkpt>
      <trkpt lat="45.51922" lon="6.00272">
        <ele>308.72</ele>
        <time>2011-04-05T15:48:21Z</time>
      </trkpt>
      <trkpt lat="45.51918" lon="6.00269">
        <ele>308.24</ele>
        <time>2011-04-05T15:48:22Z</time>
      </trkpt>
      <trkpt lat="45.51914" lon="6.00266">
        <ele>308.24</ele>
        <time>2011-04-05T15:48:23Z</time>
      </trkpt>
      <trkpt lat="45.5191" lon="6.00262">
        <ele>307.76</ele>
        <time>2011-04-05T15:48:24Z</time>
      </trkpt>
      <trkpt lat="45.51906" lon="6.00257">
        <ele>307.76</ele>
        <time>2011-04-05T15:48:25Z</time>
      </trkpt>
      <trkpt lat="45.51904" lon="6.00251">
        <ele>307.76</ele>
        <time>2011-04-05T15:48:26Z</time>
      </trkpt>
      <trkpt lat="45.51903" lon="6.00245">
        <ele>307.28</ele>
        <time>2011-04-05T15:48:27Z</time>
      </trkpt>
      <trkpt lat="45.51903" lon="6.00238">
        <ele>307.28</ele>
        <time>2011-04-05T15:48:28Z</time>
      </trkpt>
      <trkpt lat="45.51903" lon="6.00231">
        <ele>307.28</ele>
        <time>2011-04-05T15:48:29Z</time>
      </trkpt>
      <trkpt lat="45.51902" lon="6.00216">
        <ele>306.8</ele>
        <time>2011-04-05T15:48:31Z</time>
      </trkpt>
      <trkpt lat="45.51879" lon="6.00152">
        <ele>306.32</ele>
        <time>2011-04-05T15:48:41Z</time>
      </trkpt>
      <trkpt lat="45.51875" lon="6.00146">
        <ele>306.32</ele>
        <time>2011-04-05T15:48:42Z</time>
      </trkpt>
      <trkpt lat="45.51838" lon="6.00087">
        <ele>305.36</ele>
        <time>2011-04-05T15:48:52Z</time>
      </trkpt>
      <trkpt lat="45.5183" lon="6.00076">
        <ele>304.88</ele>
        <time>2011-04-05T15:48:54Z</time>
      </trkpt>
      <trkpt lat="45.51826" lon="6.00074">
        <ele>304.39</ele>
        <time>2011-04-05T15:48:55Z</time>
      </trkpt>
      <trkpt lat="45.51822" lon="6.00074">
        <ele>304.39</ele>
        <time>2011-04-05T15:48:56Z</time>
      </trkpt>
      <trkpt lat="45.51819" lon="6.00077">
        <ele>303.91</ele>
        <time>2011-04-05T15:48:57Z</time>
      </trkpt>
      <trkpt lat="45.51816" lon="6.00082">
        <ele>303.91</ele>
        <time>2011-04-05T15:48:58Z</time>
      </trkpt>
      <trkpt lat="45.51813" lon="6.00088">
        <ele>303.91</ele>
        <time>2011-04-05T15:48:59Z</time>
      </trkpt>
      <trkpt lat="45.51809" lon="6.00092">
        <ele>304.39</ele>
        <time>2011-04-05T15:49:00Z</time>
      </trkpt>
      <trkpt lat="45.51805" lon="6.00094">
        <ele>303.91</ele>
        <time>2011-04-05T15:49:01Z</time>
      </trkpt>
      <trkpt lat="45.51801" lon="6.00094">
        <ele>303.91</ele>
        <time>2011-04-05T15:49:02Z</time>
      </trkpt>
      <trkpt lat="45.51796" lon="6.00091">
        <ele>303.91</ele>
        <time>2011-04-05T15:49:03Z</time>
      </trkpt>
      <trkpt lat="45.51793" lon="6.00087">
        <ele>303.91</ele>
        <time>2011-04-05T15:49:04Z</time>
      </trkpt>
      <trkpt lat="45.51789" lon="6.00082">
        <ele>303.43</ele>
        <time>2011-04-05T15:49:05Z</time>
      </trkpt>
      <trkpt lat="45.51727" lon="5.99989">
        <ele>303.43</ele>
        <time>2011-04-05T15:49:22Z</time>
      </trkpt>
      <trkpt lat="45.51718" lon="5.99973">
        <ele>302.95</ele>
        <time>2011-04-05T15:49:25Z</time>
      </trkpt>
      <trkpt lat="45.51718" lon="5.99967">
        <ele>303.43</ele>
        <time>2011-04-05T15:49:26Z</time>
      </trkpt>
      <trkpt lat="45.51719" lon="5.99961">
        <ele>303.91</ele>
        <time>2011-04-05T15:49:27Z</time>
      </trkpt>
      <trkpt lat="45.51721" lon="5.99955">
        <ele>303.43</ele>
        <time>2011-04-05T15:49:28Z</time>
      </trkpt>
      <trkpt lat="45.51723" lon="5.99949">
        <ele>303.91</ele>
        <time>2011-04-05T15:49:29Z</time>
      </trkpt>
      <trkpt lat="45.51725" lon="5.99943">
        <ele>303.91</ele>
        <time>2011-04-05T15:49:30Z</time>
      </trkpt>
      <trkpt lat="45.51727" lon="5.99938">
        <ele>303.91</ele>
        <time>2011-04-05T15:49:31Z</time>
      </trkpt>
      <trkpt lat="45.51729" lon="5.99932">
        <ele>303.43</ele>
        <time>2011-04-05T15:49:32Z</time>
      </trkpt>
      <trkpt lat="45.51733" lon="5.999">
        <ele>303.91</ele>
        <time>2011-04-05T15:49:38Z</time>
      </trkpt>
      <trkpt lat="45.51736" lon="5.99896">
        <ele>303.43</ele>
        <time>2011-04-05T15:49:39Z</time>
      </trkpt>
      <trkpt lat="45.51739" lon="5.99893">
        <ele>303.43</ele>
        <time>2011-04-05T15:49:40Z</time>
      </trkpt>
      <trkpt lat="45.51741" lon="5.99888">
        <ele>303.43</ele>
        <time>2011-04-05T15:49:41Z</time>
      </trkpt>
      <trkpt lat="45.51745" lon="5.99883">
        <ele>302.95</ele>
        <time>2011-04-05T15:49:42Z</time>
      </trkpt>
      <trkpt lat="45.51748" lon="5.99878">
        <ele>303.43</ele>
        <time>2011-04-05T15:49:43Z</time>
      </trkpt>
      <trkpt lat="45.51751" lon="5.99874">
        <ele>302.95</ele>
        <time>2011-04-05T15:49:44Z</time>
      </trkpt>
      <trkpt lat="45.51754" lon="5.99869">
        <ele>302.95</ele>
        <time>2011-04-05T15:49:45Z</time>
      </trkpt>
      <trkpt lat="45.51758" lon="5.99865">
        <ele>302.95</ele>
        <time>2011-04-05T15:49:46Z</time>
      </trkpt>
      <trkpt lat="45.51774" lon="5.99843">
        <ele>302.95</ele>
        <time>2011-04-05T15:49:51Z</time>
      </trkpt>
      <trkpt lat="45.51785" lon="5.99824">
        <ele>303.43</ele>
        <time>2011-04-05T15:49:55Z</time>
      </trkpt>
      <trkpt lat="45.51788" lon="5.99819">
        <ele>302.95</ele>
        <time>2011-04-05T15:49:56Z</time>
      </trkpt>
      <trkpt lat="45.51791" lon="5.99814">
        <ele>303.91</ele>
        <time>2011-04-05T15:49:57Z</time>
      </trkpt>
      <trkpt lat="45.51794" lon="5.9981">
        <ele>303.43</ele>
        <time>2011-04-05T15:49:58Z</time>
      </trkpt>
      <trkpt lat="45.51798" lon="5.99805">
        <ele>303.43</ele>
        <time>2011-04-05T15:49:59Z</time>
      </trkpt>
      <trkpt lat="45.51802" lon="5.998">
        <ele>303.43</ele>
        <time>2011-04-05T15:50:00Z</time>
      </trkpt>
      <trkpt lat="45.51816" lon="5.99778">
        <ele>303.91</ele>
        <time>2011-04-05T15:50:04Z</time>
      </trkpt>
      <trkpt lat="45.5182" lon="5.99773">
        <ele>303.43</ele>
        <time>2011-04-05T15:50:05Z</time>
      </trkpt>
      <trkpt lat="45.51827" lon="5.99762">
        <ele>303.43</ele>
        <time>2011-04-05T15:50:07Z</time>
      </trkpt>
      <trkpt lat="45.5183" lon="5.99757">
        <ele>303.43</ele>
        <time>2011-04-05T15:50:08Z</time>
      </trkpt>
      <trkpt lat="45.51834" lon="5.99753">
        <ele>303.43</ele>
        <time>2011-04-05T15:50:09Z</time>
      </trkpt>
      <trkpt lat="45.51841" lon="5.99743">
        <ele>303.43</ele>
        <time>2011-04-05T15:50:11Z</time>
      </trkpt>
      <trkpt lat="45.51845" lon="5.99738">
        <ele>302.95</ele>
        <time>2011-04-05T15:50:12Z</time>
      </trkpt>
      <trkpt lat="45.51879" lon="5.99695">
        <ele>303.91</ele>
        <time>2011-04-05T15:50:22Z</time>
      </trkpt>
      <trkpt lat="45.5188" lon="5.9969">
        <ele>302.95</ele>
        <time>2011-04-05T15:50:23Z</time>
      </trkpt>
      <trkpt lat="45.51877" lon="5.99686">
        <ele>303.43</ele>
        <time>2011-04-05T15:50:24Z</time>
      </trkpt>
      <trkpt lat="45.51874" lon="5.99684">
        <ele>303.43</ele>
        <time>2011-04-05T15:50:25Z</time>
      </trkpt>
      <trkpt lat="45.51871" lon="5.99681">
        <ele>303.43</ele>
        <time>2011-04-05T15:50:26Z</time>
      </trkpt>
      <trkpt lat="45.51868" lon="5.99678">
        <ele>303.43</ele>
        <time>2011-04-05T15:50:27Z</time>
      </trkpt>
      <trkpt lat="45.51865" lon="5.99674">
        <ele>303.43</ele>
        <time>2011-04-05T15:50:28Z</time>
      </trkpt>
      <trkpt lat="45.51862" lon="5.99669">
        <ele>303.43</ele>
        <time>2011-04-05T15:50:29Z</time>
      </trkpt>
      <trkpt lat="45.51859" lon="5.99665">
        <ele>302.95</ele>
        <time>2011-04-05T15:50:30Z</time>
      </trkpt>
      <trkpt lat="45.51856" lon="5.9966">
        <ele>302.95</ele>
        <time>2011-04-05T15:50:31Z</time>
      </trkpt>
      <trkpt lat="45.51848" lon="5.99646">
        <ele>303.43</ele>
        <time>2011-04-05T15:50:34Z</time>
      </trkpt>
      <trkpt lat="45.51815" lon="5.996">
        <ele>302.95</ele>
        <time>2011-04-05T15:50:44Z</time>
      </trkpt>
      <trkpt lat="45.51812" lon="5.99595">
        <ele>303.43</ele>
        <time>2011-04-05T15:50:45Z</time>
      </trkpt>
      <trkpt lat="45.51812" lon="5.99588">
        <ele>302.95</ele>
        <time>2011-04-05T15:50:46Z</time>
      </trkpt>
      <trkpt lat="45.51812" lon="5.99582">
        <ele>303.43</ele>
        <time>2011-04-05T15:50:47Z</time>
      </trkpt>
      <trkpt lat="45.51814" lon="5.99576">
        <ele>303.43</ele>
        <time>2011-04-05T15:50:48Z</time>
      </trkpt>
      <trkpt lat="45.51817" lon="5.9957">
        <ele>302.95</ele>
        <time>2011-04-05T15:50:49Z</time>
      </trkpt>
      <trkpt lat="45.5182" lon="5.99564">
        <ele>302.95</ele>
        <time>2011-04-05T15:50:50Z</time>
      </trkpt>
      <trkpt lat="45.51823" lon="5.99559">
        <ele>303.43</ele>
        <time>2011-04-05T15:50:51Z</time>
      </trkpt>
      <trkpt lat="45.51825" lon="5.99552">
        <ele>303.91</ele>
        <time>2011-04-05T15:50:52Z</time>
      </trkpt>
      <trkpt lat="45.51828" lon="5.99546">
        <ele>303.91</ele>
        <time>2011-04-05T15:50:53Z</time>
      </trkpt>
      <trkpt lat="45.51831" lon="5.99541">
        <ele>303.91</ele>
        <time>2011-04-05T15:50:54Z</time>
      </trkpt>
      <trkpt lat="45.51834" lon="5.99536">
        <ele>303.91</ele>
        <time>2011-04-05T15:50:55Z</time>
      </trkpt>
      <trkpt lat="45.51858" lon="5.99503">
        <ele>304.39</ele>
        <time>2011-04-05T15:51:04Z</time>
      </trkpt>
      <trkpt lat="45.51859" lon="5.995">
        <ele>303.91</ele>
        <time>2011-04-05T15:51:05Z</time>
      </trkpt>
      <trkpt lat="45.51858" lon="5.99498">
        <ele>303.91</ele>
        <time>2011-04-05T15:51:06Z</time>
      </trkpt>
      <trkpt lat="45.51857" lon="5.99496">
        <ele>303.91</ele>
        <time>2011-04-05T15:51:07Z</time>
      </trkpt>
      <trkpt lat="45.51857" lon="5.99493">
        <ele>303.91</ele>
        <time>2011-04-05T15:51:08Z</time>
      </trkpt>
      <trkpt lat="45.51857" lon="5.99489">
        <ele>303.91</ele>
        <time>2011-04-05T15:51:09Z</time>
      </trkpt>
      <trkpt lat="45.51857" lon="5.99485">
        <ele>303.91</ele>
        <time>2011-04-05T15:51:10Z</time>
      </trkpt>
      <trkpt lat="45.51859" lon="5.9948">
        <ele>303.91</ele>
        <time>2011-04-05T15:51:11Z</time>
      </trkpt>
      <trkpt lat="45.51861" lon="5.99476">
        <ele>303.91</ele>
        <time>2011-04-05T15:51:12Z</time>
      </trkpt>
      <trkpt lat="45.51863" lon="5.99472">
        <ele>303.43</ele>
        <time>2011-04-05T15:51:13Z</time>
      </trkpt>
      <trkpt lat="45.51865" lon="5.99467">
        <ele>303.43</ele>
        <time>2011-04-05T15:51:14Z</time>
      </trkpt>
      <trkpt lat="45.51868" lon="5.99464">
        <ele>303.43</ele>
        <time>2011-04-05T15:51:15Z</time>
      </trkpt>
      <trkpt lat="45.51871" lon="5.9946">
        <ele>303.43</ele>
        <time>2011-04-05T15:51:16Z</time>
      </trkpt>
      <trkpt lat="45.51874" lon="5.99457">
        <ele>303.43</ele>
        <time>2011-04-05T15:51:17Z</time>
      </trkpt>
      <trkpt lat="45.5188" lon="5.99449">
        <ele>303.43</ele>
        <time>2011-04-05T15:51:19Z</time>
      </trkpt>
      <trkpt lat="45.51907" lon="5.99403">
        <ele>303.43</ele>
        <time>2011-04-05T15:51:28Z</time>
      </trkpt>
      <trkpt lat="45.5191" lon="5.99398">
        <ele>303.91</ele>
        <time>2011-04-05T15:51:29Z</time>
      </trkpt>
      <trkpt lat="45.51955" lon="5.9933">
        <ele>303.43</ele>
        <time>2011-04-05T15:51:43Z</time>
      </trkpt>
      <trkpt lat="45.51979" lon="5.99278">
        <ele>303.91</ele>
        <time>2011-04-05T15:51:54Z</time>
      </trkpt>
      <trkpt lat="45.51943" lon="5.9923">
        <ele>304.88</ele>
        <time>2011-04-05T15:52:05Z</time>
      </trkpt>
      <trkpt lat="45.51921" lon="5.99201">
        <ele>306.32</ele>
        <time>2011-04-05T15:52:12Z</time>
      </trkpt>
      <trkpt lat="45.5187" lon="5.99135">
        <ele>306.8</ele>
        <time>2011-04-05T15:52:28Z</time>
      </trkpt>
      <trkpt lat="45.51853" lon="5.99117">
        <ele>307.76</ele>
        <time>2011-04-05T15:52:33Z</time>
      </trkpt>
      <trkpt lat="45.5178" lon="5.99075">
        <ele>310.64</ele>
        <time>2011-04-05T15:52:53Z</time>
      </trkpt>
      <trkpt lat="45.5174" lon="5.99044">
        <ele>313.53</ele>
        <time>2011-04-05T15:53:06Z</time>
      </trkpt>
      <trkpt lat="45.51682" lon="5.98981">
        <ele>316.41</ele>
        <time>2011-04-05T15:53:26Z</time>
      </trkpt>
      <trkpt lat="45.51655" lon="5.9894">
        <ele>317.37</ele>
        <time>2011-04-05T15:53:36Z</time>
      </trkpt>
      <trkpt lat="45.51633" lon="5.98867">
        <ele>320.26</ele>
        <time>2011-04-05T15:53:52Z</time>
      </trkpt>
      <trkpt lat="45.51633" lon="5.98797">
        <ele>322.18</ele>
        <time>2011-04-05T15:54:07Z</time>
      </trkpt>
      <trkpt lat="45.51648" lon="5.98739">
        <ele>325.06</ele>
        <time>2011-04-05T15:54:21Z</time>
      </trkpt>
      <trkpt lat="45.51672" lon="5.98689">
        <ele>327.95</ele>
        <time>2011-04-05T15:54:37Z</time>
      </trkpt>
      <trkpt lat="45.51679" lon="5.98645">
        <ele>330.35</ele>
        <time>2011-04-05T15:54:51Z</time>
      </trkpt>
      <trkpt lat="45.51693" lon="5.9863">
        <ele>332.75</ele>
        <time>2011-04-05T15:55:01Z</time>
      </trkpt>
      <trkpt lat="45.51696" lon="5.9862">
        <ele>333.23</ele>
        <time>2011-04-05T15:55:06Z</time>
      </trkpt>
      <trkpt lat="45.51695" lon="5.98619">
        <ele>333.23</ele>
        <time>2011-04-05T15:55:07Z</time>
      </trkpt>
      <trkpt lat="45.51694" lon="5.98618">
        <ele>333.71</ele>
        <time>2011-04-05T15:55:08Z</time>
      </trkpt>
      <trkpt lat="45.51692" lon="5.98619">
        <ele>334.2</ele>
        <time>2011-04-05T15:55:09Z</time>
      </trkpt>
      <trkpt lat="45.51691" lon="5.9862">
        <ele>334.2</ele>
        <time>2011-04-05T15:55:10Z</time>
      </trkpt>
      <trkpt lat="45.51689" lon="5.98621">
        <ele>334.2</ele>
        <time>2011-04-05T15:55:11Z</time>
      </trkpt>
      <trkpt lat="45.51688" lon="5.98623">
        <ele>334.2</ele>
        <time>2011-04-05T15:55:12Z</time>
      </trkpt>
      <trkpt lat="45.51686" lon="5.98624">
        <ele>334.2</ele>
        <time>2011-04-05T15:55:13Z</time>
      </trkpt>
      <trkpt lat="45.51684" lon="5.98624">
        <ele>334.68</ele>
        <time>2011-04-05T15:55:14Z</time>
      </trkpt>
      <trkpt lat="45.51682" lon="5.98625">
        <ele>335.16</ele>
        <time>2011-04-05T15:55:15Z</time>
      </trkpt>
      <trkpt lat="45.5168" lon="5.98626">
        <ele>335.16</ele>
        <time>2011-04-05T15:55:16Z</time>
      </trkpt>
      <trkpt lat="45.51678" lon="5.98627">
        <ele>335.16</ele>
        <time>2011-04-05T15:55:17Z</time>
      </trkpt>
      <trkpt lat="45.51644" lon="5.9864">
        <ele>337.56</ele>
        <time>2011-04-05T15:55:34Z</time>
      </trkpt>
      <trkpt lat="45.51621" lon="5.98652">
        <ele>339</ele>
        <time>2011-04-05T15:55:46Z</time>
      </trkpt>
      <trkpt lat="45.51606" lon="5.98657">
        <ele>339.96</ele>
        <time>2011-04-05T15:55:54Z</time>
      </trkpt>
      <trkpt lat="45.51606" lon="5.98656">
        <ele>340.44</ele>
        <time>2011-04-05T15:55:55Z</time>
      </trkpt>
      <trkpt lat="45.51606" lon="5.98653">
        <ele>340.92</ele>
        <time>2011-04-05T15:55:56Z</time>
      </trkpt>
      <trkpt lat="45.51605" lon="5.98651">
        <ele>340.44</ele>
        <time>2011-04-05T15:55:57Z</time>
      </trkpt>
      <trkpt lat="45.51605" lon="5.98649">
        <ele>340.92</ele>
        <time>2011-04-05T15:55:58Z</time>
      </trkpt>
      <trkpt lat="45.51605" lon="5.98647">
        <ele>341.41</ele>
        <time>2011-04-05T15:55:59Z</time>
      </trkpt>
      <trkpt lat="45.51604" lon="5.98645">
        <ele>341.41</ele>
        <time>2011-04-05T15:56:00Z</time>
      </trkpt>
      <trkpt lat="45.51603" lon="5.98643">
        <ele>341.41</ele>
        <time>2011-04-05T15:56:01Z</time>
      </trkpt>
      <trkpt lat="45.51603" lon="5.98642">
        <ele>341.89</ele>
        <time>2011-04-05T15:56:02Z</time>
      </trkpt>
      <trkpt lat="45.51602" lon="5.98638">
        <ele>342.37</ele>
        <time>2011-04-05T15:56:04Z</time>
      </trkpt>
      <trkpt lat="45.51602" lon="5.98637">
        <ele>342.37</ele>
        <time>2011-04-05T15:56:05Z</time>
      </trkpt>
      <trkpt lat="45.51591" lon="5.98612">
        <ele>345.25</ele>
        <time>2011-04-05T15:56:19Z</time>
      </trkpt>
      <trkpt lat="45.51579" lon="5.98584">
        <ele>346.69</ele>
        <time>2011-04-05T15:56:34Z</time>
      </trkpt>
      <trkpt lat="45.51557" lon="5.98596">
        <ele>349.1</ele>
        <time>2011-04-05T15:56:49Z</time>
      </trkpt>
      <trkpt lat="45.51556" lon="5.98597">
        <ele>348.62</ele>
        <time>2011-04-05T15:56:50Z</time>
      </trkpt>
      <trkpt lat="45.51547" lon="5.98593">
        <ele>349.1</ele>
        <time>2011-04-05T15:56:56Z</time>
      </trkpt>
      <trkpt lat="45.51522" lon="5.98566">
        <ele>352.94</ele>
        <time>2011-04-05T15:57:13Z</time>
      </trkpt>
      <trkpt lat="45.51493" lon="5.98531">
        <ele>353.42</ele>
        <time>2011-04-05T15:57:28Z</time>
      </trkpt>
      <trkpt lat="45.51471" lon="5.9851">
        <ele>352.94</ele>
        <time>2011-04-05T15:57:38Z</time>
      </trkpt>
      <trkpt lat="45.5145" lon="5.98539">
        <ele>353.9</ele>
        <time>2011-04-05T15:57:48Z</time>
      </trkpt>
      <trkpt lat="45.51409" lon="5.98579">
        <ele>352.46</ele>
        <time>2011-04-05T15:58:03Z</time>
      </trkpt>
      <trkpt lat="45.51376" lon="5.98506">
        <ele>351.02</ele>
        <time>2011-04-05T15:58:14Z</time>
      </trkpt>
      <trkpt lat="45.5137" lon="5.98476">
        <ele>350.54</ele>
        <time>2011-04-05T15:58:17Z</time>
      </trkpt>
      <trkpt lat="45.5137" lon="5.98459">
        <ele>350.54</ele>
        <time>2011-04-05T15:58:18Z</time>
      </trkpt>
      <trkpt lat="45.51368" lon="5.98448">
        <ele>350.06</ele>
        <time>2011-04-05T15:58:19Z</time>
      </trkpt>
      <trkpt lat="45.51356" lon="5.98413">
        <ele>349.58</ele>
        <time>2011-04-05T15:58:24Z</time>
      </trkpt>
      <trkpt lat="45.51354" lon="5.98407">
        <ele>349.58</ele>
        <time>2011-04-05T15:58:25Z</time>
      </trkpt>
      <trkpt lat="45.51351" lon="5.984">
        <ele>349.58</ele>
        <time>2011-04-05T15:58:26Z</time>
      </trkpt>
      <trkpt lat="45.51345" lon="5.98388">
        <ele>350.06</ele>
        <time>2011-04-05T15:58:28Z</time>
      </trkpt>
      <trkpt lat="45.51322" lon="5.98326">
        <ele>349.58</ele>
        <time>2011-04-05T15:58:38Z</time>
      </trkpt>
      <trkpt lat="45.5132" lon="5.9832">
        <ele>350.06</ele>
        <time>2011-04-05T15:58:39Z</time>
      </trkpt>
      <trkpt lat="45.51317" lon="5.98314">
        <ele>349.58</ele>
        <time>2011-04-05T15:58:40Z</time>
      </trkpt>
      <trkpt lat="45.51311" lon="5.98301">
        <ele>349.1</ele>
        <time>2011-04-05T15:58:42Z</time>
      </trkpt>
      <trkpt lat="45.51293" lon="5.98253">
        <ele>348.13</ele>
        <time>2011-04-05T15:58:49Z</time>
      </trkpt>
      <trkpt lat="45.51291" lon="5.98247">
        <ele>347.65</ele>
        <time>2011-04-05T15:58:50Z</time>
      </trkpt>
      <trkpt lat="45.51271" lon="5.98199">
        <ele>344.77</ele>
        <time>2011-04-05T15:58:56Z</time>
      </trkpt>
      <trkpt lat="45.51247" lon="5.98141">
        <ele>341.41</ele>
        <time>2011-04-05T15:59:02Z</time>
      </trkpt>
      <trkpt lat="45.51243" lon="5.98131">
        <ele>340.92</ele>
        <time>2011-04-05T15:59:03Z</time>
      </trkpt>
      <trkpt lat="45.5122" lon="5.98074">
        <ele>341.89</ele>
        <time>2011-04-05T15:59:12Z</time>
      </trkpt>
      <trkpt lat="45.51216" lon="5.98062">
        <ele>341.89</ele>
        <time>2011-04-05T15:59:14Z</time>
      </trkpt>
      <trkpt lat="45.51212" lon="5.98051">
        <ele>341.89</ele>
        <time>2011-04-05T15:59:16Z</time>
      </trkpt>
      <trkpt lat="45.5121" lon="5.98046">
        <ele>342.85</ele>
        <time>2011-04-05T15:59:17Z</time>
      </trkpt>
      <trkpt lat="45.51209" lon="5.98042">
        <ele>343.81</ele>
        <time>2011-04-05T15:59:18Z</time>
      </trkpt>
      <trkpt lat="45.51208" lon="5.98039">
        <ele>344.29</ele>
        <time>2011-04-05T15:59:19Z</time>
      </trkpt>
      <trkpt lat="45.51207" lon="5.98036">
        <ele>344.29</ele>
        <time>2011-04-05T15:59:20Z</time>
      </trkpt>
      <trkpt lat="45.51201" lon="5.98018">
        <ele>343.33</ele>
        <time>2011-04-05T15:59:24Z</time>
      </trkpt>
      <trkpt lat="45.51199" lon="5.98012">
        <ele>341.89</ele>
        <time>2011-04-05T15:59:25Z</time>
      </trkpt>
      <trkpt lat="45.51199" lon="5.98005">
        <ele>341.89</ele>
        <time>2011-04-05T15:59:26Z</time>
      </trkpt>
      <trkpt lat="45.51198" lon="5.97996">
        <ele>340.92</ele>
        <time>2011-04-05T15:59:27Z</time>
      </trkpt>
      <trkpt lat="45.51198" lon="5.97987">
        <ele>339.96</ele>
        <time>2011-04-05T15:59:28Z</time>
      </trkpt>
      <trkpt lat="45.51198" lon="5.97978">
        <ele>338.52</ele>
        <time>2011-04-05T15:59:29Z</time>
      </trkpt>
      <trkpt lat="45.51199" lon="5.97971">
        <ele>338.52</ele>
        <time>2011-04-05T15:59:30Z</time>
      </trkpt>
      <trkpt lat="45.51198" lon="5.97961">
        <ele>339.48</ele>
        <time>2011-04-05T15:59:32Z</time>
      </trkpt>
      <trkpt lat="45.51196" lon="5.97958">
        <ele>339.48</ele>
        <time>2011-04-05T15:59:33Z</time>
      </trkpt>
      <trkpt lat="45.51165" lon="5.97948">
        <ele>338.52</ele>
        <time>2011-04-05T15:59:42Z</time>
      </trkpt>
      <trkpt lat="45.51162" lon="5.97945">
        <ele>338.52</ele>
        <time>2011-04-05T15:59:43Z</time>
      </trkpt>
      <trkpt lat="45.51162" lon="5.9794">
        <ele>337.56</ele>
        <time>2011-04-05T15:59:44Z</time>
      </trkpt>
      <trkpt lat="45.51161" lon="5.97933">
        <ele>336.6</ele>
        <time>2011-04-05T15:59:45Z</time>
      </trkpt>
      <trkpt lat="45.51162" lon="5.97882">
        <ele>334.68</ele>
        <time>2011-04-05T15:59:51Z</time>
      </trkpt>
      <trkpt lat="45.51162" lon="5.97815">
        <ele>331.79</ele>
        <time>2011-04-05T15:59:58Z</time>
      </trkpt>
      <trkpt lat="45.51164" lon="5.97789">
        <ele>331.79</ele>
        <time>2011-04-05T16:00:01Z</time>
      </trkpt>
      <trkpt lat="45.51167" lon="5.97781">
        <ele>331.31</ele>
        <time>2011-04-05T16:00:02Z</time>
      </trkpt>
      <trkpt lat="45.5117" lon="5.97775">
        <ele>330.83</ele>
        <time>2011-04-05T16:00:03Z</time>
      </trkpt>
      <trkpt lat="45.51175" lon="5.97771">
        <ele>330.83</ele>
        <time>2011-04-05T16:00:04Z</time>
      </trkpt>
      <trkpt lat="45.51181" lon="5.97771">
        <ele>331.31</ele>
        <time>2011-04-05T16:00:05Z</time>
      </trkpt>
      <trkpt lat="45.51186" lon="5.97772">
        <ele>331.31</ele>
        <time>2011-04-05T16:00:06Z</time>
      </trkpt>
      <trkpt lat="45.51192" lon="5.97775">
        <ele>330.83</ele>
        <time>2011-04-05T16:00:07Z</time>
      </trkpt>
      <trkpt lat="45.51197" lon="5.97779">
        <ele>330.83</ele>
        <time>2011-04-05T16:00:08Z</time>
      </trkpt>
      <trkpt lat="45.51201" lon="5.97785">
        <ele>331.31</ele>
        <time>2011-04-05T16:00:09Z</time>
      </trkpt>
      <trkpt lat="45.51205" lon="5.97791">
        <ele>331.79</ele>
        <time>2011-04-05T16:00:10Z</time>
      </trkpt>
      <trkpt lat="45.51209" lon="5.97796">
        <ele>331.79</ele>
        <time>2011-04-05T16:00:11Z</time>
      </trkpt>
      <trkpt lat="45.51214" lon="5.978">
        <ele>332.27</ele>
        <time>2011-04-05T16:00:12Z</time>
      </trkpt>
      <trkpt lat="45.51219" lon="5.978">
        <ele>332.27</ele>
        <time>2011-04-05T16:00:13Z</time>
      </trkpt>
      <trkpt lat="45.51225" lon="5.97798">
        <ele>332.27</ele>
        <time>2011-04-05T16:00:14Z</time>
      </trkpt>
      <trkpt lat="45.5123" lon="5.97794">
        <ele>332.27</ele>
        <time>2011-04-05T16:00:15Z</time>
      </trkpt>
      <trkpt lat="45.51235" lon="5.97789">
        <ele>332.27</ele>
        <time>2011-04-05T16:00:16Z</time>
      </trkpt>
      <trkpt lat="45.51241" lon="5.97785">
        <ele>331.79</ele>
        <time>2011-04-05T16:00:17Z</time>
      </trkpt>
      <trkpt lat="45.51264" lon="5.97763">
        <ele>331.79</ele>
        <time>2011-04-05T16:00:22Z</time>
      </trkpt>
      <trkpt lat="45.5127" lon="5.9776">
        <ele>331.31</ele>
        <time>2011-04-05T16:00:23Z</time>
      </trkpt>
      <trkpt lat="45.51276" lon="5.97758">
        <ele>330.83</ele>
        <time>2011-04-05T16:00:24Z</time>
      </trkpt>
      <trkpt lat="45.51281" lon="5.97759">
        <ele>330.83</ele>
        <time>2011-04-05T16:00:25Z</time>
      </trkpt>
      <trkpt lat="45.51287" lon="5.97763">
        <ele>330.83</ele>
        <time>2011-04-05T16:00:26Z</time>
      </trkpt>
      <trkpt lat="45.51292" lon="5.97768">
        <ele>330.83</ele>
        <time>2011-04-05T16:00:27Z</time>
      </trkpt>
      <trkpt lat="45.51297" lon="5.97774">
        <ele>331.31</ele>
        <time>2011-04-05T16:00:28Z</time>
      </trkpt>
      <trkpt lat="45.51357" lon="5.97841">
        <ele>330.83</ele>
        <time>2011-04-05T16:00:41Z</time>
      </trkpt>
      <trkpt lat="45.51383" lon="5.97859">
        <ele>330.35</ele>
        <time>2011-04-05T16:00:46Z</time>
      </trkpt>
      <trkpt lat="45.51388" lon="5.97859">
        <ele>330.83</ele>
        <time>2011-04-05T16:00:47Z</time>
      </trkpt>
      <trkpt lat="45.51394" lon="5.97858">
        <ele>330.83</ele>
        <time>2011-04-05T16:00:48Z</time>
      </trkpt>
      <trkpt lat="45.51399" lon="5.97857">
        <ele>329.87</ele>
        <time>2011-04-05T16:00:49Z</time>
      </trkpt>
      <trkpt lat="45.51404" lon="5.97855">
        <ele>329.87</ele>
        <time>2011-04-05T16:00:50Z</time>
      </trkpt>
      <trkpt lat="45.51476" lon="5.97833">
        <ele>330.83</ele>
        <time>2011-04-05T16:01:04Z</time>
      </trkpt>
      <trkpt lat="45.51573" lon="5.9779">
        <ele>328.43</ele>
        <time>2011-04-05T16:01:21Z</time>
      </trkpt>
      <trkpt lat="45.51666" lon="5.97749">
        <ele>326.02</ele>
        <time>2011-04-05T16:01:36Z</time>
      </trkpt>
      <trkpt lat="45.51723" lon="5.97729">
        <ele>324.1</ele>
        <time>2011-04-05T16:01:45Z</time>
      </trkpt>
      <trkpt lat="45.51728" lon="5.97725">
        <ele>323.14</ele>
        <time>2011-04-05T16:01:46Z</time>
      </trkpt>
      <trkpt lat="45.51732" lon="5.9772">
        <ele>323.14</ele>
        <time>2011-04-05T16:01:47Z</time>
      </trkpt>
      <trkpt lat="45.51736" lon="5.97715">
        <ele>323.14</ele>
        <time>2011-04-05T16:01:48Z</time>
      </trkpt>
      <trkpt lat="45.51739" lon="5.97708">
        <ele>323.14</ele>
        <time>2011-04-05T16:01:49Z</time>
      </trkpt>
      <trkpt lat="45.51743" lon="5.977">
        <ele>322.66</ele>
        <time>2011-04-05T16:01:50Z</time>
      </trkpt>
      <trkpt lat="45.51747" lon="5.97694">
        <ele>322.18</ele>
        <time>2011-04-05T16:01:51Z</time>
      </trkpt>
      <trkpt lat="45.51778" lon="5.97643">
        <ele>321.7</ele>
        <time>2011-04-05T16:01:58Z</time>
      </trkpt>
      <trkpt lat="45.51832" lon="5.9756">
        <ele>320.74</ele>
        <time>2011-04-05T16:02:10Z</time>
      </trkpt>
      <trkpt lat="45.51843" lon="5.97551">
        <ele>320.26</ele>
        <time>2011-04-05T16:02:12Z</time>
      </trkpt>
      <trkpt lat="45.51849" lon="5.97551">
        <ele>320.26</ele>
        <time>2011-04-05T16:02:13Z</time>
      </trkpt>
      <trkpt lat="45.51855" lon="5.97551">
        <ele>319.78</ele>
        <time>2011-04-05T16:02:14Z</time>
      </trkpt>
      <trkpt lat="45.51861" lon="5.9755">
        <ele>320.26</ele>
        <time>2011-04-05T16:02:15Z</time>
      </trkpt>
      <trkpt lat="45.51867" lon="5.97549">
        <ele>320.26</ele>
        <time>2011-04-05T16:02:16Z</time>
      </trkpt>
      <trkpt lat="45.51871" lon="5.97545">
        <ele>320.74</ele>
        <time>2011-04-05T16:02:17Z</time>
      </trkpt>
      <trkpt lat="45.51873" lon="5.97539">
        <ele>320.26</ele>
        <time>2011-04-05T16:02:18Z</time>
      </trkpt>
      <trkpt lat="45.51874" lon="5.97532">
        <ele>320.74</ele>
        <time>2011-04-05T16:02:19Z</time>
      </trkpt>
      <trkpt lat="45.51874" lon="5.97525">
        <ele>320.74</ele>
        <time>2011-04-05T16:02:20Z</time>
      </trkpt>
      <trkpt lat="45.51874" lon="5.97512">
        <ele>321.22</ele>
        <time>2011-04-05T16:02:22Z</time>
      </trkpt>
      <trkpt lat="45.51874" lon="5.97506">
        <ele>321.7</ele>
        <time>2011-04-05T16:02:23Z</time>
      </trkpt>
      <trkpt lat="45.51873" lon="5.97459">
        <ele>322.18</ele>
        <time>2011-04-05T16:02:30Z</time>
      </trkpt>
      <trkpt lat="45.51875" lon="5.97453">
        <ele>322.18</ele>
        <time>2011-04-05T16:02:31Z</time>
      </trkpt>
      <trkpt lat="45.51877" lon="5.97447">
        <ele>321.7</ele>
        <time>2011-04-05T16:02:32Z</time>
      </trkpt>
      <trkpt lat="45.5188" lon="5.97442">
        <ele>321.7</ele>
        <time>2011-04-05T16:02:33Z</time>
      </trkpt>
      <trkpt lat="45.51885" lon="5.97438">
        <ele>321.7</ele>
        <time>2011-04-05T16:02:34Z</time>
      </trkpt>
      <trkpt lat="45.51889" lon="5.97434">
        <ele>322.18</ele>
        <time>2011-04-05T16:02:35Z</time>
      </trkpt>
      <trkpt lat="45.51955" lon="5.97379">
        <ele>322.18</ele>
        <time>2011-04-05T16:02:50Z</time>
      </trkpt>
      <trkpt lat="45.51966" lon="5.97368">
        <ele>322.66</ele>
        <time>2011-04-05T16:02:53Z</time>
      </trkpt>
      <trkpt lat="45.5197" lon="5.97366">
        <ele>322.66</ele>
        <time>2011-04-05T16:02:54Z</time>
      </trkpt>
      <trkpt lat="45.5198" lon="5.97358">
        <ele>322.66</ele>
        <time>2011-04-05T16:02:57Z</time>
      </trkpt>
      <trkpt lat="45.51981" lon="5.97355">
        <ele>322.66</ele>
        <time>2011-04-05T16:02:58Z</time>
      </trkpt>
      <trkpt lat="45.51981" lon="5.97352">
        <ele>323.14</ele>
        <time>2011-04-05T16:02:59Z</time>
      </trkpt>
      <trkpt lat="45.5198" lon="5.9735">
        <ele>323.14</ele>
        <time>2011-04-05T16:03:00Z</time>
      </trkpt>
      <trkpt lat="45.51978" lon="5.97347">
        <ele>323.14</ele>
        <time>2011-04-05T16:03:01Z</time>
      </trkpt>
      <trkpt lat="45.51975" lon="5.97344">
        <ele>323.14</ele>
        <time>2011-04-05T16:03:02Z</time>
      </trkpt>
      <trkpt lat="45.51972" lon="5.97341">
        <ele>322.66</ele>
        <time>2011-04-05T16:03:03Z</time>
      </trkpt>
      <trkpt lat="45.51969" lon="5.97339">
        <ele>323.14</ele>
        <time>2011-04-05T16:03:04Z</time>
      </trkpt>
      <trkpt lat="45.51965" lon="5.97336">
        <ele>323.62</ele>
        <time>2011-04-05T16:03:05Z</time>
      </trkpt>
      <trkpt lat="45.51912" lon="5.97302">
        <ele>325.54</ele>
        <time>2011-04-05T16:03:19Z</time>
      </trkpt>
      <trkpt lat="45.5188" lon="5.97258">
        <ele>328.43</ele>
        <time>2011-04-05T16:03:32Z</time>
      </trkpt>
      <trkpt lat="45.51846" lon="5.97215">
        <ele>329.87</ele>
        <time>2011-04-05T16:03:44Z</time>
      </trkpt>
      <trkpt lat="45.51843" lon="5.97211">
        <ele>328.91</ele>
        <time>2011-04-05T16:03:45Z</time>
      </trkpt>
      <trkpt lat="45.51842" lon="5.97206">
        <ele>329.87</ele>
        <time>2011-04-05T16:03:46Z</time>
      </trkpt>
      <trkpt lat="45.51841" lon="5.972">
        <ele>329.87</ele>
        <time>2011-04-05T16:03:47Z</time>
      </trkpt>
      <trkpt lat="45.51841" lon="5.97195">
        <ele>329.87</ele>
        <time>2011-04-05T16:03:48Z</time>
      </trkpt>
      <trkpt lat="45.51841" lon="5.97189">
        <ele>330.35</ele>
        <time>2011-04-05T16:03:49Z</time>
      </trkpt>
      <trkpt lat="45.51841" lon="5.97183">
        <ele>330.35</ele>
        <time>2011-04-05T16:03:50Z</time>
      </trkpt>
      <trkpt lat="45.51842" lon="5.97177">
        <ele>330.35</ele>
        <time>2011-04-05T16:03:51Z</time>
      </trkpt>
      <trkpt lat="45.51841" lon="5.97172">
        <ele>329.87</ele>
        <time>2011-04-05T16:03:52Z</time>
      </trkpt>
      <trkpt lat="45.51839" lon="5.97166">
        <ele>330.35</ele>
        <time>2011-04-05T16:03:53Z</time>
      </trkpt>
      <trkpt lat="45.51838" lon="5.9716">
        <ele>330.35</ele>
        <time>2011-04-05T16:03:54Z</time>
      </trkpt>
      <trkpt lat="45.51835" lon="5.97155">
        <ele>330.35</ele>
        <time>2011-04-05T16:03:55Z</time>
      </trkpt>
      <trkpt lat="45.51823" lon="5.97126">
        <ele>329.87</ele>
        <time>2011-04-05T16:04:00Z</time>
      </trkpt>
      <trkpt lat="45.51822" lon="5.9712">
        <ele>330.35</ele>
        <time>2011-04-05T16:04:01Z</time>
      </trkpt>
      <trkpt lat="45.51821" lon="5.97113">
        <ele>329.87</ele>
        <time>2011-04-05T16:04:02Z</time>
      </trkpt>
      <trkpt lat="45.51819" lon="5.97078">
        <ele>329.87</ele>
        <time>2011-04-05T16:04:07Z</time>
      </trkpt>
      <trkpt lat="45.51818" lon="5.97071">
        <ele>329.87</ele>
        <time>2011-04-05T16:04:08Z</time>
      </trkpt>
      <trkpt lat="45.51807" lon="5.97028">
        <ele>328.43</ele>
        <time>2011-04-05T16:04:14Z</time>
      </trkpt>
      <trkpt lat="45.51802" lon="5.97015">
        <ele>327.95</ele>
        <time>2011-04-05T16:04:16Z</time>
      </trkpt>
      <trkpt lat="45.51801" lon="5.97009">
        <ele>326.99</ele>
        <time>2011-04-05T16:04:17Z</time>
      </trkpt>
      <trkpt lat="45.51797" lon="5.96997">
        <ele>326.02</ele>
        <time>2011-04-05T16:04:19Z</time>
      </trkpt>
      <trkpt lat="45.51797" lon="5.9699">
        <ele>326.02</ele>
        <time>2011-04-05T16:04:20Z</time>
      </trkpt>
      <trkpt lat="45.51797" lon="5.96983">
        <ele>325.06</ele>
        <time>2011-04-05T16:04:21Z</time>
      </trkpt>
      <trkpt lat="45.51795" lon="5.96975">
        <ele>325.06</ele>
        <time>2011-04-05T16:04:22Z</time>
      </trkpt>
      <trkpt lat="45.51793" lon="5.96968">
        <ele>324.58</ele>
        <time>2011-04-05T16:04:23Z</time>
      </trkpt>
      <trkpt lat="45.51791" lon="5.96961">
        <ele>324.58</ele>
        <time>2011-04-05T16:04:24Z</time>
      </trkpt>
      <trkpt lat="45.51788" lon="5.96955">
        <ele>325.06</ele>
        <time>2011-04-05T16:04:25Z</time>
      </trkpt>
      <trkpt lat="45.51786" lon="5.96948">
        <ele>325.06</ele>
        <time>2011-04-05T16:04:26Z</time>
      </trkpt>
      <trkpt lat="45.51784" lon="5.96941">
        <ele>325.06</ele>
        <time>2011-04-05T16:04:27Z</time>
      </trkpt>
      <trkpt lat="45.51772" lon="5.96905">
        <ele>323.62</ele>
        <time>2011-04-05T16:04:32Z</time>
      </trkpt>
      <trkpt lat="45.5177" lon="5.96898">
        <ele>323.62</ele>
        <time>2011-04-05T16:04:33Z</time>
      </trkpt>
      <trkpt lat="45.51769" lon="5.96891">
        <ele>323.62</ele>
        <time>2011-04-05T16:04:34Z</time>
      </trkpt>
      <trkpt lat="45.51768" lon="5.96885">
        <ele>324.1</ele>
        <time>2011-04-05T16:04:35Z</time>
      </trkpt>
      <trkpt lat="45.51767" lon="5.96878">
        <ele>324.1</ele>
        <time>2011-04-05T16:04:36Z</time>
      </trkpt>
      <trkpt lat="45.51765" lon="5.96871">
        <ele>324.1</ele>
        <time>2011-04-05T16:04:37Z</time>
      </trkpt>
      <trkpt lat="45.51763" lon="5.96864">
        <ele>323.62</ele>
        <time>2011-04-05T16:04:38Z</time>
      </trkpt>
      <trkpt lat="45.51761" lon="5.96857">
        <ele>323.62</ele>
        <time>2011-04-05T16:04:39Z</time>
      </trkpt>
      <trkpt lat="45.51756" lon="5.96853">
        <ele>323.14</ele>
        <time>2011-04-05T16:04:40Z</time>
      </trkpt>
      <trkpt lat="45.51751" lon="5.96851">
        <ele>323.14</ele>
        <time>2011-04-05T16:04:41Z</time>
      </trkpt>
      <trkpt lat="45.51746" lon="5.96851">
        <ele>323.62</ele>
        <time>2011-04-05T16:04:42Z</time>
      </trkpt>
      <trkpt lat="45.51741" lon="5.96853">
        <ele>323.62</ele>
        <time>2011-04-05T16:04:43Z</time>
      </trkpt>
      <trkpt lat="45.51736" lon="5.96854">
        <ele>323.14</ele>
        <time>2011-04-05T16:04:44Z</time>
      </trkpt>
      <trkpt lat="45.5173" lon="5.96855">
        <ele>323.62</ele>
        <time>2011-04-05T16:04:45Z</time>
      </trkpt>
      <trkpt lat="45.51725" lon="5.96857">
        <ele>323.14</ele>
        <time>2011-04-05T16:04:46Z</time>
      </trkpt>
      <trkpt lat="45.5172" lon="5.9686">
        <ele>323.62</ele>
        <time>2011-04-05T16:04:47Z</time>
      </trkpt>
      <trkpt lat="45.51709" lon="5.96864">
        <ele>323.62</ele>
        <time>2011-04-05T16:04:49Z</time>
      </trkpt>
      <trkpt lat="45.51693" lon="5.9687">
        <ele>322.66</ele>
        <time>2011-04-05T16:04:52Z</time>
      </trkpt>
      <trkpt lat="45.51687" lon="5.96872">
        <ele>323.14</ele>
        <time>2011-04-05T16:04:53Z</time>
      </trkpt>
      <trkpt lat="45.51682" lon="5.96874">
        <ele>322.66</ele>
        <time>2011-04-05T16:04:54Z</time>
      </trkpt>
      <trkpt lat="45.51676" lon="5.96875">
        <ele>323.14</ele>
        <time>2011-04-05T16:04:55Z</time>
      </trkpt>
      <trkpt lat="45.51671" lon="5.96877">
        <ele>322.66</ele>
        <time>2011-04-05T16:04:56Z</time>
      </trkpt>
      <trkpt lat="45.51659" lon="5.9688">
        <ele>322.18</ele>
        <time>2011-04-05T16:04:58Z</time>
      </trkpt>
      <trkpt lat="45.51653" lon="5.96876">
        <ele>322.18</ele>
        <time>2011-04-05T16:04:59Z</time>
      </trkpt>
      <trkpt lat="45.51649" lon="5.96871">
        <ele>322.18</ele>
        <time>2011-04-05T16:05:00Z</time>
      </trkpt>
      <trkpt lat="45.51642" lon="5.96861">
        <ele>322.18</ele>
        <time>2011-04-05T16:05:02Z</time>
      </trkpt>
      <trkpt lat="45.51637" lon="5.96859">
        <ele>322.18</ele>
        <time>2011-04-05T16:05:03Z</time>
      </trkpt>
      <trkpt lat="45.51632" lon="5.96857">
        <ele>322.18</ele>
        <time>2011-04-05T16:05:04Z</time>
      </trkpt>
      <trkpt lat="45.51622" lon="5.96854">
        <ele>321.7</ele>
        <time>2011-04-05T16:05:06Z</time>
      </trkpt>
      <trkpt lat="45.51618" lon="5.9685">
        <ele>321.7</ele>
        <time>2011-04-05T16:05:07Z</time>
      </trkpt>
      <trkpt lat="45.51616" lon="5.96844">
        <ele>321.7</ele>
        <time>2011-04-05T16:05:08Z</time>
      </trkpt>
      <trkpt lat="45.51613" lon="5.96836">
        <ele>322.18</ele>
        <time>2011-04-05T16:05:09Z</time>
      </trkpt>
      <trkpt lat="45.51611" lon="5.96828">
        <ele>321.7</ele>
        <time>2011-04-05T16:05:10Z</time>
      </trkpt>
      <trkpt lat="45.51605" lon="5.96814">
        <ele>321.22</ele>
        <time>2011-04-05T16:05:12Z</time>
      </trkpt>
      <trkpt lat="45.51604" lon="5.96805">
        <ele>321.7</ele>
        <time>2011-04-05T16:05:13Z</time>
      </trkpt>
      <trkpt lat="45.51604" lon="5.96797">
        <ele>321.22</ele>
        <time>2011-04-05T16:05:14Z</time>
      </trkpt>
      <trkpt lat="45.51604" lon="5.96789">
        <ele>321.22</ele>
        <time>2011-04-05T16:05:15Z</time>
      </trkpt>
      <trkpt lat="45.51604" lon="5.96781">
        <ele>321.22</ele>
        <time>2011-04-05T16:05:16Z</time>
      </trkpt>
      <trkpt lat="45.51604" lon="5.96772">
        <ele>321.22</ele>
        <time>2011-04-05T16:05:17Z</time>
      </trkpt>
      <trkpt lat="45.51603" lon="5.96764">
        <ele>320.74</ele>
        <time>2011-04-05T16:05:18Z</time>
      </trkpt>
      <trkpt lat="45.51601" lon="5.96739">
        <ele>320.74</ele>
        <time>2011-04-05T16:05:21Z</time>
      </trkpt>
      <trkpt lat="45.516" lon="5.96731">
        <ele>321.22</ele>
        <time>2011-04-05T16:05:22Z</time>
      </trkpt>
      <trkpt lat="45.51598" lon="5.96724">
        <ele>321.22</ele>
        <time>2011-04-05T16:05:23Z</time>
      </trkpt>
      <trkpt lat="45.51593" lon="5.9671">
        <ele>321.7</ele>
        <time>2011-04-05T16:05:25Z</time>
      </trkpt>
      <trkpt lat="45.51585" lon="5.96691">
        <ele>321.22</ele>
        <time>2011-04-05T16:05:28Z</time>
      </trkpt>
      <trkpt lat="45.51584" lon="5.96684">
        <ele>321.22</ele>
        <time>2011-04-05T16:05:29Z</time>
      </trkpt>
      <trkpt lat="45.51584" lon="5.96677">
        <ele>320.74</ele>
        <time>2011-04-05T16:05:30Z</time>
      </trkpt>
      <trkpt lat="45.51586" lon="5.9667">
        <ele>320.74</ele>
        <time>2011-04-05T16:05:31Z</time>
      </trkpt>
      <trkpt lat="45.51589" lon="5.96663">
        <ele>320.74</ele>
        <time>2011-04-05T16:05:32Z</time>
      </trkpt>
      <trkpt lat="45.51593" lon="5.96657">
        <ele>320.26</ele>
        <time>2011-04-05T16:05:33Z</time>
      </trkpt>
      <trkpt lat="45.51597" lon="5.96652">
        <ele>319.78</ele>
        <time>2011-04-05T16:05:34Z</time>
      </trkpt>
      <trkpt lat="45.51602" lon="5.96647">
        <ele>320.74</ele>
        <time>2011-04-05T16:05:35Z</time>
      </trkpt>
      <trkpt lat="45.51607" lon="5.96643">
        <ele>319.78</ele>
        <time>2011-04-05T16:05:36Z</time>
      </trkpt>
      <trkpt lat="45.51613" lon="5.9664">
        <ele>320.26</ele>
        <time>2011-04-05T16:05:37Z</time>
      </trkpt>
      <trkpt lat="45.51618" lon="5.96639">
        <ele>320.26</ele>
        <time>2011-04-05T16:05:38Z</time>
      </trkpt>
      <trkpt lat="45.51708" lon="5.96617">
        <ele>320.26</ele>
        <time>2011-04-05T16:05:53Z</time>
      </trkpt>
      <trkpt lat="45.51719" lon="5.96613">
        <ele>319.78</ele>
        <time>2011-04-05T16:05:55Z</time>
      </trkpt>
      <trkpt lat="45.51736" lon="5.96609">
        <ele>319.3</ele>
        <time>2011-04-05T16:05:58Z</time>
      </trkpt>
      <trkpt lat="45.51747" lon="5.96606">
        <ele>319.78</ele>
        <time>2011-04-05T16:06:00Z</time>
      </trkpt>
      <trkpt lat="45.51783" lon="5.9659">
        <ele>318.81</ele>
        <time>2011-04-05T16:06:07Z</time>
      </trkpt>
      <trkpt lat="45.51786" lon="5.96584">
        <ele>319.3</ele>
        <time>2011-04-05T16:06:08Z</time>
      </trkpt>
      <trkpt lat="45.51787" lon="5.96577">
        <ele>318.33</ele>
        <time>2011-04-05T16:06:09Z</time>
      </trkpt>
      <trkpt lat="45.51787" lon="5.9657">
        <ele>318.81</ele>
        <time>2011-04-05T16:06:10Z</time>
      </trkpt>
      <trkpt lat="45.51786" lon="5.96563">
        <ele>318.81</ele>
        <time>2011-04-05T16:06:11Z</time>
      </trkpt>
      <trkpt lat="45.51786" lon="5.96556">
        <ele>318.81</ele>
        <time>2011-04-05T16:06:12Z</time>
      </trkpt>
      <trkpt lat="45.51784" lon="5.96541">
        <ele>318.33</ele>
        <time>2011-04-05T16:06:14Z</time>
      </trkpt>
      <trkpt lat="45.51782" lon="5.96526">
        <ele>318.33</ele>
        <time>2011-04-05T16:06:16Z</time>
      </trkpt>
      <trkpt lat="45.51783" lon="5.96518">
        <ele>318.81</ele>
        <time>2011-04-05T16:06:17Z</time>
      </trkpt>
      <trkpt lat="45.51785" lon="5.96511">
        <ele>318.81</ele>
        <time>2011-04-05T16:06:18Z</time>
      </trkpt>
      <trkpt lat="45.51788" lon="5.96506">
        <ele>318.33</ele>
        <time>2011-04-05T16:06:19Z</time>
      </trkpt>
      <trkpt lat="45.51793" lon="5.96502">
        <ele>318.33</ele>
        <time>2011-04-05T16:06:20Z</time>
      </trkpt>
      <trkpt lat="45.51798" lon="5.96501">
        <ele>318.81</ele>
        <time>2011-04-05T16:06:21Z</time>
      </trkpt>
      <trkpt lat="45.51803" lon="5.96501">
        <ele>318.33</ele>
        <time>2011-04-05T16:06:22Z</time>
      </trkpt>
      <trkpt lat="45.5182" lon="5.965">
        <ele>318.33</ele>
        <time>2011-04-05T16:06:25Z</time>
      </trkpt>
      <trkpt lat="45.51825" lon="5.96496">
        <ele>318.81</ele>
        <time>2011-04-05T16:06:26Z</time>
      </trkpt>
      <trkpt lat="45.5183" lon="5.96491">
        <ele>317.85</ele>
        <time>2011-04-05T16:06:27Z</time>
      </trkpt>
      <trkpt lat="45.51833" lon="5.96484">
        <ele>318.33</ele>
        <time>2011-04-05T16:06:28Z</time>
      </trkpt>
      <trkpt lat="45.51834" lon="5.96476">
        <ele>317.85</ele>
        <time>2011-04-05T16:06:29Z</time>
      </trkpt>
      <trkpt lat="45.51834" lon="5.96467">
        <ele>317.85</ele>
        <time>2011-04-05T16:06:30Z</time>
      </trkpt>
      <trkpt lat="45.51835" lon="5.96459">
        <ele>317.85</ele>
        <time>2011-04-05T16:06:31Z</time>
      </trkpt>
      <trkpt lat="45.5184" lon="5.96324">
        <ele>317.37</ele>
        <time>2011-04-05T16:06:47Z</time>
      </trkpt>
      <trkpt lat="45.5184" lon="5.96316">
        <ele>316.89</ele>
        <time>2011-04-05T16:06:48Z</time>
      </trkpt>
      <trkpt lat="45.5184" lon="5.96308">
        <ele>317.37</ele>
        <time>2011-04-05T16:06:49Z</time>
      </trkpt>
      <trkpt lat="45.51841" lon="5.963">
        <ele>317.37</ele>
        <time>2011-04-05T16:06:50Z</time>
      </trkpt>
      <trkpt lat="45.51841" lon="5.96276">
        <ele>317.37</ele>
        <time>2011-04-05T16:06:53Z</time>
      </trkpt>
      <trkpt lat="45.51842" lon="5.96268">
        <ele>316.89</ele>
        <time>2011-04-05T16:06:54Z</time>
      </trkpt>
      <trkpt lat="45.51843" lon="5.96246">
        <ele>317.37</ele>
        <time>2011-04-05T16:06:57Z</time>
      </trkpt>
      <trkpt lat="45.51844" lon="5.96238">
        <ele>316.89</ele>
        <time>2011-04-05T16:06:58Z</time>
      </trkpt>
      <trkpt lat="45.5185" lon="5.96207">
        <ele>316.41</ele>
        <time>2011-04-05T16:07:02Z</time>
      </trkpt>
      <trkpt lat="45.51853" lon="5.962">
        <ele>316.89</ele>
        <time>2011-04-05T16:07:03Z</time>
      </trkpt>
      <trkpt lat="45.51856" lon="5.96193">
        <ele>316.89</ele>
        <time>2011-04-05T16:07:04Z</time>
      </trkpt>
      <trkpt lat="45.51857" lon="5.96186">
        <ele>316.89</ele>
        <time>2011-04-05T16:07:05Z</time>
      </trkpt>
      <trkpt lat="45.51857" lon="5.96178">
        <ele>316.89</ele>
        <time>2011-04-05T16:07:06Z</time>
      </trkpt>
      <trkpt lat="45.51857" lon="5.9617">
        <ele>316.89</ele>
        <time>2011-04-05T16:07:07Z</time>
      </trkpt>
      <trkpt lat="45.51856" lon="5.96162">
        <ele>316.89</ele>
        <time>2011-04-05T16:07:08Z</time>
      </trkpt>
      <trkpt lat="45.51855" lon="5.96155">
        <ele>316.41</ele>
        <time>2011-04-05T16:07:09Z</time>
      </trkpt>
      <trkpt lat="45.51853" lon="5.96148">
        <ele>317.37</ele>
        <time>2011-04-05T16:07:10Z</time>
      </trkpt>
      <trkpt lat="45.51851" lon="5.96141">
        <ele>316.89</ele>
        <time>2011-04-05T16:07:11Z</time>
      </trkpt>
      <trkpt lat="45.51829" lon="5.96041">
        <ele>317.37</ele>
        <time>2011-04-05T16:07:25Z</time>
      </trkpt>
      <trkpt lat="45.51804" lon="5.95906">
        <ele>318.81</ele>
        <time>2011-04-05T16:07:45Z</time>
      </trkpt>
      <trkpt lat="45.5182" lon="5.95793">
        <ele>318.81</ele>
        <time>2011-04-05T16:08:02Z</time>
      </trkpt>
      <trkpt lat="45.51824" lon="5.9577">
        <ele>318.33</ele>
        <time>2011-04-05T16:08:06Z</time>
      </trkpt>
      <trkpt lat="45.51827" lon="5.95767">
        <ele>318.33</ele>
        <time>2011-04-05T16:08:07Z</time>
      </trkpt>
      <trkpt lat="45.5183" lon="5.95765">
        <ele>319.3</ele>
        <time>2011-04-05T16:08:08Z</time>
      </trkpt>
      <trkpt lat="45.51888" lon="5.95724">
        <ele>319.3</ele>
        <time>2011-04-05T16:08:22Z</time>
      </trkpt>
      <trkpt lat="45.51916" lon="5.95694">
        <ele>318.33</ele>
        <time>2011-04-05T16:08:30Z</time>
      </trkpt>
      <trkpt lat="45.51918" lon="5.95689">
        <ele>318.81</ele>
        <time>2011-04-05T16:08:31Z</time>
      </trkpt>
      <trkpt lat="45.51921" lon="5.95685">
        <ele>318.81</ele>
        <time>2011-04-05T16:08:32Z</time>
      </trkpt>
      <trkpt lat="45.51923" lon="5.9568">
        <ele>318.33</ele>
        <time>2011-04-05T16:08:33Z</time>
      </trkpt>
      <trkpt lat="45.51924" lon="5.95675">
        <ele>318.81</ele>
        <time>2011-04-05T16:08:34Z</time>
      </trkpt>
      <trkpt lat="45.51924" lon="5.95669">
        <ele>318.33</ele>
        <time>2011-04-05T16:08:35Z</time>
      </trkpt>
      <trkpt lat="45.51924" lon="5.95664">
        <ele>318.33</ele>
        <time>2011-04-05T16:08:36Z</time>
      </trkpt>
      <trkpt lat="45.51923" lon="5.95658">
        <ele>317.85</ele>
        <time>2011-04-05T16:08:37Z</time>
      </trkpt>
      <trkpt lat="45.51923" lon="5.95652">
        <ele>317.85</ele>
        <time>2011-04-05T16:08:38Z</time>
      </trkpt>
      <trkpt lat="45.51914" lon="5.95608">
        <ele>321.22</ele>
        <time>2011-04-05T16:08:49Z</time>
      </trkpt>
      <trkpt lat="45.51897" lon="5.95566">
        <ele>323.14</ele>
        <time>2011-04-05T16:09:04Z</time>
      </trkpt>
      <trkpt lat="45.51887" lon="5.95536">
        <ele>326.02</ele>
        <time>2011-04-05T16:09:18Z</time>
      </trkpt>
      <trkpt lat="45.51883" lon="5.95505">
        <ele>328.91</ele>
        <time>2011-04-05T16:09:32Z</time>
      </trkpt>
      <trkpt lat="45.51883" lon="5.95471">
        <ele>331.79</ele>
        <time>2011-04-05T16:09:48Z</time>
      </trkpt>
      <trkpt lat="45.51886" lon="5.9546">
        <ele>332.75</ele>
        <time>2011-04-05T16:09:54Z</time>
      </trkpt>
      <trkpt lat="45.51886" lon="5.95458">
        <ele>332.75</ele>
        <time>2011-04-05T16:09:55Z</time>
      </trkpt>
      <trkpt lat="45.51885" lon="5.95432">
        <ele>335.64</ele>
        <time>2011-04-05T16:10:09Z</time>
      </trkpt>
      <trkpt lat="45.51883" lon="5.95415">
        <ele>339</ele>
        <time>2011-04-05T16:10:20Z</time>
      </trkpt>
      <trkpt lat="45.51882" lon="5.95398">
        <ele>342.37</ele>
        <time>2011-04-05T16:10:31Z</time>
      </trkpt>
      <trkpt lat="45.51883" lon="5.95397">
        <ele>342.37</ele>
        <time>2011-04-05T16:10:32Z</time>
      </trkpt>
      <trkpt lat="45.51883" lon="5.95395">
        <ele>341.89</ele>
        <time>2011-04-05T16:10:33Z</time>
      </trkpt>
      <trkpt lat="45.51882" lon="5.95394">
        <ele>342.37</ele>
        <time>2011-04-05T16:10:34Z</time>
      </trkpt>
      <trkpt lat="45.51881" lon="5.95392">
        <ele>342.85</ele>
        <time>2011-04-05T16:10:35Z</time>
      </trkpt>
      <trkpt lat="45.51876" lon="5.95361">
        <ele>345.25</ele>
        <time>2011-04-05T16:10:52Z</time>
      </trkpt>
      <trkpt lat="45.51875" lon="5.95335">
        <ele>348.13</ele>
        <time>2011-04-05T16:11:07Z</time>
      </trkpt>
      <trkpt lat="45.51872" lon="5.95305">
        <ele>350.06</ele>
        <time>2011-04-05T16:11:22Z</time>
      </trkpt>
      <trkpt lat="45.51863" lon="5.95272">
        <ele>352.94</ele>
        <time>2011-04-05T16:11:38Z</time>
      </trkpt>
      <trkpt lat="45.51853" lon="5.95265">
        <ele>354.86</ele>
        <time>2011-04-05T16:11:46Z</time>
      </trkpt>
      <trkpt lat="45.51852" lon="5.95265">
        <ele>355.34</ele>
        <time>2011-04-05T16:11:47Z</time>
      </trkpt>
      <trkpt lat="45.51851" lon="5.95265">
        <ele>355.34</ele>
        <time>2011-04-05T16:11:48Z</time>
      </trkpt>
      <trkpt lat="45.5185" lon="5.95265">
        <ele>355.34</ele>
        <time>2011-04-05T16:11:49Z</time>
      </trkpt>
      <trkpt lat="45.51849" lon="5.95265">
        <ele>355.83</ele>
        <time>2011-04-05T16:11:50Z</time>
      </trkpt>
      <trkpt lat="45.51848" lon="5.95264">
        <ele>355.83</ele>
        <time>2011-04-05T16:11:51Z</time>
      </trkpt>
      <trkpt lat="45.51847" lon="5.95264">
        <ele>356.79</ele>
        <time>2011-04-05T16:11:52Z</time>
      </trkpt>
      <trkpt lat="45.51846" lon="5.95264">
        <ele>356.31</ele>
        <time>2011-04-05T16:11:53Z</time>
      </trkpt>
      <trkpt lat="45.51844" lon="5.95264">
        <ele>356.79</ele>
        <time>2011-04-05T16:11:54Z</time>
      </trkpt>
      <trkpt lat="45.51843" lon="5.95264">
        <ele>356.79</ele>
        <time>2011-04-05T16:11:55Z</time>
      </trkpt>
      <trkpt lat="45.51841" lon="5.95264">
        <ele>356.79</ele>
        <time>2011-04-05T16:11:56Z</time>
      </trkpt>
      <trkpt lat="45.51841" lon="5.95262">
        <ele>356.79</ele>
        <time>2011-04-05T16:11:57Z</time>
      </trkpt>
      <trkpt lat="45.51841" lon="5.9526">
        <ele>357.27</ele>
        <time>2011-04-05T16:11:58Z</time>
      </trkpt>
      <trkpt lat="45.51843" lon="5.95258">
        <ele>357.27</ele>
        <time>2011-04-05T16:11:59Z</time>
      </trkpt>
      <trkpt lat="45.51844" lon="5.95257">
        <ele>357.75</ele>
        <time>2011-04-05T16:12:00Z</time>
      </trkpt>
      <trkpt lat="45.51847" lon="5.95256">
        <ele>357.75</ele>
        <time>2011-04-05T16:12:01Z</time>
      </trkpt>
      <trkpt lat="45.51887" lon="5.95227">
        <ele>359.19</ele>
        <time>2011-04-05T16:12:16Z</time>
      </trkpt>
      <trkpt lat="45.51914" lon="5.95191">
        <ele>359.67</ele>
        <time>2011-04-05T16:12:28Z</time>
      </trkpt>
      <trkpt lat="45.51957" lon="5.95152">
        <ele>361.11</ele>
        <time>2011-04-05T16:12:43Z</time>
      </trkpt>
      <trkpt lat="45.52021" lon="5.95126">
        <ele>361.11</ele>
        <time>2011-04-05T16:12:59Z</time>
      </trkpt>
      <trkpt lat="45.52064" lon="5.95098">
        <ele>360.63</ele>
        <time>2011-04-05T16:13:09Z</time>
      </trkpt>
      <trkpt lat="45.52073" lon="5.95093">
        <ele>360.63</ele>
        <time>2011-04-05T16:13:11Z</time>
      </trkpt>
      <trkpt lat="45.52078" lon="5.95091">
        <ele>360.63</ele>
        <time>2011-04-05T16:13:12Z</time>
      </trkpt>
      <trkpt lat="45.52107" lon="5.95078">
        <ele>359.19</ele>
        <time>2011-04-05T16:13:18Z</time>
      </trkpt>
      <trkpt lat="45.52118" lon="5.95073">
        <ele>357.75</ele>
        <time>2011-04-05T16:13:20Z</time>
      </trkpt>
      <trkpt lat="45.52137" lon="5.9506">
        <ele>355.34</ele>
        <time>2011-04-05T16:13:24Z</time>
      </trkpt>
      <trkpt lat="45.5214" lon="5.95055">
        <ele>354.86</ele>
        <time>2011-04-05T16:13:25Z</time>
      </trkpt>
      <trkpt lat="45.52142" lon="5.95049">
        <ele>354.38</ele>
        <time>2011-04-05T16:13:26Z</time>
      </trkpt>
      <trkpt lat="45.52142" lon="5.95043">
        <ele>353.42</ele>
        <time>2011-04-05T16:13:27Z</time>
      </trkpt>
      <trkpt lat="45.52143" lon="5.95036">
        <ele>353.9</ele>
        <time>2011-04-05T16:13:28Z</time>
      </trkpt>
      <trkpt lat="45.52145" lon="5.9503">
        <ele>353.9</ele>
        <time>2011-04-05T16:13:29Z</time>
      </trkpt>
      <trkpt lat="45.52148" lon="5.95026">
        <ele>353.42</ele>
        <time>2011-04-05T16:13:30Z</time>
      </trkpt>
      <trkpt lat="45.52152" lon="5.95024">
        <ele>353.42</ele>
        <time>2011-04-05T16:13:31Z</time>
      </trkpt>
      <trkpt lat="45.52155" lon="5.95024">
        <ele>353.9</ele>
        <time>2011-04-05T16:13:32Z</time>
      </trkpt>
      <trkpt lat="45.52158" lon="5.95024">
        <ele>353.42</ele>
        <time>2011-04-05T16:13:33Z</time>
      </trkpt>
      <trkpt lat="45.52162" lon="5.95026">
        <ele>353.9</ele>
        <time>2011-04-05T16:13:34Z</time>
      </trkpt>
      <trkpt lat="45.52177" lon="5.95032">
        <ele>354.38</ele>
        <time>2011-04-05T16:13:38Z</time>
      </trkpt>
      <trkpt lat="45.522" lon="5.95035">
        <ele>355.34</ele>
        <time>2011-04-05T16:13:44Z</time>
      </trkpt>
      <trkpt lat="45.52204" lon="5.95035">
        <ele>355.34</ele>
        <time>2011-04-05T16:13:45Z</time>
      </trkpt>
      <trkpt lat="45.52208" lon="5.95034">
        <ele>355.34</ele>
        <time>2011-04-05T16:13:46Z</time>
      </trkpt>
      <trkpt lat="45.52216" lon="5.95033">
        <ele>354.86</ele>
        <time>2011-04-05T16:13:48Z</time>
      </trkpt>
      <trkpt lat="45.52224" lon="5.95032">
        <ele>354.86</ele>
        <time>2011-04-05T16:13:50Z</time>
      </trkpt>
      <trkpt lat="45.52238" lon="5.95027">
        <ele>353.9</ele>
        <time>2011-04-05T16:13:53Z</time>
      </trkpt>
      <trkpt lat="45.52244" lon="5.95025">
        <ele>353.42</ele>
        <time>2011-04-05T16:13:54Z</time>
      </trkpt>
      <trkpt lat="45.52259" lon="5.95014">
        <ele>352.46</ele>
        <time>2011-04-05T16:13:57Z</time>
      </trkpt>
      <trkpt lat="45.52263" lon="5.95009">
        <ele>352.46</ele>
        <time>2011-04-05T16:13:58Z</time>
      </trkpt>
      <trkpt lat="45.52284" lon="5.94984">
        <ele>353.42</ele>
        <time>2011-04-05T16:14:06Z</time>
      </trkpt>
      <trkpt lat="45.52313" lon="5.94986">
        <ele>355.83</ele>
        <time>2011-04-05T16:14:16Z</time>
      </trkpt>
      <trkpt lat="45.52334" lon="5.9498">
        <ele>354.86</ele>
        <time>2011-04-05T16:14:22Z</time>
      </trkpt>
      <trkpt lat="45.52338" lon="5.94979">
        <ele>354.86</ele>
        <time>2011-04-05T16:14:23Z</time>
      </trkpt>
      <trkpt lat="45.52346" lon="5.94978">
        <ele>354.38</ele>
        <time>2011-04-05T16:14:25Z</time>
      </trkpt>
      <trkpt lat="45.52374" lon="5.94967">
        <ele>354.38</ele>
        <time>2011-04-05T16:14:33Z</time>
      </trkpt>
      <trkpt lat="45.52378" lon="5.94966">
        <ele>353.9</ele>
        <time>2011-04-05T16:14:34Z</time>
      </trkpt>
      <trkpt lat="45.52383" lon="5.94964">
        <ele>353.42</ele>
        <time>2011-04-05T16:14:35Z</time>
      </trkpt>
      <trkpt lat="45.52388" lon="5.94964">
        <ele>353.42</ele>
        <time>2011-04-05T16:14:36Z</time>
      </trkpt>
      <trkpt lat="45.52393" lon="5.94964">
        <ele>352.94</ele>
        <time>2011-04-05T16:14:37Z</time>
      </trkpt>
      <trkpt lat="45.52398" lon="5.94964">
        <ele>353.42</ele>
        <time>2011-04-05T16:14:38Z</time>
      </trkpt>
      <trkpt lat="45.52403" lon="5.94965">
        <ele>352.94</ele>
        <time>2011-04-05T16:14:39Z</time>
      </trkpt>
      <trkpt lat="45.52432" lon="5.9497">
        <ele>351.5</ele>
        <time>2011-04-05T16:14:45Z</time>
      </trkpt>
      <trkpt lat="45.52444" lon="5.94969">
        <ele>350.54</ele>
        <time>2011-04-05T16:14:47Z</time>
      </trkpt>
      <trkpt lat="45.52464" lon="5.94963">
        <ele>349.58</ele>
        <time>2011-04-05T16:14:50Z</time>
      </trkpt>
      <trkpt lat="45.5247" lon="5.9496">
        <ele>349.1</ele>
        <time>2011-04-05T16:14:51Z</time>
      </trkpt>
      <trkpt lat="45.52482" lon="5.94951">
        <ele>349.1</ele>
        <time>2011-04-05T16:14:53Z</time>
      </trkpt>
      <trkpt lat="45.52487" lon="5.94946">
        <ele>349.1</ele>
        <time>2011-04-05T16:14:54Z</time>
      </trkpt>
      <trkpt lat="45.52509" lon="5.9492">
        <ele>348.62</ele>
        <time>2011-04-05T16:14:59Z</time>
      </trkpt>
      <trkpt lat="45.52513" lon="5.94917">
        <ele>348.62</ele>
        <time>2011-04-05T16:15:00Z</time>
      </trkpt>
      <trkpt lat="45.52518" lon="5.94916">
        <ele>349.1</ele>
        <time>2011-04-05T16:15:01Z</time>
      </trkpt>
      <trkpt lat="45.52557" lon="5.94911">
        <ele>352.46</ele>
        <time>2011-04-05T16:15:11Z</time>
      </trkpt>
      <trkpt lat="45.52593" lon="5.94905">
        <ele>353.9</ele>
        <time>2011-04-05T16:15:21Z</time>
      </trkpt>
      <trkpt lat="45.52625" lon="5.94893">
        <ele>354.86</ele>
        <time>2011-04-05T16:15:30Z</time>
      </trkpt>
      <trkpt lat="45.52634" lon="5.94889">
        <ele>354.86</ele>
        <time>2011-04-05T16:15:32Z</time>
      </trkpt>
      <trkpt lat="45.52638" lon="5.94887">
        <ele>354.86</ele>
        <time>2011-04-05T16:15:33Z</time>
      </trkpt>
      <trkpt lat="45.52678" lon="5.94873">
        <ele>355.83</ele>
        <time>2011-04-05T16:15:43Z</time>
      </trkpt>
      <trkpt lat="45.52715" lon="5.94867">
        <ele>356.31</ele>
        <time>2011-04-05T16:15:52Z</time>
      </trkpt>
      <trkpt lat="45.5276" lon="5.94857">
        <ele>359.19</ele>
        <time>2011-04-05T16:16:05Z</time>
      </trkpt>
      <trkpt lat="45.52799" lon="5.94847">
        <ele>362.07</ele>
        <time>2011-04-05T16:16:19Z</time>
      </trkpt>
      <trkpt lat="45.52828" lon="5.94839">
        <ele>365.44</ele>
        <time>2011-04-05T16:16:32Z</time>
      </trkpt>
      <trkpt lat="45.5286" lon="5.94842">
        <ele>367.36</ele>
        <time>2011-04-05T16:16:46Z</time>
      </trkpt>
      <trkpt lat="45.529" lon="5.94855">
        <ele>369.76</ele>
        <time>2011-04-05T16:17:02Z</time>
      </trkpt>
      <trkpt lat="45.52942" lon="5.94871">
        <ele>369.76</ele>
        <time>2011-04-05T16:17:15Z</time>
      </trkpt>
      <trkpt lat="45.52947" lon="5.9487">
        <ele>369.76</ele>
        <time>2011-04-05T16:17:16Z</time>
      </trkpt>
      <trkpt lat="45.52951" lon="5.9487">
        <ele>369.28</ele>
        <time>2011-04-05T16:17:17Z</time>
      </trkpt>
      <trkpt lat="45.52956" lon="5.94869">
        <ele>369.76</ele>
        <time>2011-04-05T16:17:18Z</time>
      </trkpt>
      <trkpt lat="45.52961" lon="5.94867">
        <ele>369.28</ele>
        <time>2011-04-05T16:17:19Z</time>
      </trkpt>
      <trkpt lat="45.52976" lon="5.94863">
        <ele>369.76</ele>
        <time>2011-04-05T16:17:22Z</time>
      </trkpt>
      <trkpt lat="45.53046" lon="5.94846">
        <ele>368.8</ele>
        <time>2011-04-05T16:17:36Z</time>
      </trkpt>
      <trkpt lat="45.53111" lon="5.94841">
        <ele>370.73</ele>
        <time>2011-04-05T16:17:50Z</time>
      </trkpt>
      <trkpt lat="45.53158" lon="5.94845">
        <ele>374.09</ele>
        <time>2011-04-05T16:18:03Z</time>
      </trkpt>
      <trkpt lat="45.53175" lon="5.94838">
        <ele>375.53</ele>
        <time>2011-04-05T16:18:14Z</time>
      </trkpt>
      <trkpt lat="45.53175" lon="5.94838">
        <ele>375.53</ele>
        <time>2011-04-05T16:18:38Z</time>
      </trkpt>
      <trkpt lat="45.53176" lon="5.94838">
        <ele>375.05</ele>
        <time>2011-04-05T16:18:49Z</time>
      </trkpt>
      <trkpt lat="45.53178" lon="5.94838">
        <ele>375.53</ele>
        <time>2011-04-05T16:18:50Z</time>
      </trkpt>
      <trkpt lat="45.53179" lon="5.94838">
        <ele>375.53</ele>
        <time>2011-04-05T16:18:51Z</time>
      </trkpt>
      <trkpt lat="45.53181" lon="5.94838">
        <ele>375.53</ele>
        <time>2011-04-05T16:18:52Z</time>
      </trkpt>
      <trkpt lat="45.53184" lon="5.94838">
        <ele>375.05</ele>
        <time>2011-04-05T16:18:53Z</time>
      </trkpt>
      <trkpt lat="45.5319" lon="5.9484">
        <ele>374.57</ele>
        <time>2011-04-05T16:18:55Z</time>
      </trkpt>
      <trkpt lat="45.53235" lon="5.94847">
        <ele>371.69</ele>
        <time>2011-04-05T16:19:03Z</time>
      </trkpt>
      <trkpt lat="45.53316" lon="5.94845">
        <ele>370.73</ele>
        <time>2011-04-05T16:19:16Z</time>
      </trkpt>
      <trkpt lat="45.53356" lon="5.94829">
        <ele>373.13</ele>
        <time>2011-04-05T16:19:25Z</time>
      </trkpt>
      <trkpt lat="45.53391" lon="5.94816">
        <ele>376.01</ele>
        <time>2011-04-05T16:19:35Z</time>
      </trkpt>
      <trkpt lat="45.53438" lon="5.94793">
        <ele>378.9</ele>
        <time>2011-04-05T16:19:50Z</time>
      </trkpt>
      <trkpt lat="45.53489" lon="5.94767">
        <ele>380.82</ele>
        <time>2011-04-05T16:20:06Z</time>
      </trkpt>
      <trkpt lat="45.53528" lon="5.94752">
        <ele>381.3</ele>
        <time>2011-04-05T16:20:19Z</time>
      </trkpt>
      <trkpt lat="45.5356" lon="5.94749">
        <ele>380.34</ele>
        <time>2011-04-05T16:20:27Z</time>
      </trkpt>
      <trkpt lat="45.53564" lon="5.94748">
        <ele>380.34</ele>
        <time>2011-04-05T16:20:28Z</time>
      </trkpt>
      <trkpt lat="45.53649" lon="5.94742">
        <ele>378.9</ele>
        <time>2011-04-05T16:20:45Z</time>
      </trkpt>
      <trkpt lat="45.53711" lon="5.94759">
        <ele>381.3</ele>
        <time>2011-04-05T16:20:59Z</time>
      </trkpt>
      <trkpt lat="45.53753" lon="5.94794">
        <ele>384.66</ele>
        <time>2011-04-05T16:21:13Z</time>
      </trkpt>
      <trkpt lat="45.53805" lon="5.94803">
        <ele>386.11</ele>
        <time>2011-04-05T16:21:27Z</time>
      </trkpt>
      <trkpt lat="45.53886" lon="5.94806">
        <ele>385.63</ele>
        <time>2011-04-05T16:21:43Z</time>
      </trkpt>
      <trkpt lat="45.53966" lon="5.94797">
        <ele>387.07</ele>
        <time>2011-04-05T16:22:00Z</time>
      </trkpt>
      <trkpt lat="45.54066" lon="5.94775">
        <ele>385.15</ele>
        <time>2011-04-05T16:22:17Z</time>
      </trkpt>
      <trkpt lat="45.54097" lon="5.94773">
        <ele>385.63</ele>
        <time>2011-04-05T16:22:23Z</time>
      </trkpt>
      <trkpt lat="45.541" lon="5.94775">
        <ele>385.63</ele>
        <time>2011-04-05T16:22:24Z</time>
      </trkpt>
      <trkpt lat="45.54104" lon="5.94779">
        <ele>385.63</ele>
        <time>2011-04-05T16:22:25Z</time>
      </trkpt>
      <trkpt lat="45.54105" lon="5.94785">
        <ele>385.15</ele>
        <time>2011-04-05T16:22:26Z</time>
      </trkpt>
      <trkpt lat="45.54105" lon="5.94792">
        <ele>384.18</ele>
        <time>2011-04-05T16:22:27Z</time>
      </trkpt>
      <trkpt lat="45.54102" lon="5.948">
        <ele>383.7</ele>
        <time>2011-04-05T16:22:28Z</time>
      </trkpt>
      <trkpt lat="45.54099" lon="5.94809">
        <ele>382.74</ele>
        <time>2011-04-05T16:22:29Z</time>
      </trkpt>
      <trkpt lat="45.54096" lon="5.94817">
        <ele>383.22</ele>
        <time>2011-04-05T16:22:30Z</time>
      </trkpt>
      <trkpt lat="45.54077" lon="5.9485">
        <ele>381.3</ele>
        <time>2011-04-05T16:22:35Z</time>
      </trkpt>
      <trkpt lat="45.54076" lon="5.94856">
        <ele>380.82</ele>
        <time>2011-04-05T16:22:36Z</time>
      </trkpt>
      <trkpt lat="45.54077" lon="5.9486">
        <ele>380.82</ele>
        <time>2011-04-05T16:22:37Z</time>
      </trkpt>
      <trkpt lat="45.54078" lon="5.94864">
        <ele>380.82</ele>
        <time>2011-04-05T16:22:38Z</time>
      </trkpt>
      <trkpt lat="45.5408" lon="5.94868">
        <ele>380.82</ele>
        <time>2011-04-05T16:22:39Z</time>
      </trkpt>
      <trkpt lat="45.54083" lon="5.9487">
        <ele>381.3</ele>
        <time>2011-04-05T16:22:40Z</time>
      </trkpt>
      <trkpt lat="45.54086" lon="5.94872">
        <ele>380.82</ele>
        <time>2011-04-05T16:22:41Z</time>
      </trkpt>
      <trkpt lat="45.5409" lon="5.94873">
        <ele>381.78</ele>
        <time>2011-04-05T16:22:42Z</time>
      </trkpt>
      <trkpt lat="45.54112" lon="5.94895">
        <ele>383.7</ele>
        <time>2011-04-05T16:22:51Z</time>
      </trkpt>
      <trkpt lat="45.54115" lon="5.94896">
        <ele>384.18</ele>
        <time>2011-04-05T16:22:52Z</time>
      </trkpt>
      <trkpt lat="45.54117" lon="5.94896">
        <ele>384.66</ele>
        <time>2011-04-05T16:22:53Z</time>
      </trkpt>
      <trkpt lat="45.5412" lon="5.94896">
        <ele>383.7</ele>
        <time>2011-04-05T16:22:54Z</time>
      </trkpt>
      <trkpt lat="45.54124" lon="5.94897">
        <ele>384.18</ele>
        <time>2011-04-05T16:22:55Z</time>
      </trkpt>
      <trkpt lat="45.54128" lon="5.94899">
        <ele>384.66</ele>
        <time>2011-04-05T16:22:56Z</time>
      </trkpt>
      <trkpt lat="45.5413" lon="5.949">
        <ele>385.15</ele>
        <time>2011-04-05T16:22:57Z</time>
      </trkpt>
      <trkpt lat="45.54133" lon="5.94901">
        <ele>385.15</ele>
        <time>2011-04-05T16:22:58Z</time>
      </trkpt>
      <trkpt lat="45.54137" lon="5.94902">
        <ele>385.15</ele>
        <time>2011-04-05T16:22:59Z</time>
      </trkpt>
      <trkpt lat="45.54141" lon="5.94902">
        <ele>386.11</ele>
        <time>2011-04-05T16:23:00Z</time>
      </trkpt>
      <trkpt lat="45.54161" lon="5.94906">
        <ele>387.55</ele>
        <time>2011-04-05T16:23:09Z</time>
      </trkpt>
      <trkpt lat="45.5417" lon="5.9491">
        <ele>388.51</ele>
        <time>2011-04-05T16:23:13Z</time>
      </trkpt>
      <trkpt lat="45.54173" lon="5.94913">
        <ele>388.99</ele>
        <time>2011-04-05T16:23:14Z</time>
      </trkpt>
      <trkpt lat="45.54174" lon="5.94915">
        <ele>389.47</ele>
        <time>2011-04-05T16:23:15Z</time>
      </trkpt>
      <trkpt lat="45.54182" lon="5.94922">
        <ele>388.99</ele>
        <time>2011-04-05T16:23:23Z</time>
      </trkpt>
      <trkpt lat="45.54183" lon="5.9492">
        <ele>388.99</ele>
        <time>2011-04-05T16:23:24Z</time>
      </trkpt>
      <trkpt lat="45.54182" lon="5.94918">
        <ele>388.99</ele>
        <time>2011-04-05T16:23:25Z</time>
      </trkpt>
      <trkpt lat="45.54182" lon="5.94916">
        <ele>388.51</ele>
        <time>2011-04-05T16:23:26Z</time>
      </trkpt>
      <trkpt lat="45.54181" lon="5.94913">
        <ele>388.51</ele>
        <time>2011-04-05T16:23:27Z</time>
      </trkpt>
      <trkpt lat="45.54178" lon="5.9491">
        <ele>388.03</ele>
        <time>2011-04-05T16:23:28Z</time>
      </trkpt>
      <trkpt lat="45.54175" lon="5.94908">
        <ele>387.55</ele>
        <time>2011-04-05T16:23:29Z</time>
      </trkpt>
      <trkpt lat="45.54172" lon="5.94906">
        <ele>387.55</ele>
        <time>2011-04-05T16:23:30Z</time>
      </trkpt>
      <trkpt lat="45.54165" lon="5.9491">
        <ele>386.59</ele>
        <time>2011-04-05T16:23:39Z</time>
      </trkpt>
      <trkpt lat="45.54173" lon="5.9494">
        <ele>386.59</ele>
        <time>2011-04-05T16:24:11Z</time>
      </trkpt>
      <trkpt lat="45.54182" lon="5.94945">
        <ele>386.11</ele>
        <time>2011-04-05T16:24:34Z</time>
      </trkpt>
      <trkpt lat="45.54186" lon="5.94943">
        <ele>386.59</ele>
        <time>2011-04-05T16:24:42Z</time>
      </trkpt>
      <trkpt lat="45.54188" lon="5.94943">
        <ele>387.07</ele>
        <time>2011-04-05T16:24:43Z</time>
      </trkpt>
      <trkpt lat="45.5419" lon="5.94943">
        <ele>386.59</ele>
        <time>2011-04-05T16:24:44Z</time>
      </trkpt>
      <trkpt lat="45.54192" lon="5.94944">
        <ele>387.07</ele>
        <time>2011-04-05T16:24:45Z</time>
      </trkpt>
      <trkpt lat="45.54194" lon="5.94944">
        <ele>387.07</ele>
        <time>2011-04-05T16:24:46Z</time>
      </trkpt>
      <trkpt lat="45.54201" lon="5.94948">
        <ele>388.51</ele>
        <time>2011-04-05T16:24:49Z</time>
      </trkpt>
      <trkpt lat="45.54223" lon="5.94945">
        <ele>386.11</ele>
        <time>2011-04-05T16:25:01Z</time>
      </trkpt>
      <trkpt lat="45.54253" lon="5.94933">
        <ele>382.26</ele>
        <time>2011-04-05T16:25:11Z</time>
      </trkpt>
      <trkpt lat="45.54273" lon="5.94938">
        <ele>378.9</ele>
        <time>2011-04-05T16:25:15Z</time>
      </trkpt>
      <trkpt lat="45.5429" lon="5.94942">
        <ele>376.01</ele>
        <time>2011-04-05T16:25:18Z</time>
      </trkpt>
      <trkpt lat="45.54297" lon="5.94944">
        <ele>373.61</ele>
        <time>2011-04-05T16:25:20Z</time>
      </trkpt>
      <trkpt lat="45.54313" lon="5.94948">
        <ele>370.24</ele>
        <time>2011-04-05T16:25:22Z</time>
      </trkpt>
      <trkpt lat="45.54324" lon="5.94953">
        <ele>366.4</ele>
        <time>2011-04-05T16:25:24Z</time>
      </trkpt>
      <trkpt lat="45.54358" lon="5.94946">
        <ele>365.92</ele>
        <time>2011-04-05T16:25:30Z</time>
      </trkpt>
      <trkpt lat="45.54383" lon="5.94937">
        <ele>363.52</ele>
        <time>2011-04-05T16:25:35Z</time>
      </trkpt>
      <trkpt lat="45.54388" lon="5.94937">
        <ele>363.04</ele>
        <time>2011-04-05T16:25:36Z</time>
      </trkpt>
      <trkpt lat="45.54399" lon="5.94942">
        <ele>361.11</ele>
        <time>2011-04-05T16:25:39Z</time>
      </trkpt>
      <trkpt lat="45.54401" lon="5.94946">
        <ele>360.15</ele>
        <time>2011-04-05T16:25:40Z</time>
      </trkpt>
      <trkpt lat="45.54402" lon="5.94951">
        <ele>358.71</ele>
        <time>2011-04-05T16:25:41Z</time>
      </trkpt>
      <trkpt lat="45.54403" lon="5.94957">
        <ele>356.31</ele>
        <time>2011-04-05T16:25:42Z</time>
      </trkpt>
      <trkpt lat="45.54403" lon="5.94966">
        <ele>354.86</ele>
        <time>2011-04-05T16:25:43Z</time>
      </trkpt>
      <trkpt lat="45.54402" lon="5.94977">
        <ele>352.46</ele>
        <time>2011-04-05T16:25:44Z</time>
      </trkpt>
      <trkpt lat="45.54398" lon="5.94992">
        <ele>351.5</ele>
        <time>2011-04-05T16:25:45Z</time>
      </trkpt>
      <trkpt lat="45.54395" lon="5.95007">
        <ele>350.06</ele>
        <time>2011-04-05T16:25:46Z</time>
      </trkpt>
      <trkpt lat="45.54379" lon="5.95059">
        <ele>351.98</ele>
        <time>2011-04-05T16:25:50Z</time>
      </trkpt>
      <trkpt lat="45.54369" lon="5.95091">
        <ele>347.17</ele>
        <time>2011-04-05T16:25:54Z</time>
      </trkpt>
      <trkpt lat="45.54366" lon="5.95099">
        <ele>346.21</ele>
        <time>2011-04-05T16:25:55Z</time>
      </trkpt>
      <trkpt lat="45.54361" lon="5.95116">
        <ele>343.81</ele>
        <time>2011-04-05T16:25:57Z</time>
      </trkpt>
      <trkpt lat="45.54358" lon="5.95135">
        <ele>343.33</ele>
        <time>2011-04-05T16:25:59Z</time>
      </trkpt>
      <trkpt lat="45.54355" lon="5.95202">
        <ele>343.33</ele>
        <time>2011-04-05T16:26:07Z</time>
      </trkpt>
      <trkpt lat="45.54356" lon="5.9522">
        <ele>343.81</ele>
        <time>2011-04-05T16:26:10Z</time>
      </trkpt>
      <trkpt lat="45.54369" lon="5.95226">
        <ele>344.77</ele>
        <time>2011-04-05T16:26:15Z</time>
      </trkpt>
      <trkpt lat="45.54374" lon="5.95225">
        <ele>344.77</ele>
        <time>2011-04-05T16:26:16Z</time>
      </trkpt>
      <trkpt lat="45.54383" lon="5.95224">
        <ele>344.77</ele>
        <time>2011-04-05T16:26:18Z</time>
      </trkpt>
      <trkpt lat="45.54404" lon="5.95224">
        <ele>344.77</ele>
        <time>2011-04-05T16:26:22Z</time>
      </trkpt>
      <trkpt lat="45.54409" lon="5.95223">
        <ele>345.25</ele>
        <time>2011-04-05T16:26:23Z</time>
      </trkpt>
      <trkpt lat="45.54414" lon="5.95221">
        <ele>345.25</ele>
        <time>2011-04-05T16:26:24Z</time>
      </trkpt>
      <trkpt lat="45.5442" lon="5.95218">
        <ele>345.25</ele>
        <time>2011-04-05T16:26:25Z</time>
      </trkpt>
      <trkpt lat="45.54425" lon="5.95215">
        <ele>344.77</ele>
        <time>2011-04-05T16:26:26Z</time>
      </trkpt>
      <trkpt lat="45.5443" lon="5.95211">
        <ele>345.25</ele>
        <time>2011-04-05T16:26:27Z</time>
      </trkpt>
      <trkpt lat="45.5444" lon="5.95206">
        <ele>344.29</ele>
        <time>2011-04-05T16:26:29Z</time>
      </trkpt>
      <trkpt lat="45.54446" lon="5.95203">
        <ele>344.29</ele>
        <time>2011-04-05T16:26:30Z</time>
      </trkpt>
      <trkpt lat="45.54511" lon="5.9516">
        <ele>342.85</ele>
        <time>2011-04-05T16:26:43Z</time>
      </trkpt>
      <trkpt lat="45.54517" lon="5.95159">
        <ele>342.85</ele>
        <time>2011-04-05T16:26:44Z</time>
      </trkpt>
      <trkpt lat="45.54522" lon="5.9516">
        <ele>342.37</ele>
        <time>2011-04-05T16:26:45Z</time>
      </trkpt>
      <trkpt lat="45.54528" lon="5.95163">
        <ele>342.37</ele>
        <time>2011-04-05T16:26:46Z</time>
      </trkpt>
      <trkpt lat="45.54532" lon="5.95167">
        <ele>342.37</ele>
        <time>2011-04-05T16:26:47Z</time>
      </trkpt>
      <trkpt lat="45.54536" lon="5.95173">
        <ele>342.85</ele>
        <time>2011-04-05T16:26:48Z</time>
      </trkpt>
      <trkpt lat="45.54539" lon="5.95179">
        <ele>343.33</ele>
        <time>2011-04-05T16:26:49Z</time>
      </trkpt>
      <trkpt lat="45.54541" lon="5.95186">
        <ele>342.85</ele>
        <time>2011-04-05T16:26:50Z</time>
      </trkpt>
      <trkpt lat="45.54543" lon="5.95193">
        <ele>343.33</ele>
        <time>2011-04-05T16:26:51Z</time>
      </trkpt>
      <trkpt lat="45.54558" lon="5.95244">
        <ele>346.21</ele>
        <time>2011-04-05T16:27:00Z</time>
      </trkpt>
      <trkpt lat="45.5456" lon="5.95244">
        <ele>346.69</ele>
        <time>2011-04-05T16:27:01Z</time>
      </trkpt>
      <trkpt lat="45.54562" lon="5.95243">
        <ele>346.69</ele>
        <time>2011-04-05T16:27:02Z</time>
      </trkpt>
      <trkpt lat="45.54565" lon="5.95241">
        <ele>346.69</ele>
        <time>2011-04-05T16:27:03Z</time>
      </trkpt>
      <trkpt lat="45.54569" lon="5.95239">
        <ele>347.17</ele>
        <time>2011-04-05T16:27:04Z</time>
      </trkpt>
      <trkpt lat="45.54572" lon="5.95238">
        <ele>348.13</ele>
        <time>2011-04-05T16:27:05Z</time>
      </trkpt>
      <trkpt lat="45.54608" lon="5.95225">
        <ele>349.58</ele>
        <time>2011-04-05T16:27:16Z</time>
      </trkpt>
      <trkpt lat="45.54614" lon="5.95221">
        <ele>348.62</ele>
        <time>2011-04-05T16:27:18Z</time>
      </trkpt>
      <trkpt lat="45.54619" lon="5.95219">
        <ele>348.13</ele>
        <time>2011-04-05T16:27:19Z</time>
      </trkpt>
      <trkpt lat="45.54623" lon="5.95219">
        <ele>347.65</ele>
        <time>2011-04-05T16:27:20Z</time>
      </trkpt>
      <trkpt lat="45.54669" lon="5.95231">
        <ele>348.62</ele>
        <time>2011-04-05T16:27:31Z</time>
      </trkpt>
      <trkpt lat="45.54691" lon="5.95243">
        <ele>348.62</ele>
        <time>2011-04-05T16:27:38Z</time>
      </trkpt>
      <trkpt lat="45.54695" lon="5.9524">
        <ele>347.65</ele>
        <time>2011-04-05T16:27:39Z</time>
      </trkpt>
      <trkpt lat="45.54699" lon="5.95235">
        <ele>347.17</ele>
        <time>2011-04-05T16:27:40Z</time>
      </trkpt>
      <trkpt lat="45.54702" lon="5.9523">
        <ele>346.21</ele>
        <time>2011-04-05T16:27:41Z</time>
      </trkpt>
      <trkpt lat="45.54706" lon="5.95224">
        <ele>345.25</ele>
        <time>2011-04-05T16:27:42Z</time>
      </trkpt>
      <trkpt lat="45.5471" lon="5.95217">
        <ele>344.77</ele>
        <time>2011-04-05T16:27:43Z</time>
      </trkpt>
      <trkpt lat="45.54714" lon="5.95209">
        <ele>344.29</ele>
        <time>2011-04-05T16:27:44Z</time>
      </trkpt>
      <trkpt lat="45.54718" lon="5.95202">
        <ele>343.33</ele>
        <time>2011-04-05T16:27:45Z</time>
      </trkpt>
      <trkpt lat="45.54722" lon="5.95196">
        <ele>342.85</ele>
        <time>2011-04-05T16:27:46Z</time>
      </trkpt>
      <trkpt lat="45.54726" lon="5.95191">
        <ele>341.41</ele>
        <time>2011-04-05T16:27:47Z</time>
      </trkpt>
      <trkpt lat="45.54731" lon="5.95186">
        <ele>340.44</ele>
        <time>2011-04-05T16:27:48Z</time>
      </trkpt>
      <trkpt lat="45.54737" lon="5.95183">
        <ele>340.44</ele>
        <time>2011-04-05T16:27:49Z</time>
      </trkpt>
      <trkpt lat="45.54743" lon="5.95181">
        <ele>340.92</ele>
        <time>2011-04-05T16:27:50Z</time>
      </trkpt>
      <trkpt lat="45.54749" lon="5.95179">
        <ele>339.96</ele>
        <time>2011-04-05T16:27:51Z</time>
      </trkpt>
      <trkpt lat="45.54787" lon="5.95175">
        <ele>340.44</ele>
        <time>2011-04-05T16:27:57Z</time>
      </trkpt>
      <trkpt lat="45.54821" lon="5.95171">
        <ele>339</ele>
        <time>2011-04-05T16:28:03Z</time>
      </trkpt>
      <trkpt lat="45.54825" lon="5.95171">
        <ele>338.52</ele>
        <time>2011-04-05T16:28:04Z</time>
      </trkpt>
      <trkpt lat="45.5483" lon="5.9517">
        <ele>338.52</ele>
        <time>2011-04-05T16:28:05Z</time>
      </trkpt>
      <trkpt lat="45.54836" lon="5.95167">
        <ele>338.04</ele>
        <time>2011-04-05T16:28:06Z</time>
      </trkpt>
      <trkpt lat="45.54842" lon="5.95162">
        <ele>338.04</ele>
        <time>2011-04-05T16:28:07Z</time>
      </trkpt>
      <trkpt lat="45.54847" lon="5.95157">
        <ele>338.04</ele>
        <time>2011-04-05T16:28:08Z</time>
      </trkpt>
      <trkpt lat="45.54858" lon="5.95148">
        <ele>337.08</ele>
        <time>2011-04-05T16:28:10Z</time>
      </trkpt>
      <trkpt lat="45.54885" lon="5.95127">
        <ele>333.71</ele>
        <time>2011-04-05T16:28:15Z</time>
      </trkpt>
      <trkpt lat="45.5489" lon="5.95123">
        <ele>332.27</ele>
        <time>2011-04-05T16:28:16Z</time>
      </trkpt>
      <trkpt lat="45.54894" lon="5.95121">
        <ele>330.35</ele>
        <time>2011-04-05T16:28:17Z</time>
      </trkpt>
      <trkpt lat="45.54898" lon="5.9512">
        <ele>328.91</ele>
        <time>2011-04-05T16:28:18Z</time>
      </trkpt>
      <trkpt lat="45.54903" lon="5.95119">
        <ele>328.43</ele>
        <time>2011-04-05T16:28:19Z</time>
      </trkpt>
      <trkpt lat="45.5491" lon="5.9512">
        <ele>327.95</ele>
        <time>2011-04-05T16:28:20Z</time>
      </trkpt>
      <trkpt lat="45.54917" lon="5.95122">
        <ele>327.95</ele>
        <time>2011-04-05T16:28:21Z</time>
      </trkpt>
      <trkpt lat="45.54925" lon="5.95123">
        <ele>327.95</ele>
        <time>2011-04-05T16:28:22Z</time>
      </trkpt>
      <trkpt lat="45.54933" lon="5.95123">
        <ele>326.5</ele>
        <time>2011-04-05T16:28:23Z</time>
      </trkpt>
      <trkpt lat="45.54939" lon="5.9512">
        <ele>325.54</ele>
        <time>2011-04-05T16:28:24Z</time>
      </trkpt>
      <trkpt lat="45.54945" lon="5.95118">
        <ele>324.1</ele>
        <time>2011-04-05T16:28:25Z</time>
      </trkpt>
      <trkpt lat="45.54951" lon="5.95118">
        <ele>323.14</ele>
        <time>2011-04-05T16:28:26Z</time>
      </trkpt>
      <trkpt lat="45.54957" lon="5.95119">
        <ele>322.18</ele>
        <time>2011-04-05T16:28:27Z</time>
      </trkpt>
      <trkpt lat="45.54963" lon="5.95121">
        <ele>321.7</ele>
        <time>2011-04-05T16:28:28Z</time>
      </trkpt>
      <trkpt lat="45.54968" lon="5.95125">
        <ele>320.74</ele>
        <time>2011-04-05T16:28:29Z</time>
      </trkpt>
      <trkpt lat="45.54973" lon="5.9513">
        <ele>319.78</ele>
        <time>2011-04-05T16:28:30Z</time>
      </trkpt>
      <trkpt lat="45.54977" lon="5.95134">
        <ele>318.81</ele>
        <time>2011-04-05T16:28:31Z</time>
      </trkpt>
      <trkpt lat="45.54982" lon="5.95138">
        <ele>317.85</ele>
        <time>2011-04-05T16:28:32Z</time>
      </trkpt>
      <trkpt lat="45.54988" lon="5.95144">
        <ele>315.93</ele>
        <time>2011-04-05T16:28:33Z</time>
      </trkpt>
      <trkpt lat="45.54999" lon="5.95157">
        <ele>314.49</ele>
        <time>2011-04-05T16:28:35Z</time>
      </trkpt>
      <trkpt lat="45.55013" lon="5.95171">
        <ele>313.53</ele>
        <time>2011-04-05T16:28:37Z</time>
      </trkpt>
      <trkpt lat="45.55044" lon="5.95207">
        <ele>311.12</ele>
        <time>2011-04-05T16:28:42Z</time>
      </trkpt>
      <trkpt lat="45.5505" lon="5.95212">
        <ele>309.68</ele>
        <time>2011-04-05T16:28:43Z</time>
      </trkpt>
      <trkpt lat="45.55056" lon="5.95217">
        <ele>308.24</ele>
        <time>2011-04-05T16:28:44Z</time>
      </trkpt>
      <trkpt lat="45.55061" lon="5.95224">
        <ele>308.24</ele>
        <time>2011-04-05T16:28:45Z</time>
      </trkpt>
      <trkpt lat="45.55071" lon="5.95233">
        <ele>308.24</ele>
        <time>2011-04-05T16:28:47Z</time>
      </trkpt>
      <trkpt lat="45.55075" lon="5.95235">
        <ele>308.24</ele>
        <time>2011-04-05T16:28:48Z</time>
      </trkpt>
      <trkpt lat="45.55079" lon="5.95236">
        <ele>307.76</ele>
        <time>2011-04-05T16:28:49Z</time>
      </trkpt>
      <trkpt lat="45.55084" lon="5.95235">
        <ele>307.76</ele>
        <time>2011-04-05T16:28:50Z</time>
      </trkpt>
      <trkpt lat="45.55088" lon="5.95235">
        <ele>307.76</ele>
        <time>2011-04-05T16:28:51Z</time>
      </trkpt>
      <trkpt lat="45.55092" lon="5.95237">
        <ele>307.76</ele>
        <time>2011-04-05T16:28:52Z</time>
      </trkpt>
      <trkpt lat="45.55096" lon="5.95242">
        <ele>307.28</ele>
        <time>2011-04-05T16:28:53Z</time>
      </trkpt>
      <trkpt lat="45.55101" lon="5.95248">
        <ele>306.8</ele>
        <time>2011-04-05T16:28:54Z</time>
      </trkpt>
      <trkpt lat="45.55105" lon="5.95254">
        <ele>305.84</ele>
        <time>2011-04-05T16:28:55Z</time>
      </trkpt>
      <trkpt lat="45.55113" lon="5.95267">
        <ele>304.39</ele>
        <time>2011-04-05T16:28:57Z</time>
      </trkpt>
      <trkpt lat="45.55117" lon="5.95271">
        <ele>303.91</ele>
        <time>2011-04-05T16:28:58Z</time>
      </trkpt>
      <trkpt lat="45.55128" lon="5.95281">
        <ele>302.47</ele>
        <time>2011-04-05T16:29:00Z</time>
      </trkpt>
      <trkpt lat="45.55133" lon="5.95288">
        <ele>302.47</ele>
        <time>2011-04-05T16:29:01Z</time>
      </trkpt>
      <trkpt lat="45.55142" lon="5.95303">
        <ele>301.03</ele>
        <time>2011-04-05T16:29:03Z</time>
      </trkpt>
      <trkpt lat="45.55148" lon="5.9531">
        <ele>300.55</ele>
        <time>2011-04-05T16:29:04Z</time>
      </trkpt>
      <trkpt lat="45.55158" lon="5.95322">
        <ele>299.59</ele>
        <time>2011-04-05T16:29:06Z</time>
      </trkpt>
      <trkpt lat="45.55164" lon="5.95325">
        <ele>299.11</ele>
        <time>2011-04-05T16:29:07Z</time>
      </trkpt>
      <trkpt lat="45.5517" lon="5.95326">
        <ele>299.11</ele>
        <time>2011-04-05T16:29:08Z</time>
      </trkpt>
      <trkpt lat="45.55181" lon="5.95327">
        <ele>298.15</ele>
        <time>2011-04-05T16:29:10Z</time>
      </trkpt>
      <trkpt lat="45.55191" lon="5.95329">
        <ele>297.18</ele>
        <time>2011-04-05T16:29:12Z</time>
      </trkpt>
      <trkpt lat="45.55195" lon="5.9533">
        <ele>296.22</ele>
        <time>2011-04-05T16:29:13Z</time>
      </trkpt>
      <trkpt lat="45.55197" lon="5.95332">
        <ele>296.22</ele>
        <time>2011-04-05T16:29:14Z</time>
      </trkpt>
      <trkpt lat="45.55202" lon="5.95338">
        <ele>295.74</ele>
        <time>2011-04-05T16:29:17Z</time>
      </trkpt>
      <trkpt lat="45.55211" lon="5.95338">
        <ele>295.26</ele>
        <time>2011-04-05T16:29:19Z</time>
      </trkpt>
      <trkpt lat="45.55215" lon="5.9534">
        <ele>295.26</ele>
        <time>2011-04-05T16:29:20Z</time>
      </trkpt>
      <trkpt lat="45.5522" lon="5.95342">
        <ele>294.78</ele>
        <time>2011-04-05T16:29:21Z</time>
      </trkpt>
      <trkpt lat="45.55262" lon="5.95367">
        <ele>292.38</ele>
        <time>2011-04-05T16:29:28Z</time>
      </trkpt>
      <trkpt lat="45.55268" lon="5.9537">
        <ele>291.42</ele>
        <time>2011-04-05T16:29:29Z</time>
      </trkpt>
      <trkpt lat="45.55301" lon="5.95386">
        <ele>289.49</ele>
        <time>2011-04-05T16:29:35Z</time>
      </trkpt>
      <trkpt lat="45.55304" lon="5.95387">
        <ele>289.01</ele>
        <time>2011-04-05T16:29:36Z</time>
      </trkpt>
      <trkpt lat="45.55309" lon="5.95388">
        <ele>288.53</ele>
        <time>2011-04-05T16:29:37Z</time>
      </trkpt>
      <trkpt lat="45.55314" lon="5.95387">
        <ele>288.05</ele>
        <time>2011-04-05T16:29:38Z</time>
      </trkpt>
      <trkpt lat="45.55319" lon="5.95386">
        <ele>287.57</ele>
        <time>2011-04-05T16:29:39Z</time>
      </trkpt>
      <trkpt lat="45.55324" lon="5.95386">
        <ele>287.57</ele>
        <time>2011-04-05T16:29:40Z</time>
      </trkpt>
      <trkpt lat="45.5533" lon="5.95388">
        <ele>287.09</ele>
        <time>2011-04-05T16:29:41Z</time>
      </trkpt>
      <trkpt lat="45.55334" lon="5.95391">
        <ele>287.09</ele>
        <time>2011-04-05T16:29:42Z</time>
      </trkpt>
      <trkpt lat="45.55338" lon="5.95394">
        <ele>286.61</ele>
        <time>2011-04-05T16:29:43Z</time>
      </trkpt>
      <trkpt lat="45.55342" lon="5.95398">
        <ele>286.61</ele>
        <time>2011-04-05T16:29:44Z</time>
      </trkpt>
      <trkpt lat="45.55346" lon="5.954">
        <ele>286.61</ele>
        <time>2011-04-05T16:29:45Z</time>
      </trkpt>
      <trkpt lat="45.55349" lon="5.954">
        <ele>287.09</ele>
        <time>2011-04-05T16:29:46Z</time>
      </trkpt>
      <trkpt lat="45.55353" lon="5.95397">
        <ele>287.57</ele>
        <time>2011-04-05T16:29:47Z</time>
      </trkpt>
      <trkpt lat="45.55355" lon="5.95392">
        <ele>287.09</ele>
        <time>2011-04-05T16:29:48Z</time>
      </trkpt>
      <trkpt lat="45.55358" lon="5.95386">
        <ele>286.61</ele>
        <time>2011-04-05T16:29:49Z</time>
      </trkpt>
      <trkpt lat="45.55361" lon="5.9538">
        <ele>286.61</ele>
        <time>2011-04-05T16:29:50Z</time>
      </trkpt>
      <trkpt lat="45.55365" lon="5.95375">
        <ele>286.61</ele>
        <time>2011-04-05T16:29:51Z</time>
      </trkpt>
      <trkpt lat="45.55418" lon="5.95318">
        <ele>284.21</ele>
        <time>2011-04-05T16:30:02Z</time>
      </trkpt>
      <trkpt lat="45.55492" lon="5.95222">
        <ele>283.73</ele>
        <time>2011-04-05T16:30:18Z</time>
      </trkpt>
      <trkpt lat="45.5555" lon="5.95151">
        <ele>284.21</ele>
        <time>2011-04-05T16:30:31Z</time>
      </trkpt>
      <trkpt lat="45.55629" lon="5.95051">
        <ele>283.73</ele>
        <time>2011-04-05T16:30:50Z</time>
      </trkpt>
      <trkpt lat="45.55645" lon="5.95028">
        <ele>283.73</ele>
        <time>2011-04-05T16:30:54Z</time>
      </trkpt>
      <trkpt lat="45.55693" lon="5.94973">
        <ele>284.21</ele>
        <time>2011-04-05T16:31:05Z</time>
      </trkpt>
      <trkpt lat="45.55722" lon="5.94923">
        <ele>283.73</ele>
        <time>2011-04-05T16:31:13Z</time>
      </trkpt>
      <trkpt lat="45.55726" lon="5.94917">
        <ele>283.73</ele>
        <time>2011-04-05T16:31:14Z</time>
      </trkpt>
      <trkpt lat="45.55735" lon="5.94907">
        <ele>283.25</ele>
        <time>2011-04-05T16:31:16Z</time>
      </trkpt>
      <trkpt lat="45.55741" lon="5.94903">
        <ele>283.73</ele>
        <time>2011-04-05T16:31:17Z</time>
      </trkpt>
      <trkpt lat="45.55756" lon="5.94893">
        <ele>283.25</ele>
        <time>2011-04-05T16:31:20Z</time>
      </trkpt>
      <trkpt lat="45.55767" lon="5.94879">
        <ele>283.73</ele>
        <time>2011-04-05T16:31:23Z</time>
      </trkpt>
      <trkpt lat="45.55769" lon="5.94874">
        <ele>283.25</ele>
        <time>2011-04-05T16:31:24Z</time>
      </trkpt>
      <trkpt lat="45.55769" lon="5.9487">
        <ele>282.77</ele>
        <time>2011-04-05T16:31:25Z</time>
      </trkpt>
      <trkpt lat="45.55766" lon="5.94865">
        <ele>282.77</ele>
        <time>2011-04-05T16:31:26Z</time>
      </trkpt>
      <trkpt lat="45.55765" lon="5.9486">
        <ele>283.25</ele>
        <time>2011-04-05T16:31:27Z</time>
      </trkpt>
      <trkpt lat="45.55764" lon="5.94855">
        <ele>283.73</ele>
        <time>2011-04-05T16:31:28Z</time>
      </trkpt>
      <trkpt lat="45.55766" lon="5.94851">
        <ele>283.73</ele>
        <time>2011-04-05T16:31:29Z</time>
      </trkpt>
      <trkpt lat="45.55769" lon="5.94849">
        <ele>283.25</ele>
        <time>2011-04-05T16:31:30Z</time>
      </trkpt>
      <trkpt lat="45.55774" lon="5.94847">
        <ele>283.25</ele>
        <time>2011-04-05T16:31:31Z</time>
      </trkpt>
      <trkpt lat="45.55778" lon="5.94844">
        <ele>283.73</ele>
        <time>2011-04-05T16:31:32Z</time>
      </trkpt>
      <trkpt lat="45.55783" lon="5.9484">
        <ele>283.73</ele>
        <time>2011-04-05T16:31:33Z</time>
      </trkpt>
      <trkpt lat="45.55854" lon="5.948">
        <ele>283.25</ele>
        <time>2011-04-05T16:31:47Z</time>
      </trkpt>
      <trkpt lat="45.55864" lon="5.94794">
        <ele>283.25</ele>
        <time>2011-04-05T16:31:49Z</time>
      </trkpt>
      <trkpt lat="45.55869" lon="5.9479">
        <ele>282.77</ele>
        <time>2011-04-05T16:31:50Z</time>
      </trkpt>
      <trkpt lat="45.55873" lon="5.94783">
        <ele>283.25</ele>
        <time>2011-04-05T16:31:51Z</time>
      </trkpt>
      <trkpt lat="45.55875" lon="5.94775">
        <ele>282.28</ele>
        <time>2011-04-05T16:31:52Z</time>
      </trkpt>
      <trkpt lat="45.55877" lon="5.94766">
        <ele>281.8</ele>
        <time>2011-04-05T16:31:53Z</time>
      </trkpt>
      <trkpt lat="45.55878" lon="5.94757">
        <ele>281.8</ele>
        <time>2011-04-05T16:31:54Z</time>
      </trkpt>
      <trkpt lat="45.5589" lon="5.94705">
        <ele>281.8</ele>
        <time>2011-04-05T16:32:00Z</time>
      </trkpt>
      <trkpt lat="45.55892" lon="5.94697">
        <ele>281.32</ele>
        <time>2011-04-05T16:32:01Z</time>
      </trkpt>
      <trkpt lat="45.5593" lon="5.94616">
        <ele>281.8</ele>
        <time>2011-04-05T16:32:12Z</time>
      </trkpt>
      <trkpt lat="45.55934" lon="5.94608">
        <ele>281.32</ele>
        <time>2011-04-05T16:32:13Z</time>
      </trkpt>
      <trkpt lat="45.5595" lon="5.94576">
        <ele>281.32</ele>
        <time>2011-04-05T16:32:17Z</time>
      </trkpt>
      <trkpt lat="45.55955" lon="5.9457">
        <ele>280.84</ele>
        <time>2011-04-05T16:32:18Z</time>
      </trkpt>
      <trkpt lat="45.55961" lon="5.94564">
        <ele>280.84</ele>
        <time>2011-04-05T16:32:19Z</time>
      </trkpt>
      <trkpt lat="45.55967" lon="5.9456">
        <ele>280.84</ele>
        <time>2011-04-05T16:32:20Z</time>
      </trkpt>
      <trkpt lat="45.55974" lon="5.94557">
        <ele>280.84</ele>
        <time>2011-04-05T16:32:21Z</time>
      </trkpt>
      <trkpt lat="45.55981" lon="5.94555">
        <ele>280.84</ele>
        <time>2011-04-05T16:32:22Z</time>
      </trkpt>
      <trkpt lat="45.55988" lon="5.94553">
        <ele>280.36</ele>
        <time>2011-04-05T16:32:23Z</time>
      </trkpt>
      <trkpt lat="45.56063" lon="5.94534">
        <ele>280.36</ele>
        <time>2011-04-05T16:32:34Z</time>
      </trkpt>
      <trkpt lat="45.56068" lon="5.94529">
        <ele>279.4</ele>
        <time>2011-04-05T16:32:35Z</time>
      </trkpt>
      <trkpt lat="45.56073" lon="5.94523">
        <ele>280.84</ele>
        <time>2011-04-05T16:32:36Z</time>
      </trkpt>
      <trkpt lat="45.56076" lon="5.94515">
        <ele>281.32</ele>
        <time>2011-04-05T16:32:37Z</time>
      </trkpt>
      <trkpt lat="45.5608" lon="5.94508">
        <ele>280.36</ele>
        <time>2011-04-05T16:32:38Z</time>
      </trkpt>
      <trkpt lat="45.56087" lon="5.94486">
        <ele>280.36</ele>
        <time>2011-04-05T16:32:41Z</time>
      </trkpt>
      <trkpt lat="45.56107" lon="5.94381">
        <ele>280.36</ele>
        <time>2011-04-05T16:32:53Z</time>
      </trkpt>
      <trkpt lat="45.56107" lon="5.94372">
        <ele>280.36</ele>
        <time>2011-04-05T16:32:54Z</time>
      </trkpt>
      <trkpt lat="45.56107" lon="5.94354">
        <ele>280.36</ele>
        <time>2011-04-05T16:32:56Z</time>
      </trkpt>
      <trkpt lat="45.56118" lon="5.94264">
        <ele>279.88</ele>
        <time>2011-04-05T16:33:06Z</time>
      </trkpt>
      <trkpt lat="45.56118" lon="5.94255">
        <ele>279.4</ele>
        <time>2011-04-05T16:33:07Z</time>
      </trkpt>
      <trkpt lat="45.56116" lon="5.94247">
        <ele>279.4</ele>
        <time>2011-04-05T16:33:08Z</time>
      </trkpt>
      <trkpt lat="45.56114" lon="5.94239">
        <ele>279.88</ele>
        <time>2011-04-05T16:33:09Z</time>
      </trkpt>
      <trkpt lat="45.56112" lon="5.94231">
        <ele>279.4</ele>
        <time>2011-04-05T16:33:10Z</time>
      </trkpt>
      <trkpt lat="45.56112" lon="5.94223">
        <ele>279.4</ele>
        <time>2011-04-05T16:33:11Z</time>
      </trkpt>
      <trkpt lat="45.56113" lon="5.94217">
        <ele>279.88</ele>
        <time>2011-04-05T16:33:12Z</time>
      </trkpt>
      <trkpt lat="45.56115" lon="5.94213">
        <ele>279.88</ele>
        <time>2011-04-05T16:33:13Z</time>
      </trkpt>
      <trkpt lat="45.56118" lon="5.94208">
        <ele>279.4</ele>
        <time>2011-04-05T16:33:14Z</time>
      </trkpt>
      <trkpt lat="45.5612" lon="5.94204">
        <ele>279.4</ele>
        <time>2011-04-05T16:33:15Z</time>
      </trkpt>
      <trkpt lat="45.56121" lon="5.942">
        <ele>279.4</ele>
        <time>2011-04-05T16:33:16Z</time>
      </trkpt>
      <trkpt lat="45.56119" lon="5.9418">
        <ele>279.4</ele>
        <time>2011-04-05T16:33:22Z</time>
      </trkpt>
      <trkpt lat="45.5612" lon="5.94175">
        <ele>279.88</ele>
        <time>2011-04-05T16:33:23Z</time>
      </trkpt>
      <trkpt lat="45.56128" lon="5.94126">
        <ele>280.84</ele>
        <time>2011-04-05T16:33:33Z</time>
      </trkpt>
      <trkpt lat="45.56131" lon="5.94121">
        <ele>280.84</ele>
        <time>2011-04-05T16:33:34Z</time>
      </trkpt>
      <trkpt lat="45.56136" lon="5.94116">
        <ele>280.36</ele>
        <time>2011-04-05T16:33:35Z</time>
      </trkpt>
      <trkpt lat="45.56141" lon="5.9411">
        <ele>279.88</ele>
        <time>2011-04-05T16:33:36Z</time>
      </trkpt>
      <trkpt lat="45.56146" lon="5.94105">
        <ele>279.88</ele>
        <time>2011-04-05T16:33:37Z</time>
      </trkpt>
      <trkpt lat="45.56194" lon="5.94062">
        <ele>279.88</ele>
        <time>2011-04-05T16:33:45Z</time>
      </trkpt>
      <trkpt lat="45.56199" lon="5.9406">
        <ele>278.44</ele>
        <time>2011-04-05T16:33:46Z</time>
      </trkpt>
      <trkpt lat="45.56204" lon="5.94061">
        <ele>278.44</ele>
        <time>2011-04-05T16:33:47Z</time>
      </trkpt>
      <trkpt lat="45.56208" lon="5.94065">
        <ele>278.44</ele>
        <time>2011-04-05T16:33:48Z</time>
      </trkpt>
      <trkpt lat="45.56213" lon="5.94069">
        <ele>278.44</ele>
        <time>2011-04-05T16:33:49Z</time>
      </trkpt>
      <trkpt lat="45.56218" lon="5.94073">
        <ele>278.92</ele>
        <time>2011-04-05T16:33:50Z</time>
      </trkpt>
      <trkpt lat="45.56224" lon="5.94075">
        <ele>278.44</ele>
        <time>2011-04-05T16:33:51Z</time>
      </trkpt>
      <trkpt lat="45.56231" lon="5.94075">
        <ele>278.44</ele>
        <time>2011-04-05T16:33:52Z</time>
      </trkpt>
      <trkpt lat="45.56237" lon="5.94075">
        <ele>278.44</ele>
        <time>2011-04-05T16:33:53Z</time>
      </trkpt>
      <trkpt lat="45.56244" lon="5.94075">
        <ele>278.44</ele>
        <time>2011-04-05T16:33:54Z</time>
      </trkpt>
      <trkpt lat="45.56263" lon="5.94073">
        <ele>278.92</ele>
        <time>2011-04-05T16:33:57Z</time>
      </trkpt>
      <trkpt lat="45.56301" lon="5.94059">
        <ele>278.44</ele>
        <time>2011-04-05T16:34:03Z</time>
      </trkpt>
      <trkpt lat="45.56315" lon="5.94049">
        <ele>278.44</ele>
        <time>2011-04-05T16:34:05Z</time>
      </trkpt>
      <trkpt lat="45.56332" lon="5.9403">
        <ele>278.44</ele>
        <time>2011-04-05T16:34:08Z</time>
      </trkpt>
      <trkpt lat="45.56352" lon="5.94003">
        <ele>278.92</ele>
        <time>2011-04-05T16:34:12Z</time>
      </trkpt>
      <trkpt lat="45.56356" lon="5.93997">
        <ele>278.44</ele>
        <time>2011-04-05T16:34:13Z</time>
      </trkpt>
      <trkpt lat="45.5636" lon="5.93992">
        <ele>278.44</ele>
        <time>2011-04-05T16:34:14Z</time>
      </trkpt>
      <trkpt lat="45.56363" lon="5.93987">
        <ele>278.44</ele>
        <time>2011-04-05T16:34:15Z</time>
      </trkpt>
      <trkpt lat="45.56367" lon="5.93982">
        <ele>278.44</ele>
        <time>2011-04-05T16:34:16Z</time>
      </trkpt>
      <trkpt lat="45.56406" lon="5.93943">
        <ele>277.96</ele>
        <time>2011-04-05T16:34:24Z</time>
      </trkpt>
      <trkpt lat="45.5641" lon="5.93941">
        <ele>278.44</ele>
        <time>2011-04-05T16:34:25Z</time>
      </trkpt>
      <trkpt lat="45.5643" lon="5.93948">
        <ele>277.96</ele>
        <time>2011-04-05T16:34:33Z</time>
      </trkpt>
      <trkpt lat="45.56441" lon="5.93932">
        <ele>277</ele>
        <time>2011-04-05T16:34:38Z</time>
      </trkpt>
      <trkpt lat="45.56443" lon="5.93927">
        <ele>277.48</ele>
        <time>2011-04-05T16:34:40Z</time>
      </trkpt>
      <trkpt lat="45.56443" lon="5.93925">
        <ele>277.96</ele>
        <time>2011-04-05T16:35:07Z</time>
      </trkpt>
      <trkpt lat="45.56444" lon="5.93925">
        <ele>277</ele>
        <time>2011-04-05T16:35:42Z</time>
      </trkpt>
      <trkpt lat="45.56444" lon="5.93925">
        <ele>277.96</ele>
        <time>2011-04-05T16:35:56Z</time>
      </trkpt>
    </trkseg>
  </trk>
</gpx>